<?xml version='1.0' encoding='UTF-8'?><gpx version="1.1" creator="JPX - https://github.com/jenetics/jpx" xmlns="http://www.topografix.com/GPX/1/1"><trk><trkseg><trkpt lat="43.6622007" lon="13.3106582"><ele>19.0</ele><time>2026-04-04T06:28:12.268Z</time></trkpt><trkpt lat="43.6622643" lon="13.3106956"><ele>19.0</ele><time>2026-04-04T06:28:56.569Z</time></trkpt><trkpt lat="43.6618543" lon="13.3107025"><ele>20.6</ele><time>2026-04-04T06:28:59.572Z</time></trkpt><trkpt lat="43.6617525" lon="13.3106839"><ele>22.2</ele><time>2026-04-04T06:29:00.568Z</time></trkpt><trkpt lat="43.6616755" lon="13.3106724"><ele>23.800000000000004</ele><time>2026-04-04T06:29:01.571Z</time></trkpt><trkpt lat="43.6615971" lon="13.3107239"><ele>25.400000000000002</ele><time>2026-04-04T06:29:03.571Z</time></trkpt><trkpt lat="43.6615955" lon="13.3109061"><ele>27.0</ele><time>2026-04-04T06:29:05.567Z</time></trkpt><trkpt lat="43.6616063" lon="13.3110262"><ele>27.0</ele><time>2026-04-04T06:29:06.574Z</time></trkpt><trkpt lat="43.6616202" lon="13.3111513"><ele>27.0</ele><time>2026-04-04T06:29:07.572Z</time></trkpt><trkpt lat="43.661638" lon="13.3112633"><ele>27.0</ele><time>2026-04-04T06:29:08.565Z</time></trkpt><trkpt lat="43.6616531" lon="13.3113575"><ele>27.0</ele><time>2026-04-04T06:29:09.562Z</time></trkpt><trkpt lat="43.661647" lon="13.3114949"><ele>27.0</ele><time>2026-04-04T06:29:11.573Z</time></trkpt><trkpt lat="43.6615791" lon="13.3115412"><ele>27.0</ele><time>2026-04-04T06:29:13.571Z</time></trkpt><trkpt lat="43.6614915" lon="13.3115216"><ele>26.200000000000003</ele><time>2026-04-04T06:29:14.571Z</time></trkpt><trkpt lat="43.6613917" lon="13.3114934"><ele>25.400000000000002</ele><time>2026-04-04T06:29:15.571Z</time></trkpt><trkpt lat="43.6612792" lon="13.3114545"><ele>24.6</ele><time>2026-04-04T06:29:16.572Z</time></trkpt><trkpt lat="43.661171" lon="13.311415"><ele>23.799999999999997</ele><time>2026-04-04T06:29:17.572Z</time></trkpt><trkpt lat="43.661066" lon="13.3113713"><ele>23.0</ele><time>2026-04-04T06:29:18.569Z</time></trkpt><trkpt lat="43.6609635" lon="13.311336"><ele>24.333333333333336</ele><time>2026-04-04T06:29:19.571Z</time></trkpt><trkpt lat="43.6608732" lon="13.3113014"><ele>25.666666666666668</ele><time>2026-04-04T06:29:20.57Z</time></trkpt><trkpt lat="43.6607879" lon="13.3112639"><ele>27.0</ele><time>2026-04-04T06:29:21.572Z</time></trkpt><trkpt lat="43.6607186" lon="13.3112274"><ele>28.333333333333336</ele><time>2026-04-04T06:29:22.568Z</time></trkpt><trkpt lat="43.6606591" lon="13.3111924"><ele>29.666666666666668</ele><time>2026-04-04T06:29:23.578Z</time></trkpt><trkpt lat="43.6605933" lon="13.3111697"><ele>31.0</ele><time>2026-04-04T06:29:24.572Z</time></trkpt><trkpt lat="43.6605267" lon="13.3111635"><ele>31.0</ele><time>2026-04-04T06:29:25.58Z</time></trkpt><trkpt lat="43.6604083" lon="13.3111767"><ele>31.0</ele><time>2026-04-04T06:29:27.563Z</time></trkpt><trkpt lat="43.6603317" lon="13.3113483"><ele>31.0</ele><time>2026-04-04T06:29:29.575Z</time></trkpt><trkpt lat="43.6603017" lon="13.3114967"><ele>31.0</ele><time>2026-04-04T06:29:30.568Z</time></trkpt><trkpt lat="43.660265" lon="13.3116417"><ele>31.8</ele><time>2026-04-04T06:29:31.57Z</time></trkpt><trkpt lat="43.6602267" lon="13.3117817"><ele>32.6</ele><time>2026-04-04T06:29:32.573Z</time></trkpt><trkpt lat="43.66019" lon="13.3119233"><ele>33.4</ele><time>2026-04-04T06:29:33.568Z</time></trkpt><trkpt lat="43.660155" lon="13.31207"><ele>34.2</ele><time>2026-04-04T06:29:34.572Z</time></trkpt><trkpt lat="43.6601183" lon="13.3122183"><ele>35.0</ele><time>2026-04-04T06:29:35.573Z</time></trkpt><trkpt lat="43.660075" lon="13.312365"><ele>35.0</ele><time>2026-04-04T06:29:36.573Z</time></trkpt><trkpt lat="43.6600333" lon="13.3125067"><ele>35.0</ele><time>2026-04-04T06:29:37.575Z</time></trkpt><trkpt lat="43.6599917" lon="13.312645"><ele>35.0</ele><time>2026-04-04T06:29:38.569Z</time></trkpt><trkpt lat="43.6599517" lon="13.3127833"><ele>35.0</ele><time>2026-04-04T06:29:39.567Z</time></trkpt><trkpt lat="43.659915" lon="13.31292"><ele>35.0</ele><time>2026-04-04T06:29:40.57Z</time></trkpt><trkpt lat="43.659875" lon="13.313065"><ele>34.5</ele><time>2026-04-04T06:29:41.571Z</time></trkpt><trkpt lat="43.6598383" lon="13.3132233"><ele>34.0</ele><time>2026-04-04T06:29:42.569Z</time></trkpt><trkpt lat="43.6598067" lon="13.3133933"><ele>33.5</ele><time>2026-04-04T06:29:43.577Z</time></trkpt><trkpt lat="43.65978" lon="13.3135683"><ele>33.0</ele><time>2026-04-04T06:29:44.571Z</time></trkpt><trkpt lat="43.6597483" lon="13.3137367"><ele>31.25</ele><time>2026-04-04T06:29:45.572Z</time></trkpt><trkpt lat="43.659705" lon="13.3139067"><ele>29.5</ele><time>2026-04-04T06:29:46.572Z</time></trkpt><trkpt lat="43.6596567" lon="13.3140767"><ele>27.75</ele><time>2026-04-04T06:29:47.56Z</time></trkpt><trkpt lat="43.6596083" lon="13.3142533"><ele>26.0</ele><time>2026-04-04T06:29:48.572Z</time></trkpt><trkpt lat="43.6595633" lon="13.3144333"><ele>26.0</ele><time>2026-04-04T06:29:49.568Z</time></trkpt><trkpt lat="43.6595133" lon="13.3146133"><ele>26.0</ele><time>2026-04-04T06:29:50.572Z</time></trkpt><trkpt lat="43.65946" lon="13.3147867"><ele>26.0</ele><time>2026-04-04T06:29:51.57Z</time></trkpt><trkpt lat="43.659405" lon="13.3149583"><ele>26.0</ele><time>2026-04-04T06:29:52.573Z</time></trkpt><trkpt lat="43.6593433" lon="13.3151267"><ele>27.5</ele><time>2026-04-04T06:29:53.575Z</time></trkpt><trkpt lat="43.659275" lon="13.3152933"><ele>29.0</ele><time>2026-04-04T06:29:54.572Z</time></trkpt><trkpt lat="43.659205" lon="13.3154617"><ele>30.5</ele><time>2026-04-04T06:29:55.574Z</time></trkpt><trkpt lat="43.6591317" lon="13.31563"><ele>32.0</ele><time>2026-04-04T06:29:56.573Z</time></trkpt><trkpt lat="43.659055" lon="13.3157967"><ele>32.0</ele><time>2026-04-04T06:29:57.567Z</time></trkpt><trkpt lat="43.6589783" lon="13.3159567"><ele>32.0</ele><time>2026-04-04T06:29:58.57Z</time></trkpt><trkpt lat="43.6589017" lon="13.3161217"><ele>32.0</ele><time>2026-04-04T06:29:59.568Z</time></trkpt><trkpt lat="43.65882" lon="13.3162917"><ele>32.0</ele><time>2026-04-04T06:30:00.57Z</time></trkpt><trkpt lat="43.6587367" lon="13.3164583"><ele>31.0</ele><time>2026-04-04T06:30:01.563Z</time></trkpt><trkpt lat="43.658655" lon="13.316635"><ele>30.0</ele><time>2026-04-04T06:30:02.568Z</time></trkpt><trkpt lat="43.6585717" lon="13.316805"><ele>29.0</ele><time>2026-04-04T06:30:03.569Z</time></trkpt><trkpt lat="43.6584933" lon="13.3169717"><ele>28.0</ele><time>2026-04-04T06:30:04.57Z</time></trkpt><trkpt lat="43.658415" lon="13.3171333"><ele>29.75</ele><time>2026-04-04T06:30:05.58Z</time></trkpt><trkpt lat="43.6583383" lon="13.3172967"><ele>31.5</ele><time>2026-04-04T06:30:06.581Z</time></trkpt><trkpt lat="43.6582583" lon="13.3174583"><ele>33.25</ele><time>2026-04-04T06:30:07.573Z</time></trkpt><trkpt lat="43.658175" lon="13.3176233"><ele>35.0</ele><time>2026-04-04T06:30:08.571Z</time></trkpt><trkpt lat="43.6580966" lon="13.3177873"><ele>35.0</ele><time>2026-04-04T06:30:09.572Z</time></trkpt><trkpt lat="43.65802" lon="13.3179512"><ele>35.0</ele><time>2026-04-04T06:30:10.573Z</time></trkpt><trkpt lat="43.6579436" lon="13.3181249"><ele>35.0</ele><time>2026-04-04T06:30:11.581Z</time></trkpt><trkpt lat="43.6578666" lon="13.3183004"><ele>35.0</ele><time>2026-04-04T06:30:12.573Z</time></trkpt><trkpt lat="43.6577856" lon="13.3184742"><ele>35.25</ele><time>2026-04-04T06:30:13.576Z</time></trkpt><trkpt lat="43.6577042" lon="13.3186456"><ele>35.5</ele><time>2026-04-04T06:30:14.573Z</time></trkpt><trkpt lat="43.6576227" lon="13.3188203"><ele>35.75</ele><time>2026-04-04T06:30:15.573Z</time></trkpt><trkpt lat="43.6575431" lon="13.3189966"><ele>36.0</ele><time>2026-04-04T06:30:16.57Z</time></trkpt><trkpt lat="43.6574683" lon="13.3191714"><ele>36.0</ele><time>2026-04-04T06:30:17.581Z</time></trkpt><trkpt lat="43.6573993" lon="13.3193367"><ele>36.0</ele><time>2026-04-04T06:30:18.563Z</time></trkpt><trkpt lat="43.6573393" lon="13.3194972"><ele>36.0</ele><time>2026-04-04T06:30:19.571Z</time></trkpt><trkpt lat="43.6572861" lon="13.3196461"><ele>36.0</ele><time>2026-04-04T06:30:20.571Z</time></trkpt><trkpt lat="43.6572198" lon="13.3197929"><ele>34.75</ele><time>2026-04-04T06:30:21.572Z</time></trkpt><trkpt lat="43.6571444" lon="13.3199431"><ele>33.5</ele><time>2026-04-04T06:30:22.572Z</time></trkpt><trkpt lat="43.6570826" lon="13.3200959"><ele>32.25</ele><time>2026-04-04T06:30:23.573Z</time></trkpt><trkpt lat="43.657036" lon="13.3202393"><ele>31.0</ele><time>2026-04-04T06:30:24.571Z</time></trkpt><trkpt lat="43.6569989" lon="13.3203657"><ele>31.000000000000004</ele><time>2026-04-04T06:30:25.569Z</time></trkpt><trkpt lat="43.6569642" lon="13.3204728"><ele>31.0</ele><time>2026-04-04T06:30:26.572Z</time></trkpt><trkpt lat="43.6569279" lon="13.320553"><ele>31.0</ele><time>2026-04-04T06:30:27.579Z</time></trkpt><trkpt lat="43.6568658" lon="13.3205849"><ele>31.0</ele><time>2026-04-04T06:30:29.571Z</time></trkpt><trkpt lat="43.6568117" lon="13.3205"><ele>31.000000000000004</ele><time>2026-04-04T06:30:31.571Z</time></trkpt><trkpt lat="43.6567133" lon="13.3203917"><ele>31.0</ele><time>2026-04-04T06:30:33.565Z</time></trkpt><trkpt lat="43.6566567" lon="13.320335"><ele>32.5</ele><time>2026-04-04T06:30:34.578Z</time></trkpt><trkpt lat="43.65659" lon="13.320295"><ele>34.0</ele><time>2026-04-04T06:30:35.58Z</time></trkpt><trkpt lat="43.65656" lon="13.3201883"><ele>35.5</ele><time>2026-04-04T06:30:36.579Z</time></trkpt><trkpt lat="43.6564933" lon="13.3200683"><ele>37.0</ele><time>2026-04-04T06:30:38.571Z</time></trkpt><trkpt lat="43.65647" lon="13.3199867"><ele>38.5</ele><time>2026-04-04T06:30:39.575Z</time></trkpt><trkpt lat="43.6565" lon="13.3198833"><ele>40.0</ele><time>2026-04-04T06:30:40.56Z</time></trkpt><trkpt lat="43.656545" lon="13.3197617"><ele>40.333333333333336</ele><time>2026-04-04T06:30:41.577Z</time></trkpt><trkpt lat="43.6566217" lon="13.3196733"><ele>40.66666666666667</ele><time>2026-04-04T06:30:42.58Z</time></trkpt><trkpt lat="43.6566867" lon="13.3195717"><ele>41.0</ele><time>2026-04-04T06:30:43.571Z</time></trkpt><trkpt lat="43.6567283" lon="13.3194767"><ele>41.333333333333336</ele><time>2026-04-04T06:30:44.573Z</time></trkpt><trkpt lat="43.6567367" lon="13.31939"><ele>41.666666666666664</ele><time>2026-04-04T06:30:45.574Z</time></trkpt><trkpt lat="43.6566917" lon="13.319255"><ele>42.0</ele><time>2026-04-04T06:30:47.581Z</time></trkpt><trkpt lat="43.656635" lon="13.3192067"><ele>42.0</ele><time>2026-04-04T06:30:48.576Z</time></trkpt><trkpt lat="43.6565333" lon="13.31913"><ele>42.0</ele><time>2026-04-04T06:30:50.569Z</time></trkpt><trkpt lat="43.65647" lon="13.3190233"><ele>42.0</ele><time>2026-04-04T06:30:52.569Z</time></trkpt><trkpt lat="43.6564483" lon="13.318915"><ele>42.0</ele><time>2026-04-04T06:30:54.572Z</time></trkpt><trkpt lat="43.656495" lon="13.3187767"><ele>42.0</ele><time>2026-04-04T06:30:56.569Z</time></trkpt><trkpt lat="43.6566017" lon="13.3186583"><ele>43.333333333333336</ele><time>2026-04-04T06:30:57.57Z</time></trkpt><trkpt lat="43.6567083" lon="13.3185183"><ele>44.66666666666667</ele><time>2026-04-04T06:30:58.569Z</time></trkpt><trkpt lat="43.65682" lon="13.3183517"><ele>46.0</ele><time>2026-04-04T06:30:59.576Z</time></trkpt><trkpt lat="43.6569433" lon="13.3181583"><ele>45.0</ele><time>2026-04-04T06:31:00.576Z</time></trkpt><trkpt lat="43.6570683" lon="13.3179567"><ele>44.0</ele><time>2026-04-04T06:31:01.573Z</time></trkpt><trkpt lat="43.6571933" lon="13.3177617"><ele>43.0</ele><time>2026-04-04T06:31:02.57Z</time></trkpt><trkpt lat="43.6573183" lon="13.3175733"><ele>43.0</ele><time>2026-04-04T06:31:03.568Z</time></trkpt><trkpt lat="43.6574283" lon="13.3173867"><ele>43.0</ele><time>2026-04-04T06:31:04.57Z</time></trkpt><trkpt lat="43.657515" lon="13.31719"><ele>43.0</ele><time>2026-04-04T06:31:05.581Z</time></trkpt><trkpt lat="43.6575867" lon="13.316985"><ele>44.333333333333336</ele><time>2026-04-04T06:31:06.575Z</time></trkpt><trkpt lat="43.657655" lon="13.3167733"><ele>45.666666666666664</ele><time>2026-04-04T06:31:07.567Z</time></trkpt><trkpt lat="43.65772" lon="13.31656"><ele>47.0</ele><time>2026-04-04T06:31:08.568Z</time></trkpt><trkpt lat="43.6577833" lon="13.3163433"><ele>45.666666666666664</ele><time>2026-04-04T06:31:09.58Z</time></trkpt><trkpt lat="43.6578383" lon="13.31612"><ele>44.333333333333336</ele><time>2026-04-04T06:31:10.571Z</time></trkpt><trkpt lat="43.6578933" lon="13.315905"><ele>43.0</ele><time>2026-04-04T06:31:11.587Z</time></trkpt><trkpt lat="43.6579483" lon="13.3157033"><ele>44.4</ele><time>2026-04-04T06:31:12.569Z</time></trkpt><trkpt lat="43.6580083" lon="13.3155217"><ele>45.8</ele><time>2026-04-04T06:31:13.571Z</time></trkpt><trkpt lat="43.6580667" lon="13.3153617"><ele>47.2</ele><time>2026-04-04T06:31:14.566Z</time></trkpt><trkpt lat="43.6581167" lon="13.3152333"><ele>48.6</ele><time>2026-04-04T06:31:15.565Z</time></trkpt><trkpt lat="43.65814" lon="13.315145"><ele>50.0</ele><time>2026-04-04T06:31:16.57Z</time></trkpt><trkpt lat="43.6581533" lon="13.315015"><ele>50.0</ele><time>2026-04-04T06:31:18.571Z</time></trkpt><trkpt lat="43.65808" lon="13.3148817"><ele>50.0</ele><time>2026-04-04T06:31:20.574Z</time></trkpt><trkpt lat="43.6579983" lon="13.3148083"><ele>50.0</ele><time>2026-04-04T06:31:21.57Z</time></trkpt><trkpt lat="43.6578883" lon="13.3147283"><ele>50.0</ele><time>2026-04-04T06:31:22.57Z</time></trkpt><trkpt lat="43.657745" lon="13.3146217"><ele>53.66666666666667</ele><time>2026-04-04T06:31:23.568Z</time></trkpt><trkpt lat="43.6575867" lon="13.3144983"><ele>57.33333333333333</ele><time>2026-04-04T06:31:24.57Z</time></trkpt><trkpt lat="43.6574467" lon="13.3143867"><ele>61.0</ele><time>2026-04-04T06:31:25.574Z</time></trkpt><trkpt lat="43.6573133" lon="13.314285"><ele>61.0</ele><time>2026-04-04T06:31:26.571Z</time></trkpt><trkpt lat="43.657165" lon="13.3141783"><ele>61.0</ele><time>2026-04-04T06:31:27.575Z</time></trkpt><trkpt lat="43.6570183" lon="13.3140833"><ele>61.0</ele><time>2026-04-04T06:31:28.562Z</time></trkpt><trkpt lat="43.65686" lon="13.3139833"><ele>59.0</ele><time>2026-04-04T06:31:29.573Z</time></trkpt><trkpt lat="43.6566867" lon="13.3138933"><ele>57.0</ele><time>2026-04-04T06:31:30.574Z</time></trkpt><trkpt lat="43.6565333" lon="13.3137933"><ele>55.0</ele><time>2026-04-04T06:31:31.57Z</time></trkpt><trkpt lat="43.6563633" lon="13.313705"><ele>55.0</ele><time>2026-04-04T06:31:32.573Z</time></trkpt><trkpt lat="43.6561917" lon="13.3136133"><ele>55.0</ele><time>2026-04-04T06:31:33.569Z</time></trkpt><trkpt lat="43.656015" lon="13.313525"><ele>55.0</ele><time>2026-04-04T06:31:34.572Z</time></trkpt><trkpt lat="43.6558317" lon="13.313435"><ele>54.666666666666664</ele><time>2026-04-04T06:31:35.585Z</time></trkpt><trkpt lat="43.6556483" lon="13.3133533"><ele>54.33333333333333</ele><time>2026-04-04T06:31:36.573Z</time></trkpt><trkpt lat="43.6554717" lon="13.3132683"><ele>54.0</ele><time>2026-04-04T06:31:37.572Z</time></trkpt><trkpt lat="43.6552983" lon="13.31319"><ele>53.33333333333333</ele><time>2026-04-04T06:31:38.573Z</time></trkpt><trkpt lat="43.655135" lon="13.31311"><ele>52.666666666666664</ele><time>2026-04-04T06:31:39.568Z</time></trkpt><trkpt lat="43.6549767" lon="13.3130183"><ele>52.0</ele><time>2026-04-04T06:31:40.569Z</time></trkpt><trkpt lat="43.65482" lon="13.31293"><ele>52.0</ele><time>2026-04-04T06:31:41.583Z</time></trkpt><trkpt lat="43.6546617" lon="13.3128417"><ele>52.0</ele><time>2026-04-04T06:31:42.568Z</time></trkpt><trkpt lat="43.6545" lon="13.3127533"><ele>52.0</ele><time>2026-04-04T06:31:43.564Z</time></trkpt><trkpt lat="43.6543383" lon="13.3126683"><ele>50.666666666666664</ele><time>2026-04-04T06:31:44.568Z</time></trkpt><trkpt lat="43.6541817" lon="13.3125817"><ele>49.33333333333333</ele><time>2026-04-04T06:31:45.568Z</time></trkpt><trkpt lat="43.6540267" lon="13.3125017"><ele>48.0</ele><time>2026-04-04T06:31:46.574Z</time></trkpt><trkpt lat="43.6538633" lon="13.31243"><ele>48.0</ele><time>2026-04-04T06:31:47.583Z</time></trkpt><trkpt lat="43.6536883" lon="13.3123667"><ele>48.0</ele><time>2026-04-04T06:31:48.575Z</time></trkpt><trkpt lat="43.653505" lon="13.3123133"><ele>48.0</ele><time>2026-04-04T06:31:49.576Z</time></trkpt><trkpt lat="43.6533217" lon="13.3122667"><ele>46.666666666666664</ele><time>2026-04-04T06:31:50.571Z</time></trkpt><trkpt lat="43.65315" lon="13.3122117"><ele>45.33333333333333</ele><time>2026-04-04T06:31:51.573Z</time></trkpt><trkpt lat="43.6529783" lon="13.3121683"><ele>44.0</ele><time>2026-04-04T06:31:52.573Z</time></trkpt><trkpt lat="43.6528067" lon="13.31214"><ele>44.666666666666664</ele><time>2026-04-04T06:31:53.574Z</time></trkpt><trkpt lat="43.6526367" lon="13.3121133"><ele>45.333333333333336</ele><time>2026-04-04T06:31:54.571Z</time></trkpt><trkpt lat="43.6524683" lon="13.31209"><ele>46.0</ele><time>2026-04-04T06:31:55.565Z</time></trkpt><trkpt lat="43.6523133" lon="13.312055"><ele>46.0</ele><time>2026-04-04T06:31:56.577Z</time></trkpt><trkpt lat="43.6521617" lon="13.3120067"><ele>46.0</ele><time>2026-04-04T06:31:57.566Z</time></trkpt><trkpt lat="43.6520217" lon="13.3119333"><ele>46.0</ele><time>2026-04-04T06:31:58.571Z</time></trkpt><trkpt lat="43.65189" lon="13.3118367"><ele>45.0</ele><time>2026-04-04T06:31:59.569Z</time></trkpt><trkpt lat="43.6517583" lon="13.3117367"><ele>44.0</ele><time>2026-04-04T06:32:00.572Z</time></trkpt><trkpt lat="43.6516317" lon="13.3116283"><ele>43.0</ele><time>2026-04-04T06:32:01.577Z</time></trkpt><trkpt lat="43.6515083" lon="13.3115183"><ele>42.0</ele><time>2026-04-04T06:32:02.573Z</time></trkpt><trkpt lat="43.65138" lon="13.3114033"><ele>41.666666666666664</ele><time>2026-04-04T06:32:03.569Z</time></trkpt><trkpt lat="43.65125" lon="13.3112867"><ele>41.33333333333333</ele><time>2026-04-04T06:32:04.573Z</time></trkpt><trkpt lat="43.65112" lon="13.31117"><ele>41.0</ele><time>2026-04-04T06:32:05.587Z</time></trkpt><trkpt lat="43.65099" lon="13.31105"><ele>39.0</ele><time>2026-04-04T06:32:06.571Z</time></trkpt><trkpt lat="43.6508567" lon="13.3109367"><ele>37.0</ele><time>2026-04-04T06:32:07.57Z</time></trkpt><trkpt lat="43.6507217" lon="13.31083"><ele>35.0</ele><time>2026-04-04T06:32:08.571Z</time></trkpt><trkpt lat="43.650595" lon="13.3107267"><ele>35.0</ele><time>2026-04-04T06:32:09.569Z</time></trkpt><trkpt lat="43.650475" lon="13.3106233"><ele>35.0</ele><time>2026-04-04T06:32:10.571Z</time></trkpt><trkpt lat="43.6503617" lon="13.3105183"><ele>35.0</ele><time>2026-04-04T06:32:11.588Z</time></trkpt><trkpt lat="43.65025" lon="13.3104117"><ele>35.0</ele><time>2026-04-04T06:32:12.563Z</time></trkpt><trkpt lat="43.650135" lon="13.3103067"><ele>32.25</ele><time>2026-04-04T06:32:13.58Z</time></trkpt><trkpt lat="43.6500167" lon="13.3102017"><ele>29.5</ele><time>2026-04-04T06:32:14.576Z</time></trkpt><trkpt lat="43.6498933" lon="13.3100967"><ele>26.75</ele><time>2026-04-04T06:32:15.572Z</time></trkpt><trkpt lat="43.649765" lon="13.3099983"><ele>24.0</ele><time>2026-04-04T06:32:16.571Z</time></trkpt><trkpt lat="43.6496433" lon="13.3099"><ele>24.0</ele><time>2026-04-04T06:32:17.59Z</time></trkpt><trkpt lat="43.64953" lon="13.3098033"><ele>24.0</ele><time>2026-04-04T06:32:18.57Z</time></trkpt><trkpt lat="43.6494317" lon="13.3097033"><ele>24.0</ele><time>2026-04-04T06:32:19.575Z</time></trkpt><trkpt lat="43.64935" lon="13.3095933"><ele>24.0</ele><time>2026-04-04T06:32:20.568Z</time></trkpt><trkpt lat="43.6492833" lon="13.3094633"><ele>22.0</ele><time>2026-04-04T06:32:21.574Z</time></trkpt><trkpt lat="43.6492217" lon="13.30933"><ele>20.0</ele><time>2026-04-04T06:32:22.572Z</time></trkpt><trkpt lat="43.6491617" lon="13.3092033"><ele>18.0</ele><time>2026-04-04T06:32:23.62Z</time></trkpt><trkpt lat="43.649105" lon="13.3090967"><ele>16.0</ele><time>2026-04-04T06:32:24.573Z</time></trkpt><trkpt lat="43.6490417" lon="13.3090183"><ele>14.0</ele><time>2026-04-04T06:32:25.572Z</time></trkpt><trkpt lat="43.6489633" lon="13.3089617"><ele>14.0</ele><time>2026-04-04T06:32:26.581Z</time></trkpt><trkpt lat="43.6488683" lon="13.3089333"><ele>14.0</ele><time>2026-04-04T06:32:27.573Z</time></trkpt><trkpt lat="43.648745" lon="13.3089233"><ele>14.0</ele><time>2026-04-04T06:32:28.574Z</time></trkpt><trkpt lat="43.6486017" lon="13.308925"><ele>14.0</ele><time>2026-04-04T06:32:29.571Z</time></trkpt><trkpt lat="43.64844" lon="13.30892"><ele>14.333333333333334</ele><time>2026-04-04T06:32:30.569Z</time></trkpt><trkpt lat="43.648275" lon="13.3089267"><ele>14.666666666666668</ele><time>2026-04-04T06:32:31.576Z</time></trkpt><trkpt lat="43.648115" lon="13.3089233"><ele>15.0</ele><time>2026-04-04T06:32:32.57Z</time></trkpt><trkpt lat="43.6479517" lon="13.30891"><ele>15.666666666666668</ele><time>2026-04-04T06:32:33.573Z</time></trkpt><trkpt lat="43.6477883" lon="13.308895"><ele>16.333333333333336</ele><time>2026-04-04T06:32:34.571Z</time></trkpt><trkpt lat="43.6476283" lon="13.30888"><ele>17.0</ele><time>2026-04-04T06:32:35.591Z</time></trkpt><trkpt lat="43.6474667" lon="13.3088617"><ele>17.0</ele><time>2026-04-04T06:32:36.572Z</time></trkpt><trkpt lat="43.6473083" lon="13.3088483"><ele>17.0</ele><time>2026-04-04T06:32:37.573Z</time></trkpt><trkpt lat="43.6471417" lon="13.3088367"><ele>17.0</ele><time>2026-04-04T06:32:38.573Z</time></trkpt><trkpt lat="43.6469783" lon="13.308825"><ele>17.25</ele><time>2026-04-04T06:32:39.572Z</time></trkpt><trkpt lat="43.64682" lon="13.3088083"><ele>17.5</ele><time>2026-04-04T06:32:40.572Z</time></trkpt><trkpt lat="43.6466767" lon="13.308795"><ele>17.75</ele><time>2026-04-04T06:32:41.591Z</time></trkpt><trkpt lat="43.6465333" lon="13.30878"><ele>18.0</ele><time>2026-04-04T06:32:42.576Z</time></trkpt><trkpt lat="43.6464017" lon="13.308765"><ele>18.0</ele><time>2026-04-04T06:32:43.571Z</time></trkpt><trkpt lat="43.6462767" lon="13.3087533"><ele>18.0</ele><time>2026-04-04T06:32:44.566Z</time></trkpt><trkpt lat="43.6461683" lon="13.308745"><ele>18.0</ele><time>2026-04-04T06:32:45.57Z</time></trkpt><trkpt lat="43.6460733" lon="13.3087367"><ele>18.0</ele><time>2026-04-04T06:32:46.567Z</time></trkpt><trkpt lat="43.6459917" lon="13.3087283"><ele>18.0</ele><time>2026-04-04T06:32:47.591Z</time></trkpt><trkpt lat="43.64592" lon="13.3087183"><ele>18.5</ele><time>2026-04-04T06:32:48.569Z</time></trkpt><trkpt lat="43.645835" lon="13.3086983"><ele>19.0</ele><time>2026-04-04T06:32:50.574Z</time></trkpt><trkpt lat="43.6457733" lon="13.3086767"><ele>19.5</ele><time>2026-04-04T06:32:55.57Z</time></trkpt><trkpt lat="43.6456783" lon="13.3087783"><ele>20.0</ele><time>2026-04-04T06:32:57.57Z</time></trkpt><trkpt lat="43.64562" lon="13.308845"><ele>20.5</ele><time>2026-04-04T06:32:58.578Z</time></trkpt><trkpt lat="43.6455483" lon="13.30893"><ele>21.0</ele><time>2026-04-04T06:32:59.568Z</time></trkpt><trkpt lat="43.6454717" lon="13.309015"><ele>21.25</ele><time>2026-04-04T06:33:00.576Z</time></trkpt><trkpt lat="43.6453867" lon="13.3091"><ele>21.5</ele><time>2026-04-04T06:33:01.569Z</time></trkpt><trkpt lat="43.64528" lon="13.3091767"><ele>21.75</ele><time>2026-04-04T06:33:02.571Z</time></trkpt><trkpt lat="43.6451583" lon="13.309245"><ele>22.0</ele><time>2026-04-04T06:33:03.58Z</time></trkpt><trkpt lat="43.6450117" lon="13.3093033"><ele>23.666666666666664</ele><time>2026-04-04T06:33:04.575Z</time></trkpt><trkpt lat="43.6448567" lon="13.30934"><ele>25.333333333333332</ele><time>2026-04-04T06:33:05.596Z</time></trkpt><trkpt lat="43.644695" lon="13.3093467"><ele>27.0</ele><time>2026-04-04T06:33:06.573Z</time></trkpt><trkpt lat="43.6445233" lon="13.3093333"><ele>29.333333333333336</ele><time>2026-04-04T06:33:07.575Z</time></trkpt><trkpt lat="43.6443517" lon="13.3093183"><ele>31.666666666666668</ele><time>2026-04-04T06:33:08.571Z</time></trkpt><trkpt lat="43.6441767" lon="13.3093067"><ele>34.0</ele><time>2026-04-04T06:33:09.565Z</time></trkpt><trkpt lat="43.6440067" lon="13.3092883"><ele>34.0</ele><time>2026-04-04T06:33:10.573Z</time></trkpt><trkpt lat="43.6438383" lon="13.309275"><ele>34.0</ele><time>2026-04-04T06:33:11.59Z</time></trkpt><trkpt lat="43.6436683" lon="13.3092583"><ele>34.0</ele><time>2026-04-04T06:33:12.568Z</time></trkpt><trkpt lat="43.6435033" lon="13.309235"><ele>37.0</ele><time>2026-04-04T06:33:13.564Z</time></trkpt><trkpt lat="43.6433367" lon="13.3092233"><ele>40.0</ele><time>2026-04-04T06:33:14.574Z</time></trkpt><trkpt lat="43.6431733" lon="13.3092067"><ele>43.0</ele><time>2026-04-04T06:33:15.576Z</time></trkpt><trkpt lat="43.6430167" lon="13.3091883"><ele>43.0</ele><time>2026-04-04T06:33:16.568Z</time></trkpt><trkpt lat="43.6428617" lon="13.309165"><ele>43.0</ele><time>2026-04-04T06:33:17.59Z</time></trkpt><trkpt lat="43.6427183" lon="13.3091367"><ele>43.0</ele><time>2026-04-04T06:33:18.574Z</time></trkpt><trkpt lat="43.64258" lon="13.309055"><ele>46.66666666666667</ele><time>2026-04-04T06:33:19.571Z</time></trkpt><trkpt lat="43.6424433" lon="13.308965"><ele>50.333333333333336</ele><time>2026-04-04T06:33:20.572Z</time></trkpt><trkpt lat="43.6423167" lon="13.3088483"><ele>54.0</ele><time>2026-04-04T06:33:21.574Z</time></trkpt><trkpt lat="43.642185" lon="13.3087533"><ele>55.25</ele><time>2026-04-04T06:33:22.574Z</time></trkpt><trkpt lat="43.6420533" lon="13.3086667"><ele>56.5</ele><time>2026-04-04T06:33:23.575Z</time></trkpt><trkpt lat="43.6419133" lon="13.3085967"><ele>57.75</ele><time>2026-04-04T06:33:24.565Z</time></trkpt><trkpt lat="43.641765" lon="13.308545"><ele>59.0</ele><time>2026-04-04T06:33:25.569Z</time></trkpt><trkpt lat="43.6416067" lon="13.3085017"><ele>62.333333333333336</ele><time>2026-04-04T06:33:26.573Z</time></trkpt><trkpt lat="43.6414483" lon="13.308465"><ele>65.66666666666667</ele><time>2026-04-04T06:33:27.577Z</time></trkpt><trkpt lat="43.6412933" lon="13.30843"><ele>69.0</ele><time>2026-04-04T06:33:28.577Z</time></trkpt><trkpt lat="43.64114" lon="13.3084017"><ele>71.5</ele><time>2026-04-04T06:33:29.572Z</time></trkpt><trkpt lat="43.640995" lon="13.3083733"><ele>74.0</ele><time>2026-04-04T06:33:30.572Z</time></trkpt><trkpt lat="43.64086" lon="13.30835"><ele>76.5</ele><time>2026-04-04T06:33:31.572Z</time></trkpt><trkpt lat="43.6407417" lon="13.3083233"><ele>79.0</ele><time>2026-04-04T06:33:32.574Z</time></trkpt><trkpt lat="43.6406433" lon="13.30828"><ele>79.0</ele><time>2026-04-04T06:33:33.575Z</time></trkpt><trkpt lat="43.6405583" lon="13.3082117"><ele>79.0</ele><time>2026-04-04T06:33:34.569Z</time></trkpt><trkpt lat="43.6404917" lon="13.3081233"><ele>79.0</ele><time>2026-04-04T06:33:35.595Z</time></trkpt><trkpt lat="43.6404433" lon="13.3079967"><ele>79.0</ele><time>2026-04-04T06:33:36.577Z</time></trkpt><trkpt lat="43.64041" lon="13.3078467"><ele>79.0</ele><time>2026-04-04T06:33:37.573Z</time></trkpt><trkpt lat="43.640385" lon="13.3076983"><ele>79.16666666666666</ele><time>2026-04-04T06:33:38.574Z</time></trkpt><trkpt lat="43.6403533" lon="13.307565"><ele>79.33333333333333</ele><time>2026-04-04T06:33:39.572Z</time></trkpt><trkpt lat="43.64032" lon="13.307455"><ele>79.5</ele><time>2026-04-04T06:33:40.57Z</time></trkpt><trkpt lat="43.640245" lon="13.30736"><ele>79.66666666666667</ele><time>2026-04-04T06:33:42.572Z</time></trkpt><trkpt lat="43.6401817" lon="13.3073183"><ele>79.83333333333334</ele><time>2026-04-04T06:33:45.57Z</time></trkpt><trkpt lat="43.6401133" lon="13.307275"><ele>80.0</ele><time>2026-04-04T06:33:52.568Z</time></trkpt><trkpt lat="43.6399933" lon="13.3072"><ele>82.5</ele><time>2026-04-04T06:33:54.56Z</time></trkpt><trkpt lat="43.639885" lon="13.3071583"><ele>85.0</ele><time>2026-04-04T06:33:55.571Z</time></trkpt><trkpt lat="43.6397617" lon="13.307105"><ele>87.5</ele><time>2026-04-04T06:33:56.571Z</time></trkpt><trkpt lat="43.63963" lon="13.307055"><ele>90.0</ele><time>2026-04-04T06:33:57.576Z</time></trkpt><trkpt lat="43.6394983" lon="13.3069967"><ele>87.0</ele><time>2026-04-04T06:33:58.572Z</time></trkpt><trkpt lat="43.6393333" lon="13.3069567"><ele>84.0</ele><time>2026-04-04T06:33:59.575Z</time></trkpt><trkpt lat="43.639185" lon="13.3069083"><ele>81.0</ele><time>2026-04-04T06:34:00.57Z</time></trkpt><trkpt lat="43.6390467" lon="13.3068633"><ele>81.0</ele><time>2026-04-04T06:34:01.572Z</time></trkpt><trkpt lat="43.6389217" lon="13.3068183"><ele>81.0</ele><time>2026-04-04T06:34:02.57Z</time></trkpt><trkpt lat="43.6388083" lon="13.3067733"><ele>81.0</ele><time>2026-04-04T06:34:03.57Z</time></trkpt><trkpt lat="43.63869" lon="13.30673"><ele>81.0</ele><time>2026-04-04T06:34:04.573Z</time></trkpt><trkpt lat="43.6385833" lon="13.306685"><ele>79.33333333333333</ele><time>2026-04-04T06:34:05.59Z</time></trkpt><trkpt lat="43.6384817" lon="13.3066517"><ele>77.66666666666667</ele><time>2026-04-04T06:34:06.572Z</time></trkpt><trkpt lat="43.6383967" lon="13.3066233"><ele>76.0</ele><time>2026-04-04T06:34:07.571Z</time></trkpt><trkpt lat="43.6383267" lon="13.3065917"><ele>74.33333333333334</ele><time>2026-04-04T06:34:08.57Z</time></trkpt><trkpt lat="43.6382633" lon="13.3065683"><ele>72.66666666666667</ele><time>2026-04-04T06:34:09.573Z</time></trkpt><trkpt lat="43.6381667" lon="13.306505"><ele>71.0</ele><time>2026-04-04T06:34:11.592Z</time></trkpt><trkpt lat="43.6380833" lon="13.30647"><ele>71.0</ele><time>2026-04-04T06:34:13.572Z</time></trkpt><trkpt lat="43.6380183" lon="13.3064683"><ele>71.0</ele><time>2026-04-04T06:34:16.573Z</time></trkpt><trkpt lat="43.637925" lon="13.3064033"><ele>71.0</ele><time>2026-04-04T06:34:56.571Z</time></trkpt><trkpt lat="43.63784" lon="13.3063517"><ele>71.0</ele><time>2026-04-04T06:34:57.574Z</time></trkpt><trkpt lat="43.6377217" lon="13.3063067"><ele>71.0</ele><time>2026-04-04T06:34:58.569Z</time></trkpt><trkpt lat="43.6375567" lon="13.3062317"><ele>68.33333333333334</ele><time>2026-04-04T06:34:59.57Z</time></trkpt><trkpt lat="43.6374233" lon="13.30617"><ele>65.66666666666667</ele><time>2026-04-04T06:35:00.576Z</time></trkpt><trkpt lat="43.637275" lon="13.306105"><ele>63.0</ele><time>2026-04-04T06:35:01.577Z</time></trkpt><trkpt lat="43.6371167" lon="13.306035"><ele>60.0</ele><time>2026-04-04T06:35:02.572Z</time></trkpt><trkpt lat="43.6369433" lon="13.3059617"><ele>57.0</ele><time>2026-04-04T06:35:03.569Z</time></trkpt><trkpt lat="43.6367717" lon="13.305885"><ele>54.0</ele><time>2026-04-04T06:35:04.573Z</time></trkpt><trkpt lat="43.636595" lon="13.3058117"><ele>54.0</ele><time>2026-04-04T06:35:05.587Z</time></trkpt><trkpt lat="43.63642" lon="13.3057433"><ele>54.0</ele><time>2026-04-04T06:35:06.571Z</time></trkpt><trkpt lat="43.63624" lon="13.3056783"><ele>54.0</ele><time>2026-04-04T06:35:07.569Z</time></trkpt><trkpt lat="43.63606" lon="13.3056117"><ele>52.33333333333333</ele><time>2026-04-04T06:35:08.572Z</time></trkpt><trkpt lat="43.6358783" lon="13.3055483"><ele>50.666666666666664</ele><time>2026-04-04T06:35:09.572Z</time></trkpt><trkpt lat="43.6356983" lon="13.30548"><ele>49.0</ele><time>2026-04-04T06:35:10.573Z</time></trkpt><trkpt lat="43.6355217" lon="13.3054083"><ele>49.0</ele><time>2026-04-04T06:35:11.589Z</time></trkpt><trkpt lat="43.6353467" lon="13.3053383"><ele>49.0</ele><time>2026-04-04T06:35:12.573Z</time></trkpt><trkpt lat="43.63517" lon="13.3052683"><ele>49.0</ele><time>2026-04-04T06:35:13.574Z</time></trkpt><trkpt lat="43.6349883" lon="13.305195"><ele>49.33333333333333</ele><time>2026-04-04T06:35:14.568Z</time></trkpt><trkpt lat="43.634815" lon="13.3051183"><ele>49.66666666666667</ele><time>2026-04-04T06:35:15.562Z</time></trkpt><trkpt lat="43.634645" lon="13.3050467"><ele>50.0</ele><time>2026-04-04T06:35:16.571Z</time></trkpt><trkpt lat="43.6344733" lon="13.304975"><ele>53.333333333333336</ele><time>2026-04-04T06:35:17.589Z</time></trkpt><trkpt lat="43.6343017" lon="13.3049017"><ele>56.66666666666667</ele><time>2026-04-04T06:35:18.573Z</time></trkpt><trkpt lat="43.6341367" lon="13.3048267"><ele>60.0</ele><time>2026-04-04T06:35:19.569Z</time></trkpt><trkpt lat="43.6339683" lon="13.3047533"><ele>60.66666666666667</ele><time>2026-04-04T06:35:20.575Z</time></trkpt><trkpt lat="43.6338033" lon="13.30468"><ele>61.333333333333336</ele><time>2026-04-04T06:35:21.577Z</time></trkpt><trkpt lat="43.63364" lon="13.304605"><ele>62.0</ele><time>2026-04-04T06:35:22.578Z</time></trkpt><trkpt lat="43.63347" lon="13.3045283"><ele>62.0</ele><time>2026-04-04T06:35:23.562Z</time></trkpt><trkpt lat="43.6333" lon="13.3044483"><ele>62.0</ele><time>2026-04-04T06:35:24.57Z</time></trkpt><trkpt lat="43.6331267" lon="13.304375"><ele>62.0</ele><time>2026-04-04T06:35:25.574Z</time></trkpt><trkpt lat="43.632955" lon="13.3042983"><ele>60.333333333333336</ele><time>2026-04-04T06:35:26.573Z</time></trkpt><trkpt lat="43.632775" lon="13.3042217"><ele>58.66666666666667</ele><time>2026-04-04T06:35:27.575Z</time></trkpt><trkpt lat="43.6325983" lon="13.30414"><ele>57.0</ele><time>2026-04-04T06:35:28.57Z</time></trkpt><trkpt lat="43.6324167" lon="13.3040583"><ele>57.0</ele><time>2026-04-04T06:35:29.573Z</time></trkpt><trkpt lat="43.6322367" lon="13.303985"><ele>57.0</ele><time>2026-04-04T06:35:30.575Z</time></trkpt><trkpt lat="43.6320567" lon="13.3039117"><ele>57.0</ele><time>2026-04-04T06:35:31.57Z</time></trkpt><trkpt lat="43.63188" lon="13.3038383"><ele>55.66666666666667</ele><time>2026-04-04T06:35:32.575Z</time></trkpt><trkpt lat="43.6316983" lon="13.3037617"><ele>54.333333333333336</ele><time>2026-04-04T06:35:33.572Z</time></trkpt><trkpt lat="43.6315217" lon="13.3036867"><ele>53.0</ele><time>2026-04-04T06:35:34.577Z</time></trkpt><trkpt lat="43.6313433" lon="13.3036083"><ele>53.0</ele><time>2026-04-04T06:35:35.588Z</time></trkpt><trkpt lat="43.6311667" lon="13.3035333"><ele>53.0</ele><time>2026-04-04T06:35:36.566Z</time></trkpt><trkpt lat="43.6309917" lon="13.3034567"><ele>53.0</ele><time>2026-04-04T06:35:37.57Z</time></trkpt><trkpt lat="43.63082" lon="13.3033833"><ele>52.333333333333336</ele><time>2026-04-04T06:35:38.575Z</time></trkpt><trkpt lat="43.6306533" lon="13.3033083"><ele>51.66666666666667</ele><time>2026-04-04T06:35:39.574Z</time></trkpt><trkpt lat="43.630485" lon="13.3032383"><ele>51.0</ele><time>2026-04-04T06:35:40.572Z</time></trkpt><trkpt lat="43.6303133" lon="13.3031667"><ele>49.333333333333336</ele><time>2026-04-04T06:35:41.589Z</time></trkpt><trkpt lat="43.6301433" lon="13.3030933"><ele>47.66666666666667</ele><time>2026-04-04T06:35:42.58Z</time></trkpt><trkpt lat="43.6299717" lon="13.30302"><ele>46.0</ele><time>2026-04-04T06:35:43.572Z</time></trkpt><trkpt lat="43.6298017" lon="13.3029483"><ele>44.333333333333336</ele><time>2026-04-04T06:35:44.57Z</time></trkpt><trkpt lat="43.629635" lon="13.30287"><ele>42.666666666666664</ele><time>2026-04-04T06:35:45.569Z</time></trkpt><trkpt lat="43.6294717" lon="13.3027833"><ele>41.0</ele><time>2026-04-04T06:35:46.568Z</time></trkpt><trkpt lat="43.6293283" lon="13.3026533"><ele>40.0</ele><time>2026-04-04T06:35:47.582Z</time></trkpt><trkpt lat="43.629205" lon="13.30248"><ele>39.0</ele><time>2026-04-04T06:35:48.572Z</time></trkpt><trkpt lat="43.6290917" lon="13.3022867"><ele>38.0</ele><time>2026-04-04T06:35:49.569Z</time></trkpt><trkpt lat="43.6289783" lon="13.3020967"><ele>37.666666666666664</ele><time>2026-04-04T06:35:50.571Z</time></trkpt><trkpt lat="43.6288617" lon="13.301915"><ele>37.333333333333336</ele><time>2026-04-04T06:35:51.569Z</time></trkpt><trkpt lat="43.6287267" lon="13.3017583"><ele>37.0</ele><time>2026-04-04T06:35:52.572Z</time></trkpt><trkpt lat="43.6285867" lon="13.3016317"><ele>36.66666666666667</ele><time>2026-04-04T06:35:53.571Z</time></trkpt><trkpt lat="43.6284317" lon="13.301545"><ele>36.333333333333336</ele><time>2026-04-04T06:35:54.578Z</time></trkpt><trkpt lat="43.62827" lon="13.3014933"><ele>36.0</ele><time>2026-04-04T06:35:55.577Z</time></trkpt><trkpt lat="43.6280817" lon="13.3015217"><ele>36.0</ele><time>2026-04-04T06:35:56.572Z</time></trkpt><trkpt lat="43.6278933" lon="13.3015617"><ele>36.0</ele><time>2026-04-04T06:35:57.574Z</time></trkpt><trkpt lat="43.6277017" lon="13.3016"><ele>36.0</ele><time>2026-04-04T06:35:58.572Z</time></trkpt><trkpt lat="43.6275083" lon="13.3016367"><ele>36.333333333333336</ele><time>2026-04-04T06:35:59.574Z</time></trkpt><trkpt lat="43.6273217" lon="13.3016683"><ele>36.66666666666667</ele><time>2026-04-04T06:36:00.57Z</time></trkpt><trkpt lat="43.62714" lon="13.3017"><ele>37.0</ele><time>2026-04-04T06:36:01.569Z</time></trkpt><trkpt lat="43.6269633" lon="13.3017367"><ele>38.66666666666667</ele><time>2026-04-04T06:36:02.579Z</time></trkpt><trkpt lat="43.6267883" lon="13.3017683"><ele>40.333333333333336</ele><time>2026-04-04T06:36:03.57Z</time></trkpt><trkpt lat="43.62661" lon="13.3017967"><ele>42.0</ele><time>2026-04-04T06:36:04.57Z</time></trkpt><trkpt lat="43.6264367" lon="13.3018267"><ele>42.0</ele><time>2026-04-04T06:36:05.588Z</time></trkpt><trkpt lat="43.62627" lon="13.3018517"><ele>42.0</ele><time>2026-04-04T06:36:06.572Z</time></trkpt><trkpt lat="43.6261067" lon="13.30186"><ele>42.0</ele><time>2026-04-04T06:36:07.571Z</time></trkpt><trkpt lat="43.6259483" lon="13.3018467"><ele>43.0</ele><time>2026-04-04T06:36:08.571Z</time></trkpt><trkpt lat="43.6257783" lon="13.3018117"><ele>44.0</ele><time>2026-04-04T06:36:09.573Z</time></trkpt><trkpt lat="43.62562" lon="13.30175"><ele>45.0</ele><time>2026-04-04T06:36:10.567Z</time></trkpt><trkpt lat="43.625475" lon="13.3016567"><ele>45.0</ele><time>2026-04-04T06:36:11.588Z</time></trkpt><trkpt lat="43.6253267" lon="13.3015483"><ele>45.0</ele><time>2026-04-04T06:36:12.566Z</time></trkpt><trkpt lat="43.6251917" lon="13.301415"><ele>45.0</ele><time>2026-04-04T06:36:13.57Z</time></trkpt><trkpt lat="43.6250417" lon="13.3012867"><ele>45.0</ele><time>2026-04-04T06:36:14.568Z</time></trkpt><trkpt lat="43.6248967" lon="13.3011417"><ele>45.0</ele><time>2026-04-04T06:36:15.571Z</time></trkpt><trkpt lat="43.6247567" lon="13.3009883"><ele>45.0</ele><time>2026-04-04T06:36:16.562Z</time></trkpt><trkpt lat="43.6246017" lon="13.3008317"><ele>44.333333333333336</ele><time>2026-04-04T06:36:17.586Z</time></trkpt><trkpt lat="43.6244583" lon="13.30066"><ele>43.66666666666667</ele><time>2026-04-04T06:36:18.572Z</time></trkpt><trkpt lat="43.624315" lon="13.300505"><ele>43.0</ele><time>2026-04-04T06:36:19.572Z</time></trkpt><trkpt lat="43.6241667" lon="13.30036"><ele>43.0</ele><time>2026-04-04T06:36:20.575Z</time></trkpt><trkpt lat="43.6240133" lon="13.3002317"><ele>43.0</ele><time>2026-04-04T06:36:21.57Z</time></trkpt><trkpt lat="43.6238567" lon="13.3001017"><ele>43.0</ele><time>2026-04-04T06:36:22.569Z</time></trkpt><trkpt lat="43.6237017" lon="13.2999783"><ele>43.0</ele><time>2026-04-04T06:36:23.574Z</time></trkpt><trkpt lat="43.6235467" lon="13.29986"><ele>43.0</ele><time>2026-04-04T06:36:24.573Z</time></trkpt><trkpt lat="43.62339" lon="13.2997433"><ele>43.0</ele><time>2026-04-04T06:36:25.571Z</time></trkpt><trkpt lat="43.6232283" lon="13.2996383"><ele>43.0</ele><time>2026-04-04T06:36:26.57Z</time></trkpt><trkpt lat="43.6230683" lon="13.2995383"><ele>43.0</ele><time>2026-04-04T06:36:27.563Z</time></trkpt><trkpt lat="43.62291" lon="13.29944"><ele>43.0</ele><time>2026-04-04T06:36:28.568Z</time></trkpt><trkpt lat="43.62275" lon="13.2993367"><ele>43.0</ele><time>2026-04-04T06:36:29.566Z</time></trkpt><trkpt lat="43.6225983" lon="13.2992133"><ele>43.0</ele><time>2026-04-04T06:36:30.589Z</time></trkpt><trkpt lat="43.6224583" lon="13.2990667"><ele>43.0</ele><time>2026-04-04T06:36:31.571Z</time></trkpt><trkpt lat="43.6223133" lon="13.29893"><ele>43.0</ele><time>2026-04-04T06:36:32.565Z</time></trkpt><trkpt lat="43.6221683" lon="13.2987917"><ele>43.0</ele><time>2026-04-04T06:36:33.579Z</time></trkpt><trkpt lat="43.6220233" lon="13.2986433"><ele>43.0</ele><time>2026-04-04T06:36:34.571Z</time></trkpt><trkpt lat="43.62187" lon="13.2985033"><ele>43.0</ele><time>2026-04-04T06:36:35.591Z</time></trkpt><trkpt lat="43.6217183" lon="13.29836"><ele>43.0</ele><time>2026-04-04T06:36:36.574Z</time></trkpt><trkpt lat="43.6215633" lon="13.2982167"><ele>43.0</ele><time>2026-04-04T06:36:37.571Z</time></trkpt><trkpt lat="43.6214067" lon="13.2980717"><ele>43.0</ele><time>2026-04-04T06:36:38.565Z</time></trkpt><trkpt lat="43.6212433" lon="13.2979333"><ele>43.0</ele><time>2026-04-04T06:36:39.578Z</time></trkpt><trkpt lat="43.6210867" lon="13.297795"><ele>43.0</ele><time>2026-04-04T06:36:40.571Z</time></trkpt><trkpt lat="43.6209367" lon="13.297655"><ele>43.0</ele><time>2026-04-04T06:36:41.59Z</time></trkpt><trkpt lat="43.6207883" lon="13.297515"><ele>43.0</ele><time>2026-04-04T06:36:42.579Z</time></trkpt><trkpt lat="43.6206383" lon="13.2973733"><ele>43.0</ele><time>2026-04-04T06:36:43.572Z</time></trkpt><trkpt lat="43.6204883" lon="13.297235"><ele>42.66666666666667</ele><time>2026-04-04T06:36:44.569Z</time></trkpt><trkpt lat="43.6203383" lon="13.2970967"><ele>42.333333333333336</ele><time>2026-04-04T06:36:45.57Z</time></trkpt><trkpt lat="43.62019" lon="13.29696"><ele>42.0</ele><time>2026-04-04T06:36:46.573Z</time></trkpt><trkpt lat="43.6200383" lon="13.29683"><ele>42.0</ele><time>2026-04-04T06:36:47.588Z</time></trkpt><trkpt lat="43.6198783" lon="13.296715"><ele>42.0</ele><time>2026-04-04T06:36:48.575Z</time></trkpt><trkpt lat="43.6197117" lon="13.2966167"><ele>42.0</ele><time>2026-04-04T06:36:49.57Z</time></trkpt><trkpt lat="43.619535" lon="13.296535"><ele>41.666666666666664</ele><time>2026-04-04T06:36:50.563Z</time></trkpt><trkpt lat="43.619355" lon="13.29646"><ele>41.33333333333333</ele><time>2026-04-04T06:36:51.57Z</time></trkpt><trkpt lat="43.6191767" lon="13.2963883"><ele>41.0</ele><time>2026-04-04T06:36:52.571Z</time></trkpt><trkpt lat="43.6189967" lon="13.29632"><ele>41.666666666666664</ele><time>2026-04-04T06:36:53.572Z</time></trkpt><trkpt lat="43.61882" lon="13.2962533"><ele>42.333333333333336</ele><time>2026-04-04T06:36:54.571Z</time></trkpt><trkpt lat="43.61864" lon="13.29619"><ele>43.0</ele><time>2026-04-04T06:36:55.572Z</time></trkpt><trkpt lat="43.6184617" lon="13.2961267"><ele>43.0</ele><time>2026-04-04T06:36:56.57Z</time></trkpt><trkpt lat="43.6182833" lon="13.2960617"><ele>43.0</ele><time>2026-04-04T06:36:57.569Z</time></trkpt><trkpt lat="43.6181067" lon="13.2959917"><ele>43.0</ele><time>2026-04-04T06:36:58.559Z</time></trkpt><trkpt lat="43.6179283" lon="13.2959217"><ele>42.333333333333336</ele><time>2026-04-04T06:36:59.567Z</time></trkpt><trkpt lat="43.6177467" lon="13.2958467"><ele>41.666666666666664</ele><time>2026-04-04T06:37:00.567Z</time></trkpt><trkpt lat="43.6175683" lon="13.29577"><ele>41.0</ele><time>2026-04-04T06:37:01.574Z</time></trkpt><trkpt lat="43.6173867" lon="13.295695"><ele>41.0</ele><time>2026-04-04T06:37:02.577Z</time></trkpt><trkpt lat="43.6172" lon="13.29562"><ele>41.0</ele><time>2026-04-04T06:37:03.572Z</time></trkpt><trkpt lat="43.61701" lon="13.2955467"><ele>41.0</ele><time>2026-04-04T06:37:04.574Z</time></trkpt><trkpt lat="43.6168233" lon="13.29547"><ele>41.666666666666664</ele><time>2026-04-04T06:37:05.586Z</time></trkpt><trkpt lat="43.6166417" lon="13.2953967"><ele>42.333333333333336</ele><time>2026-04-04T06:37:06.577Z</time></trkpt><trkpt lat="43.616455" lon="13.2953233"><ele>43.0</ele><time>2026-04-04T06:37:07.576Z</time></trkpt><trkpt lat="43.6162717" lon="13.2952483"><ele>41.66666666666667</ele><time>2026-04-04T06:37:08.571Z</time></trkpt><trkpt lat="43.6160867" lon="13.2951767"><ele>40.333333333333336</ele><time>2026-04-04T06:37:09.578Z</time></trkpt><trkpt lat="43.6159017" lon="13.2951017"><ele>39.0</ele><time>2026-04-04T06:37:10.572Z</time></trkpt><trkpt lat="43.6157217" lon="13.2950267"><ele>39.0</ele><time>2026-04-04T06:37:11.587Z</time></trkpt><trkpt lat="43.6155417" lon="13.2949467"><ele>39.0</ele><time>2026-04-04T06:37:12.566Z</time></trkpt><trkpt lat="43.6153633" lon="13.294865"><ele>39.0</ele><time>2026-04-04T06:37:13.569Z</time></trkpt><trkpt lat="43.6151867" lon="13.2947883"><ele>38.333333333333336</ele><time>2026-04-04T06:37:14.575Z</time></trkpt><trkpt lat="43.6150167" lon="13.2947183"><ele>37.66666666666667</ele><time>2026-04-04T06:37:15.576Z</time></trkpt><trkpt lat="43.614855" lon="13.2946517"><ele>37.0</ele><time>2026-04-04T06:37:16.573Z</time></trkpt><trkpt lat="43.6146983" lon="13.2945883"><ele>37.0</ele><time>2026-04-04T06:37:17.581Z</time></trkpt><trkpt lat="43.6145467" lon="13.29453"><ele>37.0</ele><time>2026-04-04T06:37:18.567Z</time></trkpt><trkpt lat="43.614405" lon="13.2944717"><ele>37.0</ele><time>2026-04-04T06:37:19.573Z</time></trkpt><trkpt lat="43.61427" lon="13.2944183"><ele>37.0</ele><time>2026-04-04T06:37:20.574Z</time></trkpt><trkpt lat="43.6141417" lon="13.294365"><ele>36.75</ele><time>2026-04-04T06:37:21.574Z</time></trkpt><trkpt lat="43.61402" lon="13.2943167"><ele>36.5</ele><time>2026-04-04T06:37:22.576Z</time></trkpt><trkpt lat="43.613905" lon="13.2942683"><ele>36.25</ele><time>2026-04-04T06:37:23.62Z</time></trkpt><trkpt lat="43.6137967" lon="13.294225"><ele>36.0</ele><time>2026-04-04T06:37:24.569Z</time></trkpt><trkpt lat="43.6136933" lon="13.2941833"><ele>35.75</ele><time>2026-04-04T06:37:25.572Z</time></trkpt><trkpt lat="43.61359" lon="13.2941433"><ele>35.5</ele><time>2026-04-04T06:37:26.572Z</time></trkpt><trkpt lat="43.6134783" lon="13.2940933"><ele>35.25</ele><time>2026-04-04T06:37:27.575Z</time></trkpt><trkpt lat="43.61335" lon="13.2940417"><ele>35.0</ele><time>2026-04-04T06:37:28.567Z</time></trkpt><trkpt lat="43.6132083" lon="13.293985"><ele>35.0</ele><time>2026-04-04T06:37:29.573Z</time></trkpt><trkpt lat="43.61306" lon="13.2939267"><ele>35.0</ele><time>2026-04-04T06:37:30.569Z</time></trkpt><trkpt lat="43.6128983" lon="13.293865"><ele>35.0</ele><time>2026-04-04T06:37:31.575Z</time></trkpt><trkpt lat="43.6127333" lon="13.2938"><ele>35.0</ele><time>2026-04-04T06:37:32.569Z</time></trkpt><trkpt lat="43.6125617" lon="13.2937333"><ele>35.0</ele><time>2026-04-04T06:37:33.573Z</time></trkpt><trkpt lat="43.61239" lon="13.2936667"><ele>35.0</ele><time>2026-04-04T06:37:34.571Z</time></trkpt><trkpt lat="43.612215" lon="13.2935983"><ele>35.0</ele><time>2026-04-04T06:37:35.595Z</time></trkpt><trkpt lat="43.6120417" lon="13.2935283"><ele>35.0</ele><time>2026-04-04T06:37:36.574Z</time></trkpt><trkpt lat="43.6118667" lon="13.2934567"><ele>35.0</ele><time>2026-04-04T06:37:37.568Z</time></trkpt><trkpt lat="43.61169" lon="13.2933867"><ele>35.0</ele><time>2026-04-04T06:37:38.568Z</time></trkpt><trkpt lat="43.6115133" lon="13.29331"><ele>35.0</ele><time>2026-04-04T06:37:39.573Z</time></trkpt><trkpt lat="43.6113367" lon="13.2932317"><ele>35.0</ele><time>2026-04-04T06:37:40.573Z</time></trkpt><trkpt lat="43.6111533" lon="13.2931533"><ele>35.0</ele><time>2026-04-04T06:37:41.6Z</time></trkpt><trkpt lat="43.61097" lon="13.29308"><ele>35.0</ele><time>2026-04-04T06:37:42.569Z</time></trkpt><trkpt lat="43.61079" lon="13.2930083"><ele>35.0</ele><time>2026-04-04T06:37:43.571Z</time></trkpt><trkpt lat="43.61062" lon="13.2929433"><ele>35.0</ele><time>2026-04-04T06:37:44.572Z</time></trkpt><trkpt lat="43.6104567" lon="13.2928817"><ele>35.0</ele><time>2026-04-04T06:37:45.572Z</time></trkpt><trkpt lat="43.6103083" lon="13.2928217"><ele>35.0</ele><time>2026-04-04T06:37:46.569Z</time></trkpt><trkpt lat="43.6101683" lon="13.2927633"><ele>34.5</ele><time>2026-04-04T06:37:47.595Z</time></trkpt><trkpt lat="43.610035" lon="13.2927"><ele>34.0</ele><time>2026-04-04T06:37:48.563Z</time></trkpt><trkpt lat="43.6099133" lon="13.2926233"><ele>33.5</ele><time>2026-04-04T06:37:49.572Z</time></trkpt><trkpt lat="43.6098083" lon="13.2925267"><ele>33.0</ele><time>2026-04-04T06:37:50.575Z</time></trkpt><trkpt lat="43.6097167" lon="13.2923967"><ele>33.333333333333336</ele><time>2026-04-04T06:37:51.572Z</time></trkpt><trkpt lat="43.6096533" lon="13.29223"><ele>33.66666666666667</ele><time>2026-04-04T06:37:52.573Z</time></trkpt><trkpt lat="43.6095967" lon="13.292035"><ele>34.0</ele><time>2026-04-04T06:37:53.572Z</time></trkpt><trkpt lat="43.6095417" lon="13.291815"><ele>34.333333333333336</ele><time>2026-04-04T06:37:54.574Z</time></trkpt><trkpt lat="43.6094767" lon="13.2915883"><ele>34.666666666666664</ele><time>2026-04-04T06:37:55.573Z</time></trkpt><trkpt lat="43.6094067" lon="13.2913533"><ele>35.0</ele><time>2026-04-04T06:37:56.572Z</time></trkpt><trkpt lat="43.6093317" lon="13.291115"><ele>34.0</ele><time>2026-04-04T06:37:57.571Z</time></trkpt><trkpt lat="43.60926" lon="13.2908767"><ele>33.0</ele><time>2026-04-04T06:37:58.568Z</time></trkpt><trkpt lat="43.6091867" lon="13.290645"><ele>32.0</ele><time>2026-04-04T06:37:59.579Z</time></trkpt><trkpt lat="43.6091167" lon="13.290415"><ele>32.0</ele><time>2026-04-04T06:38:00.568Z</time></trkpt><trkpt lat="43.609045" lon="13.2901983"><ele>32.0</ele><time>2026-04-04T06:38:01.57Z</time></trkpt><trkpt lat="43.6089717" lon="13.2899883"><ele>32.0</ele><time>2026-04-04T06:38:02.571Z</time></trkpt><trkpt lat="43.608875" lon="13.28981"><ele>32.0</ele><time>2026-04-04T06:38:03.573Z</time></trkpt><trkpt lat="43.6087483" lon="13.2896567"><ele>32.0</ele><time>2026-04-04T06:38:04.572Z</time></trkpt><trkpt lat="43.608605" lon="13.2895133"><ele>32.0</ele><time>2026-04-04T06:38:05.601Z</time></trkpt><trkpt lat="43.6084467" lon="13.2893733"><ele>32.0</ele><time>2026-04-04T06:38:06.571Z</time></trkpt><trkpt lat="43.608285" lon="13.2892333"><ele>32.0</ele><time>2026-04-04T06:38:07.573Z</time></trkpt><trkpt lat="43.6081183" lon="13.2890967"><ele>32.0</ele><time>2026-04-04T06:38:08.564Z</time></trkpt><trkpt lat="43.60795" lon="13.2889567"><ele>32.666666666666664</ele><time>2026-04-04T06:38:09.56Z</time></trkpt><trkpt lat="43.607785" lon="13.2888133"><ele>33.333333333333336</ele><time>2026-04-04T06:38:10.571Z</time></trkpt><trkpt lat="43.6076183" lon="13.2886717"><ele>34.0</ele><time>2026-04-04T06:38:11.595Z</time></trkpt><trkpt lat="43.6074533" lon="13.2885283"><ele>34.0</ele><time>2026-04-04T06:38:12.568Z</time></trkpt><trkpt lat="43.6072883" lon="13.2883867"><ele>34.0</ele><time>2026-04-04T06:38:13.573Z</time></trkpt><trkpt lat="43.60713" lon="13.288245"><ele>34.0</ele><time>2026-04-04T06:38:14.575Z</time></trkpt><trkpt lat="43.60697" lon="13.2881067"><ele>35.333333333333336</ele><time>2026-04-04T06:38:15.572Z</time></trkpt><trkpt lat="43.606815" lon="13.28797"><ele>36.666666666666664</ele><time>2026-04-04T06:38:16.568Z</time></trkpt><trkpt lat="43.60666" lon="13.2878367"><ele>38.0</ele><time>2026-04-04T06:38:17.602Z</time></trkpt><trkpt lat="43.6065167" lon="13.2877033"><ele>38.0</ele><time>2026-04-04T06:38:18.566Z</time></trkpt><trkpt lat="43.6063767" lon="13.2875733"><ele>38.0</ele><time>2026-04-04T06:38:19.573Z</time></trkpt><trkpt lat="43.6062433" lon="13.2874567"><ele>38.0</ele><time>2026-04-04T06:38:20.576Z</time></trkpt><trkpt lat="43.6061017" lon="13.2873333"><ele>40.0</ele><time>2026-04-04T06:38:21.574Z</time></trkpt><trkpt lat="43.6059567" lon="13.2872"><ele>42.0</ele><time>2026-04-04T06:38:22.571Z</time></trkpt><trkpt lat="43.60581" lon="13.28707"><ele>44.0</ele><time>2026-04-04T06:38:23.575Z</time></trkpt><trkpt lat="43.60567" lon="13.28693"><ele>44.0</ele><time>2026-04-04T06:38:24.574Z</time></trkpt><trkpt lat="43.605535" lon="13.2867733"><ele>44.0</ele><time>2026-04-04T06:38:25.572Z</time></trkpt><trkpt lat="43.6054117" lon="13.2866"><ele>44.0</ele><time>2026-04-04T06:38:26.572Z</time></trkpt><trkpt lat="43.6052967" lon="13.2864183"><ele>45.666666666666664</ele><time>2026-04-04T06:38:27.57Z</time></trkpt><trkpt lat="43.605185" lon="13.2862333"><ele>47.33333333333333</ele><time>2026-04-04T06:38:28.571Z</time></trkpt><trkpt lat="43.6050783" lon="13.2860383"><ele>49.0</ele><time>2026-04-04T06:38:29.572Z</time></trkpt><trkpt lat="43.604975" lon="13.285845"><ele>49.0</ele><time>2026-04-04T06:38:30.572Z</time></trkpt><trkpt lat="43.6048767" lon="13.28565"><ele>49.0</ele><time>2026-04-04T06:38:31.573Z</time></trkpt><trkpt lat="43.6047667" lon="13.2854567"><ele>49.0</ele><time>2026-04-04T06:38:32.573Z</time></trkpt><trkpt lat="43.604655" lon="13.2852617"><ele>49.666666666666664</ele><time>2026-04-04T06:38:33.575Z</time></trkpt><trkpt lat="43.6045433" lon="13.28507"><ele>50.33333333333333</ele><time>2026-04-04T06:38:34.571Z</time></trkpt><trkpt lat="43.60443" lon="13.284885"><ele>51.0</ele><time>2026-04-04T06:38:35.604Z</time></trkpt><trkpt lat="43.60431" lon="13.2847017"><ele>51.0</ele><time>2026-04-04T06:38:36.574Z</time></trkpt><trkpt lat="43.60419" lon="13.28452"><ele>51.0</ele><time>2026-04-04T06:38:37.571Z</time></trkpt><trkpt lat="43.6040617" lon="13.284345"><ele>51.0</ele><time>2026-04-04T06:38:38.564Z</time></trkpt><trkpt lat="43.6039417" lon="13.2841733"><ele>51.0</ele><time>2026-04-04T06:38:39.572Z</time></trkpt><trkpt lat="43.603815" lon="13.2840133"><ele>51.0</ele><time>2026-04-04T06:38:40.565Z</time></trkpt><trkpt lat="43.60368" lon="13.2838633"><ele>51.0</ele><time>2026-04-04T06:38:41.604Z</time></trkpt><trkpt lat="43.60354" lon="13.2837183"><ele>53.0</ele><time>2026-04-04T06:38:42.57Z</time></trkpt><trkpt lat="43.6033917" lon="13.28358"><ele>55.0</ele><time>2026-04-04T06:38:43.574Z</time></trkpt><trkpt lat="43.6032467" lon="13.283445"><ele>57.0</ele><time>2026-04-04T06:38:44.568Z</time></trkpt><trkpt lat="43.6031133" lon="13.2833083"><ele>57.0</ele><time>2026-04-04T06:38:45.57Z</time></trkpt><trkpt lat="43.6029767" lon="13.2831883"><ele>57.0</ele><time>2026-04-04T06:38:46.579Z</time></trkpt><trkpt lat="43.60285" lon="13.2830817"><ele>57.0</ele><time>2026-04-04T06:38:47.604Z</time></trkpt><trkpt lat="43.602725" lon="13.2830067"><ele>57.0</ele><time>2026-04-04T06:38:48.565Z</time></trkpt><trkpt lat="43.6025817" lon="13.282985"><ele>58.66666666666667</ele><time>2026-04-04T06:38:49.564Z</time></trkpt><trkpt lat="43.602435" lon="13.28298"><ele>60.333333333333336</ele><time>2026-04-04T06:38:50.569Z</time></trkpt><trkpt lat="43.602285" lon="13.28297"><ele>62.0</ele><time>2026-04-04T06:38:51.562Z</time></trkpt><trkpt lat="43.60212" lon="13.2829533"><ele>63.333333333333336</ele><time>2026-04-04T06:38:52.572Z</time></trkpt><trkpt lat="43.60194" lon="13.2829567"><ele>64.66666666666667</ele><time>2026-04-04T06:38:53.57Z</time></trkpt><trkpt lat="43.601755" lon="13.28298"><ele>66.0</ele><time>2026-04-04T06:38:54.572Z</time></trkpt><trkpt lat="43.6015617" lon="13.283015"><ele>66.0</ele><time>2026-04-04T06:38:55.572Z</time></trkpt><trkpt lat="43.6013667" lon="13.2830317"><ele>66.0</ele><time>2026-04-04T06:38:56.573Z</time></trkpt><trkpt lat="43.6011717" lon="13.28305"><ele>66.0</ele><time>2026-04-04T06:38:57.574Z</time></trkpt><trkpt lat="43.6009833" lon="13.2830583"><ele>66.0</ele><time>2026-04-04T06:38:58.572Z</time></trkpt><trkpt lat="43.600805" lon="13.2830683"><ele>66.0</ele><time>2026-04-04T06:38:59.573Z</time></trkpt><trkpt lat="43.60063" lon="13.28307"><ele>66.0</ele><time>2026-04-04T06:39:00.57Z</time></trkpt><trkpt lat="43.6004617" lon="13.283065"><ele>65.33333333333333</ele><time>2026-04-04T06:39:01.564Z</time></trkpt><trkpt lat="43.6003017" lon="13.2830633"><ele>64.66666666666666</ele><time>2026-04-04T06:39:02.57Z</time></trkpt><trkpt lat="43.6001467" lon="13.2830567"><ele>64.0</ele><time>2026-04-04T06:39:03.563Z</time></trkpt><trkpt lat="43.6000033" lon="13.28305"><ele>64.0</ele><time>2026-04-04T06:39:04.572Z</time></trkpt><trkpt lat="43.5998617" lon="13.28304"><ele>64.0</ele><time>2026-04-04T06:39:05.605Z</time></trkpt><trkpt lat="43.5997267" lon="13.28303"><ele>64.0</ele><time>2026-04-04T06:39:06.572Z</time></trkpt><trkpt lat="43.5995967" lon="13.2830267"><ele>64.0</ele><time>2026-04-04T06:39:07.573Z</time></trkpt><trkpt lat="43.5994717" lon="13.2830267"><ele>64.0</ele><time>2026-04-04T06:39:08.572Z</time></trkpt><trkpt lat="43.5993583" lon="13.283035"><ele>64.0</ele><time>2026-04-04T06:39:09.572Z</time></trkpt><trkpt lat="43.5992483" lon="13.2830567"><ele>64.0</ele><time>2026-04-04T06:39:10.571Z</time></trkpt><trkpt lat="43.599145" lon="13.2830833"><ele>64.0</ele><time>2026-04-04T06:39:11.603Z</time></trkpt><trkpt lat="43.5990517" lon="13.283115"><ele>64.0</ele><time>2026-04-04T06:39:12.568Z</time></trkpt><trkpt lat="43.5989667" lon="13.2831567"><ele>63.99999999999999</ele><time>2026-04-04T06:39:13.57Z</time></trkpt><trkpt lat="43.59889" lon="13.2832167"><ele>64.0</ele><time>2026-04-04T06:39:14.569Z</time></trkpt><trkpt lat="43.5988183" lon="13.2832783"><ele>64.0</ele><time>2026-04-04T06:39:15.569Z</time></trkpt><trkpt lat="43.5987533" lon="13.28334"><ele>64.0</ele><time>2026-04-04T06:39:16.572Z</time></trkpt><trkpt lat="43.5986817" lon="13.2833817"><ele>63.99999999999999</ele><time>2026-04-04T06:39:17.604Z</time></trkpt><trkpt lat="43.5986117" lon="13.283375"><ele>64.0</ele><time>2026-04-04T06:39:18.571Z</time></trkpt><trkpt lat="43.5985367" lon="13.2833317"><ele>64.25</ele><time>2026-04-04T06:39:19.572Z</time></trkpt><trkpt lat="43.598445" lon="13.2832867"><ele>64.5</ele><time>2026-04-04T06:39:20.569Z</time></trkpt><trkpt lat="43.5983417" lon="13.2832467"><ele>64.75</ele><time>2026-04-04T06:39:21.569Z</time></trkpt><trkpt lat="43.5982233" lon="13.283225"><ele>65.0</ele><time>2026-04-04T06:39:22.572Z</time></trkpt><trkpt lat="43.598095" lon="13.283215"><ele>65.0</ele><time>2026-04-04T06:39:23.569Z</time></trkpt><trkpt lat="43.5979633" lon="13.2832283"><ele>65.0</ele><time>2026-04-04T06:39:24.572Z</time></trkpt><trkpt lat="43.5978217" lon="13.2832417"><ele>65.0</ele><time>2026-04-04T06:39:25.56Z</time></trkpt><trkpt lat="43.5976733" lon="13.2832617"><ele>65.0</ele><time>2026-04-04T06:39:26.572Z</time></trkpt><trkpt lat="43.5975183" lon="13.2832767"><ele>65.33333333333334</ele><time>2026-04-04T06:39:27.567Z</time></trkpt><trkpt lat="43.59735" lon="13.2833067"><ele>65.66666666666667</ele><time>2026-04-04T06:39:28.576Z</time></trkpt><trkpt lat="43.5971883" lon="13.2833383"><ele>66.0</ele><time>2026-04-04T06:39:29.564Z</time></trkpt><trkpt lat="43.5970417" lon="13.2833733"><ele>64.66666666666667</ele><time>2026-04-04T06:39:30.564Z</time></trkpt><trkpt lat="43.5968783" lon="13.2834367"><ele>63.333333333333336</ele><time>2026-04-04T06:39:31.571Z</time></trkpt><trkpt lat="43.5967217" lon="13.2835117"><ele>62.0</ele><time>2026-04-04T06:39:32.572Z</time></trkpt><trkpt lat="43.5965667" lon="13.2836"><ele>62.0</ele><time>2026-04-04T06:39:33.574Z</time></trkpt><trkpt lat="43.5964117" lon="13.283675"><ele>62.0</ele><time>2026-04-04T06:39:34.567Z</time></trkpt><trkpt lat="43.5962583" lon="13.2837417"><ele>62.0</ele><time>2026-04-04T06:39:35.595Z</time></trkpt><trkpt lat="43.596105" lon="13.2838017"><ele>61.66666666666667</ele><time>2026-04-04T06:39:36.567Z</time></trkpt><trkpt lat="43.59596" lon="13.2838517"><ele>61.33333333333333</ele><time>2026-04-04T06:39:37.569Z</time></trkpt><trkpt lat="43.59581" lon="13.2838883"><ele>61.0</ele><time>2026-04-04T06:39:38.565Z</time></trkpt><trkpt lat="43.5956583" lon="13.2839133"><ele>61.0</ele><time>2026-04-04T06:39:39.565Z</time></trkpt><trkpt lat="43.5955033" lon="13.2839317"><ele>61.0</ele><time>2026-04-04T06:39:40.568Z</time></trkpt><trkpt lat="43.5953517" lon="13.283945"><ele>61.0</ele><time>2026-04-04T06:39:41.592Z</time></trkpt><trkpt lat="43.5951983" lon="13.28395"><ele>60.666666666666664</ele><time>2026-04-04T06:39:42.566Z</time></trkpt><trkpt lat="43.5950333" lon="13.2839433"><ele>60.33333333333333</ele><time>2026-04-04T06:39:43.574Z</time></trkpt><trkpt lat="43.5948783" lon="13.2839183"><ele>60.0</ele><time>2026-04-04T06:39:44.568Z</time></trkpt><trkpt lat="43.5947183" lon="13.2838667"><ele>60.66666666666667</ele><time>2026-04-04T06:39:45.571Z</time></trkpt><trkpt lat="43.5945617" lon="13.2837983"><ele>61.333333333333336</ele><time>2026-04-04T06:39:46.575Z</time></trkpt><trkpt lat="43.59441" lon="13.2837167"><ele>62.0</ele><time>2026-04-04T06:39:47.595Z</time></trkpt><trkpt lat="43.5942583" lon="13.2836183"><ele>62.0</ele><time>2026-04-04T06:39:48.561Z</time></trkpt><trkpt lat="43.5941083" lon="13.2835133"><ele>62.0</ele><time>2026-04-04T06:39:49.573Z</time></trkpt><trkpt lat="43.5939583" lon="13.283405"><ele>62.0</ele><time>2026-04-04T06:39:50.562Z</time></trkpt><trkpt lat="43.59381" lon="13.2832867"><ele>62.0</ele><time>2026-04-04T06:39:51.567Z</time></trkpt><trkpt lat="43.59366" lon="13.283175"><ele>62.0</ele><time>2026-04-04T06:39:52.573Z</time></trkpt><trkpt lat="43.5935083" lon="13.2830583"><ele>62.0</ele><time>2026-04-04T06:39:53.613Z</time></trkpt><trkpt lat="43.5933517" lon="13.2829383"><ele>62.0</ele><time>2026-04-04T06:39:54.562Z</time></trkpt><trkpt lat="43.5932" lon="13.28281"><ele>62.0</ele><time>2026-04-04T06:39:55.572Z</time></trkpt><trkpt lat="43.5930533" lon="13.2826633"><ele>62.0</ele><time>2026-04-04T06:39:56.571Z</time></trkpt><trkpt lat="43.5929117" lon="13.2825083"><ele>62.0</ele><time>2026-04-04T06:39:57.569Z</time></trkpt><trkpt lat="43.592775" lon="13.2823433"><ele>62.0</ele><time>2026-04-04T06:39:58.57Z</time></trkpt><trkpt lat="43.5926383" lon="13.2821733"><ele>62.0</ele><time>2026-04-04T06:39:59.571Z</time></trkpt><trkpt lat="43.592505" lon="13.2819983"><ele>62.0</ele><time>2026-04-04T06:40:00.568Z</time></trkpt><trkpt lat="43.592375" lon="13.2818233"><ele>62.0</ele><time>2026-04-04T06:40:01.568Z</time></trkpt><trkpt lat="43.5922433" lon="13.281655"><ele>62.0</ele><time>2026-04-04T06:40:02.567Z</time></trkpt><trkpt lat="43.5921083" lon="13.2814867"><ele>61.66666666666667</ele><time>2026-04-04T06:40:03.562Z</time></trkpt><trkpt lat="43.59197" lon="13.28132"><ele>61.33333333333333</ele><time>2026-04-04T06:40:04.564Z</time></trkpt><trkpt lat="43.591835" lon="13.2811483"><ele>61.0</ele><time>2026-04-04T06:40:05.596Z</time></trkpt><trkpt lat="43.591705" lon="13.2809783"><ele>61.0</ele><time>2026-04-04T06:40:06.563Z</time></trkpt><trkpt lat="43.5915783" lon="13.2808117"><ele>61.0</ele><time>2026-04-04T06:40:07.569Z</time></trkpt><trkpt lat="43.5914517" lon="13.280655"><ele>61.0</ele><time>2026-04-04T06:40:08.57Z</time></trkpt><trkpt lat="43.59132" lon="13.280515"><ele>61.666666666666664</ele><time>2026-04-04T06:40:09.572Z</time></trkpt><trkpt lat="43.5911767" lon="13.2804"><ele>62.33333333333333</ele><time>2026-04-04T06:40:10.566Z</time></trkpt><trkpt lat="43.5910233" lon="13.2803067"><ele>63.0</ele><time>2026-04-04T06:40:11.596Z</time></trkpt><trkpt lat="43.5908583" lon="13.2802383"><ele>63.0</ele><time>2026-04-04T06:40:12.556Z</time></trkpt><trkpt lat="43.59069" lon="13.2801783"><ele>63.0</ele><time>2026-04-04T06:40:13.566Z</time></trkpt><trkpt lat="43.5905267" lon="13.28012"><ele>63.0</ele><time>2026-04-04T06:40:14.556Z</time></trkpt><trkpt lat="43.5903633" lon="13.28006"><ele>62.33333333333333</ele><time>2026-04-04T06:40:15.569Z</time></trkpt><trkpt lat="43.5902033" lon="13.2799933"><ele>61.666666666666664</ele><time>2026-04-04T06:40:16.571Z</time></trkpt><trkpt lat="43.59004" lon="13.2799233"><ele>61.0</ele><time>2026-04-04T06:40:17.603Z</time></trkpt><trkpt lat="43.5898783" lon="13.2798433"><ele>60.33333333333333</ele><time>2026-04-04T06:40:18.576Z</time></trkpt><trkpt lat="43.5897167" lon="13.279765"><ele>59.66666666666667</ele><time>2026-04-04T06:40:19.577Z</time></trkpt><trkpt lat="43.5895533" lon="13.2796933"><ele>59.0</ele><time>2026-04-04T06:40:20.58Z</time></trkpt><trkpt lat="43.5893833" lon="13.279625"><ele>58.333333333333336</ele><time>2026-04-04T06:40:21.578Z</time></trkpt><trkpt lat="43.58921" lon="13.27956"><ele>57.66666666666667</ele><time>2026-04-04T06:40:22.571Z</time></trkpt><trkpt lat="43.5890367" lon="13.2794933"><ele>57.0</ele><time>2026-04-04T06:40:23.571Z</time></trkpt><trkpt lat="43.5888633" lon="13.27943"><ele>57.0</ele><time>2026-04-04T06:40:24.573Z</time></trkpt><trkpt lat="43.58869" lon="13.2793683"><ele>57.0</ele><time>2026-04-04T06:40:25.575Z</time></trkpt><trkpt lat="43.58852" lon="13.2793"><ele>57.0</ele><time>2026-04-04T06:40:26.572Z</time></trkpt><trkpt lat="43.5883533" lon="13.279225"><ele>56.33333333333333</ele><time>2026-04-04T06:40:27.573Z</time></trkpt><trkpt lat="43.5881883" lon="13.2791367"><ele>55.666666666666664</ele><time>2026-04-04T06:40:28.569Z</time></trkpt><trkpt lat="43.5880317" lon="13.27903"><ele>55.0</ele><time>2026-04-04T06:40:29.574Z</time></trkpt><trkpt lat="43.5878817" lon="13.2789117"><ele>54.0</ele><time>2026-04-04T06:40:30.57Z</time></trkpt><trkpt lat="43.5877367" lon="13.2787733"><ele>53.0</ele><time>2026-04-04T06:40:31.561Z</time></trkpt><trkpt lat="43.58759" lon="13.2786433"><ele>52.0</ele><time>2026-04-04T06:40:32.577Z</time></trkpt><trkpt lat="43.5874467" lon="13.2785133"><ele>52.0</ele><time>2026-04-04T06:40:33.574Z</time></trkpt><trkpt lat="43.5873017" lon="13.27838"><ele>52.0</ele><time>2026-04-04T06:40:34.572Z</time></trkpt><trkpt lat="43.5871583" lon="13.27825"><ele>52.0</ele><time>2026-04-04T06:40:35.603Z</time></trkpt><trkpt lat="43.5870167" lon="13.27812"><ele>52.33333333333333</ele><time>2026-04-04T06:40:36.568Z</time></trkpt><trkpt lat="43.5868767" lon="13.278"><ele>52.66666666666667</ele><time>2026-04-04T06:40:37.575Z</time></trkpt><trkpt lat="43.5867333" lon="13.2778967"><ele>53.0</ele><time>2026-04-04T06:40:38.572Z</time></trkpt><trkpt lat="43.5865883" lon="13.2778083"><ele>53.0</ele><time>2026-04-04T06:40:39.561Z</time></trkpt><trkpt lat="43.5864483" lon="13.27773"><ele>53.0</ele><time>2026-04-04T06:40:40.565Z</time></trkpt><trkpt lat="43.5863017" lon="13.2776683"><ele>53.0</ele><time>2026-04-04T06:40:41.595Z</time></trkpt><trkpt lat="43.58616" lon="13.27761"><ele>51.66666666666667</ele><time>2026-04-04T06:40:42.563Z</time></trkpt><trkpt lat="43.5860083" lon="13.2775583"><ele>50.33333333333333</ele><time>2026-04-04T06:40:43.575Z</time></trkpt><trkpt lat="43.5858517" lon="13.2775117"><ele>49.0</ele><time>2026-04-04T06:40:44.581Z</time></trkpt><trkpt lat="43.5856883" lon="13.277485"><ele>49.0</ele><time>2026-04-04T06:40:45.565Z</time></trkpt><trkpt lat="43.5855133" lon="13.2774767"><ele>49.0</ele><time>2026-04-04T06:40:46.561Z</time></trkpt><trkpt lat="43.585335" lon="13.2774717"><ele>49.0</ele><time>2026-04-04T06:40:47.599Z</time></trkpt><trkpt lat="43.5851583" lon="13.277475"><ele>48.0</ele><time>2026-04-04T06:40:48.57Z</time></trkpt><trkpt lat="43.5849833" lon="13.2774833"><ele>47.0</ele><time>2026-04-04T06:40:49.563Z</time></trkpt><trkpt lat="43.58481" lon="13.2774933"><ele>46.0</ele><time>2026-04-04T06:40:50.571Z</time></trkpt><trkpt lat="43.5846367" lon="13.2775183"><ele>46.0</ele><time>2026-04-04T06:40:51.568Z</time></trkpt><trkpt lat="43.5844617" lon="13.2775517"><ele>46.0</ele><time>2026-04-04T06:40:52.564Z</time></trkpt><trkpt lat="43.5842917" lon="13.2775967"><ele>46.0</ele><time>2026-04-04T06:40:53.566Z</time></trkpt><trkpt lat="43.584125" lon="13.2776483"><ele>46.0</ele><time>2026-04-04T06:40:54.572Z</time></trkpt><trkpt lat="43.5839583" lon="13.2777033"><ele>46.0</ele><time>2026-04-04T06:40:55.564Z</time></trkpt><trkpt lat="43.5837917" lon="13.27776"><ele>46.0</ele><time>2026-04-04T06:40:56.574Z</time></trkpt><trkpt lat="43.5836317" lon="13.2778183"><ele>47.66666666666667</ele><time>2026-04-04T06:40:57.572Z</time></trkpt><trkpt lat="43.5834717" lon="13.2778817"><ele>49.333333333333336</ele><time>2026-04-04T06:40:58.574Z</time></trkpt><trkpt lat="43.5833133" lon="13.2779483"><ele>51.0</ele><time>2026-04-04T06:40:59.605Z</time></trkpt><trkpt lat="43.5831633" lon="13.2780317"><ele>50.33333333333333</ele><time>2026-04-04T06:41:00.562Z</time></trkpt><trkpt lat="43.58302" lon="13.27814"><ele>49.666666666666664</ele><time>2026-04-04T06:41:01.571Z</time></trkpt><trkpt lat="43.5828817" lon="13.2782733"><ele>49.0</ele><time>2026-04-04T06:41:02.572Z</time></trkpt><trkpt lat="43.5827533" lon="13.2784167"><ele>51.33333333333333</ele><time>2026-04-04T06:41:03.569Z</time></trkpt><trkpt lat="43.58262" lon="13.278545"><ele>53.66666666666667</ele><time>2026-04-04T06:41:04.563Z</time></trkpt><trkpt lat="43.5824717" lon="13.278655"><ele>56.0</ele><time>2026-04-04T06:41:05.597Z</time></trkpt><trkpt lat="43.5823233" lon="13.2786917"><ele>56.0</ele><time>2026-04-04T06:41:06.56Z</time></trkpt><trkpt lat="43.582175" lon="13.2786917"><ele>56.0</ele><time>2026-04-04T06:41:07.571Z</time></trkpt><trkpt lat="43.58203" lon="13.2786483"><ele>56.0</ele><time>2026-04-04T06:41:08.571Z</time></trkpt><trkpt lat="43.5818817" lon="13.2785783"><ele>58.333333333333336</ele><time>2026-04-04T06:41:09.573Z</time></trkpt><trkpt lat="43.581725" lon="13.278485"><ele>60.66666666666667</ele><time>2026-04-04T06:41:10.57Z</time></trkpt><trkpt lat="43.5815667" lon="13.27839"><ele>63.0</ele><time>2026-04-04T06:41:11.602Z</time></trkpt><trkpt lat="43.58141" lon="13.2782983"><ele>63.0</ele><time>2026-04-04T06:41:12.569Z</time></trkpt><trkpt lat="43.58125" lon="13.2782083"><ele>63.0</ele><time>2026-04-04T06:41:13.568Z</time></trkpt><trkpt lat="43.5810883" lon="13.2781267"><ele>63.0</ele><time>2026-04-04T06:41:14.575Z</time></trkpt><trkpt lat="43.58093" lon="13.278045"><ele>63.33333333333333</ele><time>2026-04-04T06:41:15.569Z</time></trkpt><trkpt lat="43.5807667" lon="13.2779683"><ele>63.666666666666664</ele><time>2026-04-04T06:41:16.57Z</time></trkpt><trkpt lat="43.5806133" lon="13.2778933"><ele>64.0</ele><time>2026-04-04T06:41:17.595Z</time></trkpt><trkpt lat="43.5804633" lon="13.27783"><ele>64.0</ele><time>2026-04-04T06:41:18.566Z</time></trkpt><trkpt lat="43.5803233" lon="13.2777683"><ele>64.0</ele><time>2026-04-04T06:41:19.565Z</time></trkpt><trkpt lat="43.5801933" lon="13.277705"><ele>64.0</ele><time>2026-04-04T06:41:20.578Z</time></trkpt><trkpt lat="43.58007" lon="13.27763"><ele>64.0</ele><time>2026-04-04T06:41:21.573Z</time></trkpt><trkpt lat="43.5799617" lon="13.277535"><ele>64.0</ele><time>2026-04-04T06:41:22.569Z</time></trkpt><trkpt lat="43.57987" lon="13.2774067"><ele>64.0</ele><time>2026-04-04T06:41:23.577Z</time></trkpt><trkpt lat="43.5797883" lon="13.2772483"><ele>64.0</ele><time>2026-04-04T06:41:24.56Z</time></trkpt><trkpt lat="43.57971" lon="13.27706"><ele>64.0</ele><time>2026-04-04T06:41:25.566Z</time></trkpt><trkpt lat="43.5796233" lon="13.2768717"><ele>64.0</ele><time>2026-04-04T06:41:26.573Z</time></trkpt><trkpt lat="43.5795317" lon="13.276675"><ele>64.0</ele><time>2026-04-04T06:41:27.574Z</time></trkpt><trkpt lat="43.5794367" lon="13.2764783"><ele>64.0</ele><time>2026-04-04T06:41:28.57Z</time></trkpt><trkpt lat="43.5793417" lon="13.2762783"><ele>64.66666666666666</ele><time>2026-04-04T06:41:29.596Z</time></trkpt><trkpt lat="43.57925" lon="13.2760817"><ele>65.33333333333333</ele><time>2026-04-04T06:41:30.57Z</time></trkpt><trkpt lat="43.5791633" lon="13.2758917"><ele>66.0</ele><time>2026-04-04T06:41:31.57Z</time></trkpt><trkpt lat="43.5790683" lon="13.275705"><ele>66.66666666666667</ele><time>2026-04-04T06:41:32.573Z</time></trkpt><trkpt lat="43.5789717" lon="13.2755283"><ele>67.33333333333334</ele><time>2026-04-04T06:41:33.569Z</time></trkpt><trkpt lat="43.5788717" lon="13.275355"><ele>68.0</ele><time>2026-04-04T06:41:34.568Z</time></trkpt><trkpt lat="43.5787667" lon="13.2751817"><ele>67.66666666666667</ele><time>2026-04-04T06:41:35.601Z</time></trkpt><trkpt lat="43.5786583" lon="13.2750117"><ele>67.33333333333333</ele><time>2026-04-04T06:41:36.568Z</time></trkpt><trkpt lat="43.5785483" lon="13.2748433"><ele>67.0</ele><time>2026-04-04T06:41:37.573Z</time></trkpt><trkpt lat="43.57844" lon="13.27468"><ele>68.0</ele><time>2026-04-04T06:41:38.568Z</time></trkpt><trkpt lat="43.5783383" lon="13.27452"><ele>69.0</ele><time>2026-04-04T06:41:39.57Z</time></trkpt><trkpt lat="43.5782333" lon="13.2743633"><ele>70.0</ele><time>2026-04-04T06:41:40.575Z</time></trkpt><trkpt lat="43.5781317" lon="13.2742167"><ele>70.0</ele><time>2026-04-04T06:41:41.599Z</time></trkpt><trkpt lat="43.578035" lon="13.274075"><ele>70.0</ele><time>2026-04-04T06:41:42.566Z</time></trkpt><trkpt lat="43.577945" lon="13.2739367"><ele>70.0</ele><time>2026-04-04T06:41:43.572Z</time></trkpt><trkpt lat="43.5778683" lon="13.2738033"><ele>70.0</ele><time>2026-04-04T06:41:44.571Z</time></trkpt><trkpt lat="43.577815" lon="13.27367"><ele>70.2</ele><time>2026-04-04T06:41:45.572Z</time></trkpt><trkpt lat="43.577805" lon="13.27354"><ele>70.4</ele><time>2026-04-04T06:41:46.568Z</time></trkpt><trkpt lat="43.577805" lon="13.2734083"><ele>70.6</ele><time>2026-04-04T06:41:47.602Z</time></trkpt><trkpt lat="43.5777967" lon="13.2732767"><ele>70.8</ele><time>2026-04-04T06:41:48.566Z</time></trkpt><trkpt lat="43.5777733" lon="13.2731433"><ele>71.0</ele><time>2026-04-04T06:41:49.57Z</time></trkpt><trkpt lat="43.5777367" lon="13.2730117"><ele>72.25</ele><time>2026-04-04T06:41:50.569Z</time></trkpt><trkpt lat="43.577675" lon="13.272885"><ele>73.5</ele><time>2026-04-04T06:41:51.57Z</time></trkpt><trkpt lat="43.57756" lon="13.2727417"><ele>74.75</ele><time>2026-04-04T06:41:52.557Z</time></trkpt><trkpt lat="43.5774367" lon="13.27259"><ele>76.0</ele><time>2026-04-04T06:41:53.564Z</time></trkpt><trkpt lat="43.577305" lon="13.2724333"><ele>76.0</ele><time>2026-04-04T06:41:54.559Z</time></trkpt><trkpt lat="43.5771733" lon="13.272275"><ele>76.0</ele><time>2026-04-04T06:41:55.57Z</time></trkpt><trkpt lat="43.5770417" lon="13.2721133"><ele>76.0</ele><time>2026-04-04T06:41:56.573Z</time></trkpt><trkpt lat="43.57691" lon="13.271945"><ele>75.33333333333333</ele><time>2026-04-04T06:41:57.58Z</time></trkpt><trkpt lat="43.5767817" lon="13.27177"><ele>74.66666666666667</ele><time>2026-04-04T06:41:58.577Z</time></trkpt><trkpt lat="43.5766533" lon="13.2715933"><ele>74.0</ele><time>2026-04-04T06:41:59.609Z</time></trkpt><trkpt lat="43.5765283" lon="13.27142"><ele>73.33333333333334</ele><time>2026-04-04T06:42:00.565Z</time></trkpt><trkpt lat="43.5764033" lon="13.271245"><ele>72.66666666666667</ele><time>2026-04-04T06:42:01.577Z</time></trkpt><trkpt lat="43.5762783" lon="13.271075"><ele>72.0</ele><time>2026-04-04T06:42:02.572Z</time></trkpt><trkpt lat="43.5761517" lon="13.270905"><ele>72.0</ele><time>2026-04-04T06:42:03.57Z</time></trkpt><trkpt lat="43.5760283" lon="13.2707317"><ele>72.0</ele><time>2026-04-04T06:42:04.566Z</time></trkpt><trkpt lat="43.5759017" lon="13.27056"><ele>72.0</ele><time>2026-04-04T06:42:05.602Z</time></trkpt><trkpt lat="43.575775" lon="13.27039"><ele>74.33333333333333</ele><time>2026-04-04T06:42:06.568Z</time></trkpt><trkpt lat="43.5756517" lon="13.2702233"><ele>76.66666666666666</ele><time>2026-04-04T06:42:07.57Z</time></trkpt><trkpt lat="43.5755267" lon="13.270055"><ele>79.0</ele><time>2026-04-04T06:42:08.57Z</time></trkpt><trkpt lat="43.575405" lon="13.269885"><ele>79.33333333333333</ele><time>2026-04-04T06:42:09.569Z</time></trkpt><trkpt lat="43.5752817" lon="13.2697167"><ele>79.66666666666667</ele><time>2026-04-04T06:42:10.563Z</time></trkpt><trkpt lat="43.5751583" lon="13.2695483"><ele>80.0</ele><time>2026-04-04T06:42:11.607Z</time></trkpt><trkpt lat="43.57504" lon="13.269385"><ele>80.0</ele><time>2026-04-04T06:42:12.572Z</time></trkpt><trkpt lat="43.5749233" lon="13.269225"><ele>80.0</ele><time>2026-04-04T06:42:13.571Z</time></trkpt><trkpt lat="43.5748133" lon="13.2690617"><ele>80.0</ele><time>2026-04-04T06:42:14.561Z</time></trkpt><trkpt lat="43.57471" lon="13.26889"><ele>80.33333333333334</ele><time>2026-04-04T06:42:15.563Z</time></trkpt><trkpt lat="43.57462" lon="13.2687083"><ele>80.66666666666667</ele><time>2026-04-04T06:42:16.566Z</time></trkpt><trkpt lat="43.5745317" lon="13.2685267"><ele>81.0</ele><time>2026-04-04T06:42:17.604Z</time></trkpt><trkpt lat="43.5744333" lon="13.268345"><ele>81.0</ele><time>2026-04-04T06:42:18.569Z</time></trkpt><trkpt lat="43.5743317" lon="13.268165"><ele>81.0</ele><time>2026-04-04T06:42:19.566Z</time></trkpt><trkpt lat="43.5742283" lon="13.267985"><ele>81.0</ele><time>2026-04-04T06:42:20.569Z</time></trkpt><trkpt lat="43.5741217" lon="13.2678083"><ele>82.66666666666667</ele><time>2026-04-04T06:42:21.562Z</time></trkpt><trkpt lat="43.5740133" lon="13.2676383"><ele>84.33333333333334</ele><time>2026-04-04T06:42:22.575Z</time></trkpt><trkpt lat="43.5739067" lon="13.2674717"><ele>86.0</ele><time>2026-04-04T06:42:23.616Z</time></trkpt><trkpt lat="43.5737933" lon="13.26731"><ele>87.0</ele><time>2026-04-04T06:42:24.568Z</time></trkpt><trkpt lat="43.57368" lon="13.2671517"><ele>88.0</ele><time>2026-04-04T06:42:25.571Z</time></trkpt><trkpt lat="43.5735683" lon="13.2669933"><ele>89.0</ele><time>2026-04-04T06:42:26.57Z</time></trkpt><trkpt lat="43.5734533" lon="13.2668317"><ele>89.0</ele><time>2026-04-04T06:42:27.578Z</time></trkpt><trkpt lat="43.5733367" lon="13.2666767"><ele>89.0</ele><time>2026-04-04T06:42:28.573Z</time></trkpt><trkpt lat="43.5732133" lon="13.26654"><ele>89.0</ele><time>2026-04-04T06:42:29.605Z</time></trkpt><trkpt lat="43.5730783" lon="13.266435"><ele>91.33333333333334</ele><time>2026-04-04T06:42:30.575Z</time></trkpt><trkpt lat="43.5729317" lon="13.2663567"><ele>93.66666666666667</ele><time>2026-04-04T06:42:31.57Z</time></trkpt><trkpt lat="43.5727783" lon="13.2662833"><ele>96.0</ele><time>2026-04-04T06:42:32.572Z</time></trkpt><trkpt lat="43.5726217" lon="13.2662067"><ele>96.0</ele><time>2026-04-04T06:42:33.572Z</time></trkpt><trkpt lat="43.57246" lon="13.2661267"><ele>96.0</ele><time>2026-04-04T06:42:34.574Z</time></trkpt><trkpt lat="43.5722933" lon="13.26606"><ele>96.0</ele><time>2026-04-04T06:42:35.601Z</time></trkpt><trkpt lat="43.57213" lon="13.26599"><ele>96.0</ele><time>2026-04-04T06:42:36.572Z</time></trkpt><trkpt lat="43.5719717" lon="13.2659067"><ele>96.0</ele><time>2026-04-04T06:42:37.57Z</time></trkpt><trkpt lat="43.5718217" lon="13.2658117"><ele>96.0</ele><time>2026-04-04T06:42:38.566Z</time></trkpt><trkpt lat="43.5716733" lon="13.26571"><ele>98.33333333333334</ele><time>2026-04-04T06:42:39.576Z</time></trkpt><trkpt lat="43.5715283" lon="13.2656017"><ele>100.66666666666667</ele><time>2026-04-04T06:42:40.559Z</time></trkpt><trkpt lat="43.5713883" lon="13.2654833"><ele>103.0</ele><time>2026-04-04T06:42:41.599Z</time></trkpt><trkpt lat="43.5712433" lon="13.2653817"><ele>101.0</ele><time>2026-04-04T06:42:42.572Z</time></trkpt><trkpt lat="43.5710967" lon="13.2652817"><ele>99.0</ele><time>2026-04-04T06:42:43.566Z</time></trkpt><trkpt lat="43.5709517" lon="13.2651867"><ele>97.0</ele><time>2026-04-04T06:42:44.571Z</time></trkpt><trkpt lat="43.5708067" lon="13.2650967"><ele>97.0</ele><time>2026-04-04T06:42:45.572Z</time></trkpt><trkpt lat="43.570655" lon="13.2650183"><ele>97.0</ele><time>2026-04-04T06:42:46.574Z</time></trkpt><trkpt lat="43.5704967" lon="13.26496"><ele>97.0</ele><time>2026-04-04T06:42:47.595Z</time></trkpt><trkpt lat="43.5703333" lon="13.2649"><ele>95.66666666666667</ele><time>2026-04-04T06:42:48.572Z</time></trkpt><trkpt lat="43.570175" lon="13.2648333"><ele>94.33333333333334</ele><time>2026-04-04T06:42:49.57Z</time></trkpt><trkpt lat="43.5700167" lon="13.26476"><ele>93.0</ele><time>2026-04-04T06:42:50.572Z</time></trkpt><trkpt lat="43.5698617" lon="13.2646733"><ele>94.0</ele><time>2026-04-04T06:42:51.572Z</time></trkpt><trkpt lat="43.56971" lon="13.2645767"><ele>95.0</ele><time>2026-04-04T06:42:52.576Z</time></trkpt><trkpt lat="43.569555" lon="13.2644783"><ele>96.0</ele><time>2026-04-04T06:42:53.61Z</time></trkpt><trkpt lat="43.5693983" lon="13.2643867"><ele>96.0</ele><time>2026-04-04T06:42:54.563Z</time></trkpt><trkpt lat="43.5692383" lon="13.2642967"><ele>96.0</ele><time>2026-04-04T06:42:55.573Z</time></trkpt><trkpt lat="43.5690817" lon="13.2642017"><ele>96.0</ele><time>2026-04-04T06:42:56.574Z</time></trkpt><trkpt lat="43.5689267" lon="13.2641033"><ele>96.0</ele><time>2026-04-04T06:42:57.565Z</time></trkpt><trkpt lat="43.5687733" lon="13.263995"><ele>96.0</ele><time>2026-04-04T06:42:58.571Z</time></trkpt><trkpt lat="43.568625" lon="13.263875"><ele>96.0</ele><time>2026-04-04T06:42:59.564Z</time></trkpt><trkpt lat="43.56848" lon="13.2637433"><ele>97.33333333333334</ele><time>2026-04-04T06:43:00.57Z</time></trkpt><trkpt lat="43.5683367" lon="13.2636167"><ele>98.66666666666667</ele><time>2026-04-04T06:43:01.575Z</time></trkpt><trkpt lat="43.5681933" lon="13.263495"><ele>100.0</ele><time>2026-04-04T06:43:02.564Z</time></trkpt><trkpt lat="43.5680533" lon="13.263375"><ele>100.0</ele><time>2026-04-04T06:43:03.558Z</time></trkpt><trkpt lat="43.5679217" lon="13.2632433"><ele>100.0</ele><time>2026-04-04T06:43:04.572Z</time></trkpt><trkpt lat="43.5677883" lon="13.26311"><ele>100.0</ele><time>2026-04-04T06:43:05.601Z</time></trkpt><trkpt lat="43.5676583" lon="13.2629783"><ele>101.0</ele><time>2026-04-04T06:43:06.573Z</time></trkpt><trkpt lat="43.56754" lon="13.26284"><ele>102.0</ele><time>2026-04-04T06:43:07.571Z</time></trkpt><trkpt lat="43.567415" lon="13.26272"><ele>103.0</ele><time>2026-04-04T06:43:08.571Z</time></trkpt><trkpt lat="43.5672917" lon="13.26262"><ele>103.0</ele><time>2026-04-04T06:43:09.571Z</time></trkpt><trkpt lat="43.5671483" lon="13.2625633"><ele>103.0</ele><time>2026-04-04T06:43:10.572Z</time></trkpt><trkpt lat="43.566995" lon="13.2625383"><ele>103.0</ele><time>2026-04-04T06:43:11.601Z</time></trkpt><trkpt lat="43.566835" lon="13.262545"><ele>102.0</ele><time>2026-04-04T06:43:12.569Z</time></trkpt><trkpt lat="43.5666767" lon="13.2625667"><ele>101.0</ele><time>2026-04-04T06:43:13.572Z</time></trkpt><trkpt lat="43.5665283" lon="13.262585"><ele>100.0</ele><time>2026-04-04T06:43:14.571Z</time></trkpt><trkpt lat="43.5663867" lon="13.2626233"><ele>100.0</ele><time>2026-04-04T06:43:15.569Z</time></trkpt><trkpt lat="43.5662467" lon="13.2626667"><ele>100.0</ele><time>2026-04-04T06:43:16.571Z</time></trkpt><trkpt lat="43.5661067" lon="13.2627183"><ele>100.0</ele><time>2026-04-04T06:43:17.609Z</time></trkpt><trkpt lat="43.5659667" lon="13.2627717"><ele>100.0</ele><time>2026-04-04T06:43:18.57Z</time></trkpt><trkpt lat="43.5658283" lon="13.262805"><ele>100.0</ele><time>2026-04-04T06:43:19.575Z</time></trkpt><trkpt lat="43.5656983" lon="13.2628"><ele>100.0</ele><time>2026-04-04T06:43:20.573Z</time></trkpt><trkpt lat="43.5655717" lon="13.2627283"><ele>100.0</ele><time>2026-04-04T06:43:21.568Z</time></trkpt><trkpt lat="43.56545" lon="13.2626333"><ele>100.0</ele><time>2026-04-04T06:43:22.571Z</time></trkpt><trkpt lat="43.565325" lon="13.26252"><ele>99.66666666666667</ele><time>2026-04-04T06:43:23.569Z</time></trkpt><trkpt lat="43.5651983" lon="13.262405"><ele>99.33333333333334</ele><time>2026-04-04T06:43:24.568Z</time></trkpt><trkpt lat="43.5650833" lon="13.2622717"><ele>99.0</ele><time>2026-04-04T06:43:25.565Z</time></trkpt><trkpt lat="43.5649767" lon="13.26212"><ele>100.0</ele><time>2026-04-04T06:43:26.576Z</time></trkpt><trkpt lat="43.5648683" lon="13.261965"><ele>101.0</ele><time>2026-04-04T06:43:27.564Z</time></trkpt><trkpt lat="43.5647733" lon="13.2618083"><ele>102.0</ele><time>2026-04-04T06:43:28.576Z</time></trkpt><trkpt lat="43.56468" lon="13.26167"><ele>103.0</ele><time>2026-04-04T06:43:29.57Z</time></trkpt><trkpt lat="43.564585" lon="13.26154"><ele>104.2</ele><time>2026-04-04T06:43:30.564Z</time></trkpt><trkpt lat="43.5644917" lon="13.261425"><ele>105.4</ele><time>2026-04-04T06:43:31.564Z</time></trkpt><trkpt lat="43.56441" lon="13.261335"><ele>106.60000000000001</ele><time>2026-04-04T06:43:32.568Z</time></trkpt><trkpt lat="43.5643333" lon="13.2612817"><ele>107.80000000000001</ele><time>2026-04-04T06:43:33.561Z</time></trkpt><trkpt lat="43.5642683" lon="13.261235"><ele>109.0</ele><time>2026-04-04T06:43:34.57Z</time></trkpt><trkpt lat="43.5642067" lon="13.2612133"><ele>109.00000000000001</ele><time>2026-04-04T06:43:35.597Z</time></trkpt><trkpt lat="43.5641317" lon="13.26116"><ele>109.0</ele><time>2026-04-04T06:43:37.568Z</time></trkpt><trkpt lat="43.564055" lon="13.2611383"><ele>109.0</ele><time>2026-04-04T06:43:42.562Z</time></trkpt><trkpt lat="43.5639717" lon="13.261245"><ele>109.0</ele><time>2026-04-04T06:43:44.566Z</time></trkpt><trkpt lat="43.56392" lon="13.2613"><ele>109.00000000000001</ele><time>2026-04-04T06:43:45.571Z</time></trkpt><trkpt lat="43.563845" lon="13.2613633"><ele>109.0</ele><time>2026-04-04T06:43:46.574Z</time></trkpt><trkpt lat="43.56375" lon="13.2614383"><ele>108.0</ele><time>2026-04-04T06:43:47.601Z</time></trkpt><trkpt lat="43.5636367" lon="13.26153"><ele>107.0</ele><time>2026-04-04T06:43:48.57Z</time></trkpt><trkpt lat="43.563525" lon="13.2616217"><ele>106.0</ele><time>2026-04-04T06:43:49.563Z</time></trkpt><trkpt lat="43.56341" lon="13.2617167"><ele>105.0</ele><time>2026-04-04T06:43:50.559Z</time></trkpt><trkpt lat="43.563285" lon="13.2618283"><ele>105.0</ele><time>2026-04-04T06:43:51.567Z</time></trkpt><trkpt lat="43.563155" lon="13.2619417"><ele>105.0</ele><time>2026-04-04T06:43:52.571Z</time></trkpt><trkpt lat="43.5630283" lon="13.262045"><ele>105.0</ele><time>2026-04-04T06:43:53.569Z</time></trkpt><trkpt lat="43.5629" lon="13.2621467"><ele>105.0</ele><time>2026-04-04T06:43:54.566Z</time></trkpt><trkpt lat="43.5627767" lon="13.2622517"><ele>103.0</ele><time>2026-04-04T06:43:55.575Z</time></trkpt><trkpt lat="43.5626467" lon="13.262345"><ele>101.0</ele><time>2026-04-04T06:43:56.573Z</time></trkpt><trkpt lat="43.562515" lon="13.262425"><ele>99.0</ele><time>2026-04-04T06:43:57.572Z</time></trkpt><trkpt lat="43.5623733" lon="13.26249"><ele>97.0</ele><time>2026-04-04T06:43:58.57Z</time></trkpt><trkpt lat="43.5622267" lon="13.2625317"><ele>97.0</ele><time>2026-04-04T06:43:59.574Z</time></trkpt><trkpt lat="43.5620717" lon="13.26257"><ele>97.0</ele><time>2026-04-04T06:44:00.569Z</time></trkpt><trkpt lat="43.56192" lon="13.2626117"><ele>97.0</ele><time>2026-04-04T06:44:01.566Z</time></trkpt><trkpt lat="43.5617667" lon="13.2626617"><ele>97.33333333333334</ele><time>2026-04-04T06:44:02.565Z</time></trkpt><trkpt lat="43.56161" lon="13.2627167"><ele>97.66666666666666</ele><time>2026-04-04T06:44:03.574Z</time></trkpt><trkpt lat="43.56145" lon="13.2627683"><ele>98.0</ele><time>2026-04-04T06:44:04.565Z</time></trkpt><trkpt lat="43.5612917" lon="13.2628033"><ele>99.33333333333333</ele><time>2026-04-04T06:44:05.593Z</time></trkpt><trkpt lat="43.56113" lon="13.2628117"><ele>100.66666666666666</ele><time>2026-04-04T06:44:06.561Z</time></trkpt><trkpt lat="43.560965" lon="13.2627917"><ele>102.0</ele><time>2026-04-04T06:44:07.566Z</time></trkpt><trkpt lat="43.5608067" lon="13.2627533"><ele>102.0</ele><time>2026-04-04T06:44:08.564Z</time></trkpt><trkpt lat="43.560645" lon="13.2627133"><ele>102.0</ele><time>2026-04-04T06:44:09.564Z</time></trkpt><trkpt lat="43.5604883" lon="13.262675"><ele>102.0</ele><time>2026-04-04T06:44:10.562Z</time></trkpt><trkpt lat="43.560335" lon="13.2626433"><ele>102.0</ele><time>2026-04-04T06:44:11.593Z</time></trkpt><trkpt lat="43.56018" lon="13.2626283"><ele>102.0</ele><time>2026-04-04T06:44:12.571Z</time></trkpt><trkpt lat="43.560025" lon="13.2626367"><ele>102.0</ele><time>2026-04-04T06:44:13.569Z</time></trkpt><trkpt lat="43.5598667" lon="13.2626717"><ele>102.0</ele><time>2026-04-04T06:44:14.577Z</time></trkpt><trkpt lat="43.55971" lon="13.2627383"><ele>102.0</ele><time>2026-04-04T06:44:15.566Z</time></trkpt><trkpt lat="43.5595617" lon="13.2628183"><ele>102.0</ele><time>2026-04-04T06:44:16.572Z</time></trkpt><trkpt lat="43.5594217" lon="13.2629117"><ele>101.33333333333334</ele><time>2026-04-04T06:44:17.6Z</time></trkpt><trkpt lat="43.55927" lon="13.2630133"><ele>100.66666666666667</ele><time>2026-04-04T06:44:18.579Z</time></trkpt><trkpt lat="43.559125" lon="13.263105"><ele>100.0</ele><time>2026-04-04T06:44:19.571Z</time></trkpt><trkpt lat="43.558975" lon="13.2631767"><ele>99.0</ele><time>2026-04-04T06:44:20.564Z</time></trkpt><trkpt lat="43.55882" lon="13.2632233"><ele>98.0</ele><time>2026-04-04T06:44:21.577Z</time></trkpt><trkpt lat="43.5586583" lon="13.2632433"><ele>97.0</ele><time>2026-04-04T06:44:22.57Z</time></trkpt><trkpt lat="43.5584917" lon="13.26323"><ele>96.66666666666667</ele><time>2026-04-04T06:44:23.579Z</time></trkpt><trkpt lat="43.5583167" lon="13.2632133"><ele>96.33333333333334</ele><time>2026-04-04T06:44:24.569Z</time></trkpt><trkpt lat="43.5581433" lon="13.2631967"><ele>96.0</ele><time>2026-04-04T06:44:25.56Z</time></trkpt><trkpt lat="43.5579667" lon="13.263195"><ele>97.0</ele><time>2026-04-04T06:44:26.571Z</time></trkpt><trkpt lat="43.5577883" lon="13.2632083"><ele>98.0</ele><time>2026-04-04T06:44:27.57Z</time></trkpt><trkpt lat="43.5576083" lon="13.2632333"><ele>99.0</ele><time>2026-04-04T06:44:28.572Z</time></trkpt><trkpt lat="43.5574283" lon="13.2632667"><ele>99.0</ele><time>2026-04-04T06:44:29.574Z</time></trkpt><trkpt lat="43.55725" lon="13.2632933"><ele>99.0</ele><time>2026-04-04T06:44:30.57Z</time></trkpt><trkpt lat="43.5570683" lon="13.2633167"><ele>99.0</ele><time>2026-04-04T06:44:31.569Z</time></trkpt><trkpt lat="43.55689" lon="13.26332"><ele>98.66666666666666</ele><time>2026-04-04T06:44:32.572Z</time></trkpt><trkpt lat="43.5567167" lon="13.2633183"><ele>98.33333333333333</ele><time>2026-04-04T06:44:33.561Z</time></trkpt><trkpt lat="43.5565417" lon="13.2633267"><ele>98.0</ele><time>2026-04-04T06:44:34.566Z</time></trkpt><trkpt lat="43.5563733" lon="13.26334"><ele>98.0</ele><time>2026-04-04T06:44:35.6Z</time></trkpt><trkpt lat="43.5562133" lon="13.26335"><ele>98.0</ele><time>2026-04-04T06:44:36.565Z</time></trkpt><trkpt lat="43.5560517" lon="13.2633717"><ele>98.0</ele><time>2026-04-04T06:44:37.567Z</time></trkpt><trkpt lat="43.55589" lon="13.2634083"><ele>98.66666666666666</ele><time>2026-04-04T06:44:38.572Z</time></trkpt><trkpt lat="43.5557267" lon="13.2634567"><ele>99.33333333333334</ele><time>2026-04-04T06:44:39.568Z</time></trkpt><trkpt lat="43.5555617" lon="13.26351"><ele>100.0</ele><time>2026-04-04T06:44:40.567Z</time></trkpt><trkpt lat="43.5554" lon="13.26356"><ele>98.33333333333334</ele><time>2026-04-04T06:44:41.604Z</time></trkpt><trkpt lat="43.5552367" lon="13.2636083"><ele>96.66666666666667</ele><time>2026-04-04T06:44:42.571Z</time></trkpt><trkpt lat="43.5550717" lon="13.2636567"><ele>95.0</ele><time>2026-04-04T06:44:43.573Z</time></trkpt><trkpt lat="43.5549083" lon="13.263695"><ele>95.0</ele><time>2026-04-04T06:44:44.575Z</time></trkpt><trkpt lat="43.5547433" lon="13.263715"><ele>95.0</ele><time>2026-04-04T06:44:45.557Z</time></trkpt><trkpt lat="43.554575" lon="13.2637267"><ele>95.0</ele><time>2026-04-04T06:44:46.567Z</time></trkpt><trkpt lat="43.5544117" lon="13.26372"><ele>94.33333333333334</ele><time>2026-04-04T06:44:47.603Z</time></trkpt><trkpt lat="43.5542483" lon="13.2636983"><ele>93.66666666666667</ele><time>2026-04-04T06:44:48.578Z</time></trkpt><trkpt lat="43.5540833" lon="13.2636717"><ele>93.0</ele><time>2026-04-04T06:44:49.571Z</time></trkpt><trkpt lat="43.5539183" lon="13.2636317"><ele>93.0</ele><time>2026-04-04T06:44:50.575Z</time></trkpt><trkpt lat="43.5537517" lon="13.2635833"><ele>93.0</ele><time>2026-04-04T06:44:51.566Z</time></trkpt><trkpt lat="43.5535833" lon="13.2635267"><ele>93.0</ele><time>2026-04-04T06:44:52.572Z</time></trkpt><trkpt lat="43.5534133" lon="13.2634783"><ele>92.66666666666667</ele><time>2026-04-04T06:44:53.607Z</time></trkpt><trkpt lat="43.5532367" lon="13.2634367"><ele>92.33333333333334</ele><time>2026-04-04T06:44:54.562Z</time></trkpt><trkpt lat="43.5530617" lon="13.2634083"><ele>92.0</ele><time>2026-04-04T06:44:55.576Z</time></trkpt><trkpt lat="43.552885" lon="13.26339"><ele>91.33333333333334</ele><time>2026-04-04T06:44:56.57Z</time></trkpt><trkpt lat="43.55271" lon="13.26338"><ele>90.66666666666667</ele><time>2026-04-04T06:44:57.574Z</time></trkpt><trkpt lat="43.552535" lon="13.2633867"><ele>90.0</ele><time>2026-04-04T06:44:58.57Z</time></trkpt><trkpt lat="43.552365" lon="13.2634"><ele>90.0</ele><time>2026-04-04T06:44:59.593Z</time></trkpt><trkpt lat="43.5521983" lon="13.26342"><ele>90.0</ele><time>2026-04-04T06:45:00.572Z</time></trkpt><trkpt lat="43.5520367" lon="13.26344"><ele>90.0</ele><time>2026-04-04T06:45:01.579Z</time></trkpt><trkpt lat="43.5518767" lon="13.2634867"><ele>90.33333333333333</ele><time>2026-04-04T06:45:02.573Z</time></trkpt><trkpt lat="43.5517183" lon="13.2635583"><ele>90.66666666666666</ele><time>2026-04-04T06:45:03.571Z</time></trkpt><trkpt lat="43.551565" lon="13.263655"><ele>91.0</ele><time>2026-04-04T06:45:04.57Z</time></trkpt><trkpt lat="43.5514167" lon="13.2637633"><ele>91.0</ele><time>2026-04-04T06:45:05.6Z</time></trkpt><trkpt lat="43.55127" lon="13.2638767"><ele>91.0</ele><time>2026-04-04T06:45:06.573Z</time></trkpt><trkpt lat="43.55112" lon="13.2639867"><ele>91.0</ele><time>2026-04-04T06:45:07.571Z</time></trkpt><trkpt lat="43.5509617" lon="13.2640717"><ele>87.66666666666666</ele><time>2026-04-04T06:45:08.577Z</time></trkpt><trkpt lat="43.5507933" lon="13.26413"><ele>84.33333333333333</ele><time>2026-04-04T06:45:09.574Z</time></trkpt><trkpt lat="43.5506217" lon="13.2641617"><ele>81.0</ele><time>2026-04-04T06:45:10.571Z</time></trkpt><trkpt lat="43.5504433" lon="13.2641667"><ele>80.66666666666667</ele><time>2026-04-04T06:45:11.603Z</time></trkpt><trkpt lat="43.5502617" lon="13.2641533"><ele>80.33333333333334</ele><time>2026-04-04T06:45:12.572Z</time></trkpt><trkpt lat="43.5500817" lon="13.2641217"><ele>80.0</ele><time>2026-04-04T06:45:13.574Z</time></trkpt><trkpt lat="43.5499083" lon="13.26409"><ele>80.0</ele><time>2026-04-04T06:45:14.571Z</time></trkpt><trkpt lat="43.5497383" lon="13.2640617"><ele>80.0</ele><time>2026-04-04T06:45:15.569Z</time></trkpt><trkpt lat="43.5495667" lon="13.2640283"><ele>80.0</ele><time>2026-04-04T06:45:16.569Z</time></trkpt><trkpt lat="43.5493933" lon="13.2639883"><ele>79.33333333333334</ele><time>2026-04-04T06:45:17.598Z</time></trkpt><trkpt lat="43.5492183" lon="13.2639433"><ele>78.66666666666667</ele><time>2026-04-04T06:45:18.569Z</time></trkpt><trkpt lat="43.549045" lon="13.2638967"><ele>78.0</ele><time>2026-04-04T06:45:19.562Z</time></trkpt><trkpt lat="43.5488683" lon="13.26385"><ele>80.33333333333333</ele><time>2026-04-04T06:45:20.575Z</time></trkpt><trkpt lat="43.5486967" lon="13.2638017"><ele>82.66666666666666</ele><time>2026-04-04T06:45:21.571Z</time></trkpt><trkpt lat="43.54853" lon="13.2637567"><ele>85.0</ele><time>2026-04-04T06:45:22.571Z</time></trkpt><trkpt lat="43.548365" lon="13.263715"><ele>85.0</ele><time>2026-04-04T06:45:23.612Z</time></trkpt><trkpt lat="43.5481967" lon="13.2636817"><ele>85.0</ele><time>2026-04-04T06:45:24.569Z</time></trkpt><trkpt lat="43.5480383" lon="13.2636683"><ele>85.0</ele><time>2026-04-04T06:45:25.574Z</time></trkpt><trkpt lat="43.5478767" lon="13.2636733"><ele>84.33333333333333</ele><time>2026-04-04T06:45:26.559Z</time></trkpt><trkpt lat="43.54772" lon="13.26369"><ele>83.66666666666667</ele><time>2026-04-04T06:45:27.571Z</time></trkpt><trkpt lat="43.5475667" lon="13.263725"><ele>83.0</ele><time>2026-04-04T06:45:28.569Z</time></trkpt><trkpt lat="43.5474083" lon="13.2637683"><ele>83.0</ele><time>2026-04-04T06:45:29.575Z</time></trkpt><trkpt lat="43.5472583" lon="13.2638083"><ele>83.0</ele><time>2026-04-04T06:45:30.565Z</time></trkpt><trkpt lat="43.5471083" lon="13.2638333"><ele>83.0</ele><time>2026-04-04T06:45:31.578Z</time></trkpt><trkpt lat="43.5469567" lon="13.263835"><ele>82.0</ele><time>2026-04-04T06:45:32.576Z</time></trkpt><trkpt lat="43.5468" lon="13.2638133"><ele>81.0</ele><time>2026-04-04T06:45:33.573Z</time></trkpt><trkpt lat="43.54665" lon="13.2637517"><ele>80.0</ele><time>2026-04-04T06:45:34.569Z</time></trkpt><trkpt lat="43.5465017" lon="13.263665"><ele>80.0</ele><time>2026-04-04T06:45:35.588Z</time></trkpt><trkpt lat="43.5463517" lon="13.2635667"><ele>80.0</ele><time>2026-04-04T06:45:36.56Z</time></trkpt><trkpt lat="43.5461967" lon="13.263475"><ele>80.0</ele><time>2026-04-04T06:45:37.569Z</time></trkpt><trkpt lat="43.54604" lon="13.2633867"><ele>80.0</ele><time>2026-04-04T06:45:38.573Z</time></trkpt><trkpt lat="43.54588" lon="13.263305"><ele>80.0</ele><time>2026-04-04T06:45:39.573Z</time></trkpt><trkpt lat="43.54572" lon="13.26323"><ele>80.0</ele><time>2026-04-04T06:45:40.567Z</time></trkpt><trkpt lat="43.5455583" lon="13.2631533"><ele>79.66666666666667</ele><time>2026-04-04T06:45:41.6Z</time></trkpt><trkpt lat="43.5454" lon="13.26307"><ele>79.33333333333333</ele><time>2026-04-04T06:45:42.567Z</time></trkpt><trkpt lat="43.545245" lon="13.2629783"><ele>79.0</ele><time>2026-04-04T06:45:43.57Z</time></trkpt><trkpt lat="43.5450933" lon="13.26288"><ele>77.66666666666666</ele><time>2026-04-04T06:45:44.559Z</time></trkpt><trkpt lat="43.5449383" lon="13.2627917"><ele>76.33333333333333</ele><time>2026-04-04T06:45:45.575Z</time></trkpt><trkpt lat="43.54478" lon="13.2627233"><ele>75.0</ele><time>2026-04-04T06:45:46.569Z</time></trkpt><trkpt lat="43.5446167" lon="13.2626783"><ele>75.0</ele><time>2026-04-04T06:45:47.596Z</time></trkpt><trkpt lat="43.5444533" lon="13.2626383"><ele>75.0</ele><time>2026-04-04T06:45:48.566Z</time></trkpt><trkpt lat="43.54429" lon="13.2626017"><ele>75.0</ele><time>2026-04-04T06:45:49.567Z</time></trkpt><trkpt lat="43.5441383" lon="13.26256"><ele>75.0</ele><time>2026-04-04T06:45:50.572Z</time></trkpt><trkpt lat="43.544" lon="13.26251"><ele>75.0</ele><time>2026-04-04T06:45:51.575Z</time></trkpt><trkpt lat="43.5438683" lon="13.2624533"><ele>75.0</ele><time>2026-04-04T06:45:52.573Z</time></trkpt><trkpt lat="43.5437317" lon="13.2623983"><ele>75.0</ele><time>2026-04-04T06:45:53.576Z</time></trkpt><trkpt lat="43.5435983" lon="13.2623517"><ele>75.0</ele><time>2026-04-04T06:45:54.57Z</time></trkpt><trkpt lat="43.543465" lon="13.262305"><ele>75.0</ele><time>2026-04-04T06:45:55.568Z</time></trkpt><trkpt lat="43.5433283" lon="13.262255"><ele>75.0</ele><time>2026-04-04T06:45:56.563Z</time></trkpt><trkpt lat="43.54318" lon="13.2622083"><ele>75.0</ele><time>2026-04-04T06:45:57.57Z</time></trkpt><trkpt lat="43.5430233" lon="13.262165"><ele>76.0</ele><time>2026-04-04T06:45:58.569Z</time></trkpt><trkpt lat="43.5428667" lon="13.26212"><ele>77.0</ele><time>2026-04-04T06:45:59.568Z</time></trkpt><trkpt lat="43.5427083" lon="13.2620733"><ele>78.0</ele><time>2026-04-04T06:46:00.572Z</time></trkpt><trkpt lat="43.5425517" lon="13.26202"><ele>78.0</ele><time>2026-04-04T06:46:01.572Z</time></trkpt><trkpt lat="43.5423983" lon="13.261965"><ele>78.0</ele><time>2026-04-04T06:46:02.572Z</time></trkpt><trkpt lat="43.542245" lon="13.2619"><ele>78.0</ele><time>2026-04-04T06:46:03.57Z</time></trkpt><trkpt lat="43.5420933" lon="13.261825"><ele>77.5</ele><time>2026-04-04T06:46:04.573Z</time></trkpt><trkpt lat="43.541945" lon="13.2617517"><ele>77.0</ele><time>2026-04-04T06:46:05.604Z</time></trkpt><trkpt lat="43.541805" lon="13.2616867"><ele>76.5</ele><time>2026-04-04T06:46:06.571Z</time></trkpt><trkpt lat="43.5416667" lon="13.2616367"><ele>76.0</ele><time>2026-04-04T06:46:07.571Z</time></trkpt><trkpt lat="43.5415317" lon="13.2616"><ele>76.0</ele><time>2026-04-04T06:46:08.57Z</time></trkpt><trkpt lat="43.5414" lon="13.2615683"><ele>76.0</ele><time>2026-04-04T06:46:09.579Z</time></trkpt><trkpt lat="43.54129" lon="13.26154"><ele>76.0</ele><time>2026-04-04T06:46:10.571Z</time></trkpt><trkpt lat="43.541205" lon="13.2615217"><ele>76.0</ele><time>2026-04-04T06:46:11.604Z</time></trkpt><trkpt lat="43.5411033" lon="13.2615"><ele>76.0</ele><time>2026-04-04T06:46:13.571Z</time></trkpt><trkpt lat="43.5410067" lon="13.2614883"><ele>75.8</ele><time>2026-04-04T06:46:15.577Z</time></trkpt><trkpt lat="43.5409067" lon="13.2614817"><ele>75.6</ele><time>2026-04-04T06:46:17.597Z</time></trkpt><trkpt lat="43.54083" lon="13.26148"><ele>75.4</ele><time>2026-04-04T06:46:19.569Z</time></trkpt><trkpt lat="43.54075" lon="13.2614817"><ele>75.2</ele><time>2026-04-04T06:46:22.565Z</time></trkpt><trkpt lat="43.5407117" lon="13.2615533"><ele>75.0</ele><time>2026-04-04T06:47:00.573Z</time></trkpt><trkpt lat="43.5405817" lon="13.2615567"><ele>75.0</ele><time>2026-04-04T06:47:02.57Z</time></trkpt><trkpt lat="43.5405" lon="13.2615567"><ele>75.0</ele><time>2026-04-04T06:47:03.571Z</time></trkpt><trkpt lat="43.54041" lon="13.2615517"><ele>75.0</ele><time>2026-04-04T06:47:04.571Z</time></trkpt><trkpt lat="43.5403067" lon="13.2615683"><ele>75.0</ele><time>2026-04-04T06:47:05.606Z</time></trkpt><trkpt lat="43.5401983" lon="13.2615817"><ele>75.0</ele><time>2026-04-04T06:47:06.566Z</time></trkpt><trkpt lat="43.5400817" lon="13.261605"><ele>74.8</ele><time>2026-04-04T06:47:07.575Z</time></trkpt><trkpt lat="43.539975" lon="13.2616233"><ele>74.6</ele><time>2026-04-04T06:47:08.569Z</time></trkpt><trkpt lat="43.5398633" lon="13.2616433"><ele>74.4</ele><time>2026-04-04T06:47:09.573Z</time></trkpt><trkpt lat="43.53976" lon="13.261665"><ele>74.2</ele><time>2026-04-04T06:47:10.567Z</time></trkpt><trkpt lat="43.539655" lon="13.2616917"><ele>74.0</ele><time>2026-04-04T06:47:11.614Z</time></trkpt><trkpt lat="43.539555" lon="13.2617133"><ele>74.5</ele><time>2026-04-04T06:47:12.571Z</time></trkpt><trkpt lat="43.5394533" lon="13.26173"><ele>75.0</ele><time>2026-04-04T06:47:13.58Z</time></trkpt><trkpt lat="43.53935" lon="13.2617367"><ele>75.5</ele><time>2026-04-04T06:47:14.573Z</time></trkpt><trkpt lat="43.53923" lon="13.2617433"><ele>76.0</ele><time>2026-04-04T06:47:15.567Z</time></trkpt><trkpt lat="43.5390983" lon="13.2617533"><ele>76.0</ele><time>2026-04-04T06:47:16.574Z</time></trkpt><trkpt lat="43.538975" lon="13.261755"><ele>76.0</ele><time>2026-04-04T06:47:17.603Z</time></trkpt><trkpt lat="43.5388483" lon="13.2617583"><ele>76.0</ele><time>2026-04-04T06:47:18.563Z</time></trkpt><trkpt lat="43.5387283" lon="13.2617567"><ele>76.0</ele><time>2026-04-04T06:47:19.568Z</time></trkpt><trkpt lat="43.5386083" lon="13.2617533"><ele>74.0</ele><time>2026-04-04T06:47:20.565Z</time></trkpt><trkpt lat="43.5384933" lon="13.2617433"><ele>72.0</ele><time>2026-04-04T06:47:21.57Z</time></trkpt><trkpt lat="43.5383867" lon="13.2617317"><ele>70.0</ele><time>2026-04-04T06:47:22.56Z</time></trkpt><trkpt lat="43.5382783" lon="13.2617067"><ele>68.0</ele><time>2026-04-04T06:47:23.603Z</time></trkpt><trkpt lat="43.538165" lon="13.2616833"><ele>66.0</ele><time>2026-04-04T06:47:24.566Z</time></trkpt><trkpt lat="43.5380533" lon="13.26166"><ele>66.0</ele><time>2026-04-04T06:47:25.567Z</time></trkpt><trkpt lat="43.5379533" lon="13.2616267"><ele>66.0</ele><time>2026-04-04T06:47:26.567Z</time></trkpt><trkpt lat="43.537855" lon="13.26159"><ele>66.0</ele><time>2026-04-04T06:47:27.564Z</time></trkpt><trkpt lat="43.537765" lon="13.2615217"><ele>66.0</ele><time>2026-04-04T06:47:28.567Z</time></trkpt><trkpt lat="43.5376667" lon="13.2614433"><ele>66.0</ele><time>2026-04-04T06:47:29.591Z</time></trkpt><trkpt lat="43.5375667" lon="13.2613317"><ele>66.25</ele><time>2026-04-04T06:47:30.564Z</time></trkpt><trkpt lat="43.5374783" lon="13.2612033"><ele>66.5</ele><time>2026-04-04T06:47:31.568Z</time></trkpt><trkpt lat="43.5373883" lon="13.2610733"><ele>66.75</ele><time>2026-04-04T06:47:32.57Z</time></trkpt><trkpt lat="43.537295" lon="13.2609367"><ele>67.0</ele><time>2026-04-04T06:47:33.567Z</time></trkpt><trkpt lat="43.5371917" lon="13.2607967"><ele>67.0</ele><time>2026-04-04T06:47:34.565Z</time></trkpt><trkpt lat="43.5370883" lon="13.2606417"><ele>67.0</ele><time>2026-04-04T06:47:35.605Z</time></trkpt><trkpt lat="43.5369783" lon="13.2604883"><ele>67.0</ele><time>2026-04-04T06:47:36.57Z</time></trkpt><trkpt lat="43.536855" lon="13.26034"><ele>67.33333333333333</ele><time>2026-04-04T06:47:37.571Z</time></trkpt><trkpt lat="43.5367367" lon="13.260195"><ele>67.66666666666667</ele><time>2026-04-04T06:47:38.573Z</time></trkpt><trkpt lat="43.5366167" lon="13.2600483"><ele>68.0</ele><time>2026-04-04T06:47:39.572Z</time></trkpt><trkpt lat="43.5364983" lon="13.2598983"><ele>68.25</ele><time>2026-04-04T06:47:40.571Z</time></trkpt><trkpt lat="43.5363883" lon="13.25976"><ele>68.5</ele><time>2026-04-04T06:47:41.604Z</time></trkpt><trkpt lat="43.5362817" lon="13.259625"><ele>68.75</ele><time>2026-04-04T06:47:42.564Z</time></trkpt><trkpt lat="43.5361733" lon="13.2595"><ele>69.0</ele><time>2026-04-04T06:47:43.569Z</time></trkpt><trkpt lat="43.5360683" lon="13.2593867"><ele>69.2</ele><time>2026-04-04T06:47:44.57Z</time></trkpt><trkpt lat="43.53598" lon="13.2593033"><ele>69.4</ele><time>2026-04-04T06:47:45.572Z</time></trkpt><trkpt lat="43.5358867" lon="13.2592317"><ele>69.6</ele><time>2026-04-04T06:47:46.569Z</time></trkpt><trkpt lat="43.5358" lon="13.2591833"><ele>69.8</ele><time>2026-04-04T06:47:47.604Z</time></trkpt><trkpt lat="43.5357217" lon="13.2591333"><ele>70.0</ele><time>2026-04-04T06:47:48.571Z</time></trkpt><trkpt lat="43.5356583" lon="13.259085"><ele>70.0</ele><time>2026-04-04T06:47:49.569Z</time></trkpt><trkpt lat="43.53556" lon="13.2589617"><ele>70.0</ele><time>2026-04-04T06:47:51.569Z</time></trkpt><trkpt lat="43.535505" lon="13.2588783"><ele>70.0</ele><time>2026-04-04T06:47:52.558Z</time></trkpt><trkpt lat="43.535435" lon="13.25882"><ele>70.0</ele><time>2026-04-04T06:47:53.601Z</time></trkpt><trkpt lat="43.53536" lon="13.2588033"><ele>70.0</ele><time>2026-04-04T06:47:54.564Z</time></trkpt><trkpt lat="43.535285" lon="13.2588267"><ele>70.0</ele><time>2026-04-04T06:47:55.569Z</time></trkpt><trkpt lat="43.5351983" lon="13.258875"><ele>70.0</ele><time>2026-04-04T06:47:56.567Z</time></trkpt><trkpt lat="43.5350967" lon="13.2589383"><ele>70.0</ele><time>2026-04-04T06:47:57.571Z</time></trkpt><trkpt lat="43.5349583" lon="13.258985"><ele>70.0</ele><time>2026-04-04T06:47:58.563Z</time></trkpt><trkpt lat="43.534805" lon="13.2589917"><ele>70.0</ele><time>2026-04-04T06:47:59.576Z</time></trkpt><trkpt lat="43.5346467" lon="13.2589817"><ele>68.66666666666666</ele><time>2026-04-04T06:48:00.574Z</time></trkpt><trkpt lat="43.534475" lon="13.2589783"><ele>67.33333333333333</ele><time>2026-04-04T06:48:01.574Z</time></trkpt><trkpt lat="43.5343033" lon="13.2589833"><ele>66.0</ele><time>2026-04-04T06:48:02.563Z</time></trkpt><trkpt lat="43.5341217" lon="13.2589867"><ele>66.0</ele><time>2026-04-04T06:48:03.573Z</time></trkpt><trkpt lat="43.533935" lon="13.2589883"><ele>66.0</ele><time>2026-04-04T06:48:04.565Z</time></trkpt><trkpt lat="43.5337433" lon="13.2589917"><ele>66.0</ele><time>2026-04-04T06:48:05.618Z</time></trkpt><trkpt lat="43.533555" lon="13.2589933"><ele>65.33333333333333</ele><time>2026-04-04T06:48:06.571Z</time></trkpt><trkpt lat="43.5333683" lon="13.258995"><ele>64.66666666666666</ele><time>2026-04-04T06:48:07.575Z</time></trkpt><trkpt lat="43.533185" lon="13.2589983"><ele>64.0</ele><time>2026-04-04T06:48:08.575Z</time></trkpt><trkpt lat="43.533005" lon="13.2589967"><ele>63.666666666666664</ele><time>2026-04-04T06:48:09.58Z</time></trkpt><trkpt lat="43.5328267" lon="13.2589967"><ele>63.33333333333333</ele><time>2026-04-04T06:48:10.581Z</time></trkpt><trkpt lat="43.53265" lon="13.2589967"><ele>63.0</ele><time>2026-04-04T06:48:11.605Z</time></trkpt><trkpt lat="43.53247" lon="13.2589967"><ele>63.0</ele><time>2026-04-04T06:48:12.571Z</time></trkpt><trkpt lat="43.5322933" lon="13.2589983"><ele>63.0</ele><time>2026-04-04T06:48:13.574Z</time></trkpt><trkpt lat="43.5321183" lon="13.259"><ele>63.0</ele><time>2026-04-04T06:48:14.576Z</time></trkpt><trkpt lat="43.531945" lon="13.2590033"><ele>63.0</ele><time>2026-04-04T06:48:15.573Z</time></trkpt><trkpt lat="43.531775" lon="13.2590033"><ele>63.0</ele><time>2026-04-04T06:48:16.57Z</time></trkpt><trkpt lat="43.531615" lon="13.259"><ele>63.0</ele><time>2026-04-04T06:48:17.62Z</time></trkpt><trkpt lat="43.5314617" lon="13.259"><ele>63.0</ele><time>2026-04-04T06:48:18.572Z</time></trkpt><trkpt lat="43.5313133" lon="13.2590017"><ele>63.0</ele><time>2026-04-04T06:48:19.571Z</time></trkpt><trkpt lat="43.53118" lon="13.2590083"><ele>63.0</ele><time>2026-04-04T06:48:20.57Z</time></trkpt><trkpt lat="43.5310483" lon="13.2590067"><ele>63.0</ele><time>2026-04-04T06:48:21.576Z</time></trkpt><trkpt lat="43.5309133" lon="13.2590117"><ele>63.25</ele><time>2026-04-04T06:48:22.57Z</time></trkpt><trkpt lat="43.5307783" lon="13.259015"><ele>63.5</ele><time>2026-04-04T06:48:23.615Z</time></trkpt><trkpt lat="43.5306517" lon="13.25902"><ele>63.75</ele><time>2026-04-04T06:48:24.571Z</time></trkpt><trkpt lat="43.5305383" lon="13.25903"><ele>64.0</ele><time>2026-04-04T06:48:25.573Z</time></trkpt><trkpt lat="43.5304283" lon="13.259045"><ele>64.16666666666666</ele><time>2026-04-04T06:48:26.572Z</time></trkpt><trkpt lat="43.5303367" lon="13.2590733"><ele>64.33333333333333</ele><time>2026-04-04T06:48:27.574Z</time></trkpt><trkpt lat="43.5302733" lon="13.25911"><ele>64.5</ele><time>2026-04-04T06:48:28.574Z</time></trkpt><trkpt lat="43.53021" lon="13.2591567"><ele>64.66666666666667</ele><time>2026-04-04T06:48:30.578Z</time></trkpt><trkpt lat="43.5301333" lon="13.2591733"><ele>64.83333333333334</ele><time>2026-04-04T06:48:36.568Z</time></trkpt><trkpt lat="43.5300533" lon="13.2591483"><ele>65.0</ele><time>2026-04-04T06:48:38.576Z</time></trkpt><trkpt lat="43.529925" lon="13.2591317"><ele>65.0</ele><time>2026-04-04T06:48:40.571Z</time></trkpt><trkpt lat="43.5298483" lon="13.25915"><ele>65.0</ele><time>2026-04-04T06:48:41.609Z</time></trkpt><trkpt lat="43.5297783" lon="13.2591633"><ele>65.0</ele><time>2026-04-04T06:48:42.57Z</time></trkpt><trkpt lat="43.52971" lon="13.2591767"><ele>65.0</ele><time>2026-04-04T06:48:43.572Z</time></trkpt><trkpt lat="43.5295867" lon="13.259135"><ele>65.0</ele><time>2026-04-04T06:48:45.574Z</time></trkpt><trkpt lat="43.52952" lon="13.259095"><ele>65.0</ele><time>2026-04-04T06:48:46.569Z</time></trkpt><trkpt lat="43.5294433" lon="13.2590383"><ele>64.75</ele><time>2026-04-04T06:48:47.609Z</time></trkpt><trkpt lat="43.5293533" lon="13.2589567"><ele>64.5</ele><time>2026-04-04T06:48:48.576Z</time></trkpt><trkpt lat="43.5292617" lon="13.258865"><ele>64.25</ele><time>2026-04-04T06:48:49.57Z</time></trkpt><trkpt lat="43.5291667" lon="13.258765"><ele>64.0</ele><time>2026-04-04T06:48:50.57Z</time></trkpt><trkpt lat="43.5290767" lon="13.2586483"><ele>64.0</ele><time>2026-04-04T06:48:51.575Z</time></trkpt><trkpt lat="43.52898" lon="13.2585267"><ele>64.0</ele><time>2026-04-04T06:48:52.573Z</time></trkpt><trkpt lat="43.5288867" lon="13.2583917"><ele>64.0</ele><time>2026-04-04T06:48:53.615Z</time></trkpt><trkpt lat="43.528785" lon="13.2582583"><ele>64.0</ele><time>2026-04-04T06:48:54.573Z</time></trkpt><trkpt lat="43.5286733" lon="13.2581133"><ele>63.666666666666664</ele><time>2026-04-04T06:48:55.57Z</time></trkpt><trkpt lat="43.528555" lon="13.2579667"><ele>63.33333333333333</ele><time>2026-04-04T06:48:56.574Z</time></trkpt><trkpt lat="43.52844" lon="13.257815"><ele>63.0</ele><time>2026-04-04T06:48:57.571Z</time></trkpt><trkpt lat="43.5283267" lon="13.2576633"><ele>63.0</ele><time>2026-04-04T06:48:58.572Z</time></trkpt><trkpt lat="43.5282167" lon="13.25752"><ele>63.0</ele><time>2026-04-04T06:48:59.573Z</time></trkpt><trkpt lat="43.528115" lon="13.25738"><ele>63.0</ele><time>2026-04-04T06:49:00.562Z</time></trkpt><trkpt lat="43.528015" lon="13.2572433"><ele>63.0</ele><time>2026-04-04T06:49:01.575Z</time></trkpt><trkpt lat="43.52792" lon="13.257115"><ele>63.2</ele><time>2026-04-04T06:49:02.57Z</time></trkpt><trkpt lat="43.5278283" lon="13.2569933"><ele>63.4</ele><time>2026-04-04T06:49:03.58Z</time></trkpt><trkpt lat="43.527745" lon="13.2568867"><ele>63.60000000000001</ele><time>2026-04-04T06:49:04.574Z</time></trkpt><trkpt lat="43.5276667" lon="13.2567883"><ele>63.800000000000004</ele><time>2026-04-04T06:49:05.608Z</time></trkpt><trkpt lat="43.527595" lon="13.2566967"><ele>64.0</ele><time>2026-04-04T06:49:06.574Z</time></trkpt><trkpt lat="43.5275333" lon="13.2566"><ele>63.99999999999999</ele><time>2026-04-04T06:49:07.571Z</time></trkpt><trkpt lat="43.5274883" lon="13.256505"><ele>64.0</ele><time>2026-04-04T06:49:08.578Z</time></trkpt><trkpt lat="43.5274567" lon="13.25641"><ele>64.0</ele><time>2026-04-04T06:49:09.575Z</time></trkpt><trkpt lat="43.5274167" lon="13.25632"><ele>64.0</ele><time>2026-04-04T06:49:10.57Z</time></trkpt><trkpt lat="43.5273733" lon="13.2562417"><ele>63.99999999999999</ele><time>2026-04-04T06:49:11.604Z</time></trkpt><trkpt lat="43.527315" lon="13.2561767"><ele>64.0</ele><time>2026-04-04T06:49:12.568Z</time></trkpt><trkpt lat="43.52725" lon="13.256115"><ele>64.0</ele><time>2026-04-04T06:49:13.569Z</time></trkpt><trkpt lat="43.527185" lon="13.2560467"><ele>64.0</ele><time>2026-04-04T06:49:14.57Z</time></trkpt><trkpt lat="43.5271183" lon="13.2559567"><ele>64.0</ele><time>2026-04-04T06:49:15.568Z</time></trkpt><trkpt lat="43.5270483" lon="13.2558683"><ele>64.0</ele><time>2026-04-04T06:49:16.573Z</time></trkpt><trkpt lat="43.526975" lon="13.2557717"><ele>64.0</ele><time>2026-04-04T06:49:17.619Z</time></trkpt><trkpt lat="43.526895" lon="13.2556633"><ele>64.5</ele><time>2026-04-04T06:49:18.569Z</time></trkpt><trkpt lat="43.5268117" lon="13.2555467"><ele>65.0</ele><time>2026-04-04T06:49:19.571Z</time></trkpt><trkpt lat="43.5267233" lon="13.25543"><ele>65.5</ele><time>2026-04-04T06:49:20.567Z</time></trkpt><trkpt lat="43.52663" lon="13.2553117"><ele>66.0</ele><time>2026-04-04T06:49:21.574Z</time></trkpt><trkpt lat="43.5265383" lon="13.2551883"><ele>66.0</ele><time>2026-04-04T06:49:22.564Z</time></trkpt><trkpt lat="43.526445" lon="13.2550667"><ele>66.0</ele><time>2026-04-04T06:49:23.616Z</time></trkpt><trkpt lat="43.5263483" lon="13.25495"><ele>66.0</ele><time>2026-04-04T06:49:24.574Z</time></trkpt><trkpt lat="43.526255" lon="13.2548317"><ele>66.0</ele><time>2026-04-04T06:49:25.562Z</time></trkpt><trkpt lat="43.5261617" lon="13.254715"><ele>65.5</ele><time>2026-04-04T06:49:26.572Z</time></trkpt><trkpt lat="43.5260683" lon="13.2545983"><ele>65.0</ele><time>2026-04-04T06:49:27.57Z</time></trkpt><trkpt lat="43.5259733" lon="13.2544833"><ele>64.5</ele><time>2026-04-04T06:49:28.574Z</time></trkpt><trkpt lat="43.5258783" lon="13.25437"><ele>64.0</ele><time>2026-04-04T06:49:29.61Z</time></trkpt><trkpt lat="43.5257883" lon="13.254255"><ele>64.0</ele><time>2026-04-04T06:49:30.564Z</time></trkpt><trkpt lat="43.5257033" lon="13.25414"><ele>64.0</ele><time>2026-04-04T06:49:31.573Z</time></trkpt><trkpt lat="43.5256167" lon="13.25403"><ele>64.0</ele><time>2026-04-04T06:49:32.573Z</time></trkpt><trkpt lat="43.5255283" lon="13.2539167"><ele>64.0</ele><time>2026-04-04T06:49:33.575Z</time></trkpt><trkpt lat="43.52544" lon="13.2537967"><ele>64.5</ele><time>2026-04-04T06:49:34.569Z</time></trkpt><trkpt lat="43.52535" lon="13.2536767"><ele>65.0</ele><time>2026-04-04T06:49:35.607Z</time></trkpt><trkpt lat="43.5252583" lon="13.2535583"><ele>65.5</ele><time>2026-04-04T06:49:36.572Z</time></trkpt><trkpt lat="43.52517" lon="13.253445"><ele>66.0</ele><time>2026-04-04T06:49:37.567Z</time></trkpt><trkpt lat="43.5250833" lon="13.253335"><ele>66.0</ele><time>2026-04-04T06:49:38.563Z</time></trkpt><trkpt lat="43.5249967" lon="13.2532233"><ele>66.0</ele><time>2026-04-04T06:49:39.578Z</time></trkpt><trkpt lat="43.5249033" lon="13.2531033"><ele>66.0</ele><time>2026-04-04T06:49:40.56Z</time></trkpt><trkpt lat="43.5247933" lon="13.252975"><ele>66.0</ele><time>2026-04-04T06:49:41.617Z</time></trkpt><trkpt lat="43.5246783" lon="13.2528383"><ele>66.75</ele><time>2026-04-04T06:49:42.574Z</time></trkpt><trkpt lat="43.524555" lon="13.2527217"><ele>67.5</ele><time>2026-04-04T06:49:43.57Z</time></trkpt><trkpt lat="43.5244367" lon="13.252615"><ele>68.25</ele><time>2026-04-04T06:49:44.571Z</time></trkpt><trkpt lat="43.5243183" lon="13.2525183"><ele>69.0</ele><time>2026-04-04T06:49:45.571Z</time></trkpt><trkpt lat="43.524205" lon="13.2524217"><ele>69.0</ele><time>2026-04-04T06:49:46.574Z</time></trkpt><trkpt lat="43.524105" lon="13.2523267"><ele>69.0</ele><time>2026-04-04T06:49:47.61Z</time></trkpt><trkpt lat="43.5240133" lon="13.2522483"><ele>69.0</ele><time>2026-04-04T06:49:48.571Z</time></trkpt><trkpt lat="43.5239417" lon="13.25218"><ele>69.0</ele><time>2026-04-04T06:49:49.569Z</time></trkpt><trkpt lat="43.5238867" lon="13.25211"><ele>69.0</ele><time>2026-04-04T06:49:50.564Z</time></trkpt><trkpt lat="43.5238367" lon="13.2520317"><ele>68.4</ele><time>2026-04-04T06:49:51.568Z</time></trkpt><trkpt lat="43.5237867" lon="13.2519417"><ele>67.80000000000001</ele><time>2026-04-04T06:49:52.561Z</time></trkpt><trkpt lat="43.5237317" lon="13.2518517"><ele>67.19999999999999</ele><time>2026-04-04T06:49:53.624Z</time></trkpt><trkpt lat="43.5236483" lon="13.251775"><ele>66.6</ele><time>2026-04-04T06:49:54.569Z</time></trkpt><trkpt lat="43.5235467" lon="13.2516983"><ele>66.0</ele><time>2026-04-04T06:49:55.57Z</time></trkpt><trkpt lat="43.523445" lon="13.2516017"><ele>65.75</ele><time>2026-04-04T06:49:56.571Z</time></trkpt><trkpt lat="43.5233467" lon="13.2515"><ele>65.5</ele><time>2026-04-04T06:49:57.571Z</time></trkpt><trkpt lat="43.5232533" lon="13.2514"><ele>65.25</ele><time>2026-04-04T06:49:58.58Z</time></trkpt><trkpt lat="43.5231667" lon="13.2513067"><ele>65.0</ele><time>2026-04-04T06:49:59.606Z</time></trkpt><trkpt lat="43.523085" lon="13.2512233"><ele>65.33333333333334</ele><time>2026-04-04T06:50:00.571Z</time></trkpt><trkpt lat="43.52301" lon="13.251145"><ele>65.66666666666667</ele><time>2026-04-04T06:50:01.559Z</time></trkpt><trkpt lat="43.5229417" lon="13.2510717"><ele>66.0</ele><time>2026-04-04T06:50:02.57Z</time></trkpt><trkpt lat="43.52288" lon="13.251005"><ele>66.33333333333333</ele><time>2026-04-04T06:50:03.567Z</time></trkpt><trkpt lat="43.52282" lon="13.25095"><ele>66.66666666666666</ele><time>2026-04-04T06:50:04.574Z</time></trkpt><trkpt lat="43.5227617" lon="13.250895"><ele>67.0</ele><time>2026-04-04T06:50:05.605Z</time></trkpt><trkpt lat="43.5227083" lon="13.2508467"><ele>67.0</ele><time>2026-04-04T06:50:06.564Z</time></trkpt><trkpt lat="43.5226267" lon="13.25075"><ele>67.0</ele><time>2026-04-04T06:50:08.563Z</time></trkpt><trkpt lat="43.5225717" lon="13.250675"><ele>67.0</ele><time>2026-04-04T06:50:10.571Z</time></trkpt><trkpt lat="43.5225233" lon="13.2505983"><ele>67.0</ele><time>2026-04-04T06:50:14.571Z</time></trkpt><trkpt lat="43.52246" lon="13.2505417"><ele>67.0</ele><time>2026-04-04T06:50:17.609Z</time></trkpt><trkpt lat="43.52239" lon="13.2504733"><ele>67.0</ele><time>2026-04-04T06:50:19.581Z</time></trkpt><trkpt lat="43.5222883" lon="13.2504217"><ele>67.2</ele><time>2026-04-04T06:50:21.571Z</time></trkpt><trkpt lat="43.5222133" lon="13.2503983"><ele>67.4</ele><time>2026-04-04T06:50:22.569Z</time></trkpt><trkpt lat="43.5221183" lon="13.250355"><ele>67.6</ele><time>2026-04-04T06:50:23.6Z</time></trkpt><trkpt lat="43.522025" lon="13.2502983"><ele>67.8</ele><time>2026-04-04T06:50:24.569Z</time></trkpt><trkpt lat="43.5219267" lon="13.250235"><ele>68.0</ele><time>2026-04-04T06:50:25.568Z</time></trkpt><trkpt lat="43.5218317" lon="13.2501667"><ele>68.2</ele><time>2026-04-04T06:50:26.575Z</time></trkpt><trkpt lat="43.521745" lon="13.2500983"><ele>68.4</ele><time>2026-04-04T06:50:27.573Z</time></trkpt><trkpt lat="43.5216683" lon="13.2500267"><ele>68.60000000000001</ele><time>2026-04-04T06:50:28.565Z</time></trkpt><trkpt lat="43.5215933" lon="13.24996"><ele>68.8</ele><time>2026-04-04T06:50:29.592Z</time></trkpt><trkpt lat="43.5215233" lon="13.2498733"><ele>69.0</ele><time>2026-04-04T06:50:30.562Z</time></trkpt><trkpt lat="43.521465" lon="13.249785"><ele>69.0</ele><time>2026-04-04T06:50:31.569Z</time></trkpt><trkpt lat="43.521415" lon="13.2496883"><ele>69.0</ele><time>2026-04-04T06:50:32.564Z</time></trkpt><trkpt lat="43.5213833" lon="13.24961"><ele>69.0</ele><time>2026-04-04T06:50:33.568Z</time></trkpt><trkpt lat="43.521315" lon="13.24949"><ele>69.0</ele><time>2026-04-04T06:50:35.616Z</time></trkpt><trkpt lat="43.5212733" lon="13.249385"><ele>69.0</ele><time>2026-04-04T06:50:37.576Z</time></trkpt><trkpt lat="43.521225" lon="13.249285"><ele>69.0</ele><time>2026-04-04T06:50:39.577Z</time></trkpt><trkpt lat="43.5211717" lon="13.2492"><ele>69.0</ele><time>2026-04-04T06:50:41.603Z</time></trkpt><trkpt lat="43.5210967" lon="13.2491183"><ele>69.0</ele><time>2026-04-04T06:50:43.57Z</time></trkpt><trkpt lat="43.52104" lon="13.249055"><ele>69.0</ele><time>2026-04-04T06:50:44.578Z</time></trkpt><trkpt lat="43.5209733" lon="13.2489617"><ele>69.0</ele><time>2026-04-04T06:50:45.574Z</time></trkpt><trkpt lat="43.5209" lon="13.2488483"><ele>69.0</ele><time>2026-04-04T06:50:46.559Z</time></trkpt><trkpt lat="43.52083" lon="13.248715"><ele>69.25</ele><time>2026-04-04T06:50:47.614Z</time></trkpt><trkpt lat="43.5207467" lon="13.2485717"><ele>69.5</ele><time>2026-04-04T06:50:48.577Z</time></trkpt><trkpt lat="43.5206567" lon="13.248445"><ele>69.75</ele><time>2026-04-04T06:50:49.577Z</time></trkpt><trkpt lat="43.5205833" lon="13.2483267"><ele>70.0</ele><time>2026-04-04T06:50:50.567Z</time></trkpt><trkpt lat="43.5205" lon="13.2482033"><ele>70.0</ele><time>2026-04-04T06:50:51.575Z</time></trkpt><trkpt lat="43.5204133" lon="13.2480683"><ele>70.0</ele><time>2026-04-04T06:50:52.572Z</time></trkpt><trkpt lat="43.5203283" lon="13.2479283"><ele>70.0</ele><time>2026-04-04T06:50:53.602Z</time></trkpt><trkpt lat="43.5202367" lon="13.2478"><ele>70.0</ele><time>2026-04-04T06:50:54.573Z</time></trkpt><trkpt lat="43.5201567" lon="13.2476567"><ele>70.0</ele><time>2026-04-04T06:50:55.573Z</time></trkpt><trkpt lat="43.52006" lon="13.2475267"><ele>70.0</ele><time>2026-04-04T06:50:56.569Z</time></trkpt><trkpt lat="43.519975" lon="13.2473717"><ele>70.0</ele><time>2026-04-04T06:50:57.571Z</time></trkpt><trkpt lat="43.5198833" lon="13.2472217"><ele>70.0</ele><time>2026-04-04T06:50:58.57Z</time></trkpt><trkpt lat="43.519795" lon="13.2470667"><ele>70.0</ele><time>2026-04-04T06:50:59.606Z</time></trkpt><trkpt lat="43.5196967" lon="13.2469317"><ele>70.0</ele><time>2026-04-04T06:51:00.575Z</time></trkpt><trkpt lat="43.5196083" lon="13.24679"><ele>70.0</ele><time>2026-04-04T06:51:01.57Z</time></trkpt><trkpt lat="43.5195217" lon="13.2466583"><ele>70.0</ele><time>2026-04-04T06:51:02.561Z</time></trkpt><trkpt lat="43.5194433" lon="13.2465283"><ele>70.2</ele><time>2026-04-04T06:51:03.572Z</time></trkpt><trkpt lat="43.5193683" lon="13.2464167"><ele>70.4</ele><time>2026-04-04T06:51:04.572Z</time></trkpt><trkpt lat="43.5192883" lon="13.24632"><ele>70.6</ele><time>2026-04-04T06:51:05.608Z</time></trkpt><trkpt lat="43.5192117" lon="13.246215"><ele>70.8</ele><time>2026-04-04T06:51:06.563Z</time></trkpt><trkpt lat="43.5191317" lon="13.246105"><ele>71.0</ele><time>2026-04-04T06:51:07.571Z</time></trkpt><trkpt lat="43.5190533" lon="13.245995"><ele>71.0</ele><time>2026-04-04T06:51:08.574Z</time></trkpt><trkpt lat="43.5189817" lon="13.24587"><ele>71.0</ele><time>2026-04-04T06:51:09.573Z</time></trkpt><trkpt lat="43.5189067" lon="13.2457483"><ele>71.0</ele><time>2026-04-04T06:51:10.573Z</time></trkpt><trkpt lat="43.5188317" lon="13.24562"><ele>71.0</ele><time>2026-04-04T06:51:11.608Z</time></trkpt><trkpt lat="43.51876" lon="13.24548"><ele>71.5</ele><time>2026-04-04T06:51:12.56Z</time></trkpt><trkpt lat="43.51869" lon="13.2453383"><ele>72.0</ele><time>2026-04-04T06:51:13.572Z</time></trkpt><trkpt lat="43.5186267" lon="13.2451967"><ele>72.5</ele><time>2026-04-04T06:51:14.571Z</time></trkpt><trkpt lat="43.5185633" lon="13.245065"><ele>73.0</ele><time>2026-04-04T06:51:15.573Z</time></trkpt><trkpt lat="43.5185017" lon="13.2449433"><ele>73.0</ele><time>2026-04-04T06:51:16.571Z</time></trkpt><trkpt lat="43.5184433" lon="13.24482"><ele>73.0</ele><time>2026-04-04T06:51:17.607Z</time></trkpt><trkpt lat="43.5183883" lon="13.2447083"><ele>73.0</ele><time>2026-04-04T06:51:18.571Z</time></trkpt><trkpt lat="43.518335" lon="13.24461"><ele>73.0</ele><time>2026-04-04T06:51:19.573Z</time></trkpt><trkpt lat="43.518295" lon="13.2445133"><ele>73.0</ele><time>2026-04-04T06:51:20.572Z</time></trkpt><trkpt lat="43.5182533" lon="13.2444217"><ele>73.0</ele><time>2026-04-04T06:51:21.572Z</time></trkpt><trkpt lat="43.5182" lon="13.24433"><ele>73.0</ele><time>2026-04-04T06:51:22.576Z</time></trkpt><trkpt lat="43.518135" lon="13.2442067"><ele>73.0</ele><time>2026-04-04T06:51:23.617Z</time></trkpt><trkpt lat="43.5180533" lon="13.2440867"><ele>73.0</ele><time>2026-04-04T06:51:24.573Z</time></trkpt><trkpt lat="43.51795" lon="13.2439483"><ele>73.0</ele><time>2026-04-04T06:51:25.569Z</time></trkpt><trkpt lat="43.517845" lon="13.2438183"><ele>73.0</ele><time>2026-04-04T06:51:26.571Z</time></trkpt><trkpt lat="43.51773" lon="13.2436883"><ele>73.0</ele><time>2026-04-04T06:51:27.57Z</time></trkpt><trkpt lat="43.517615" lon="13.243565"><ele>73.0</ele><time>2026-04-04T06:51:28.571Z</time></trkpt><trkpt lat="43.5174983" lon="13.243445"><ele>73.0</ele><time>2026-04-04T06:51:29.573Z</time></trkpt><trkpt lat="43.5173817" lon="13.2433367"><ele>73.0</ele><time>2026-04-04T06:51:30.565Z</time></trkpt><trkpt lat="43.51726" lon="13.2432333"><ele>73.0</ele><time>2026-04-04T06:51:31.571Z</time></trkpt><trkpt lat="43.5171533" lon="13.2431017"><ele>73.0</ele><time>2026-04-04T06:51:32.572Z</time></trkpt><trkpt lat="43.5170517" lon="13.2429583"><ele>73.5</ele><time>2026-04-04T06:51:33.573Z</time></trkpt><trkpt lat="43.5169567" lon="13.24281"><ele>74.0</ele><time>2026-04-04T06:51:34.561Z</time></trkpt><trkpt lat="43.5168617" lon="13.242665"><ele>74.5</ele><time>2026-04-04T06:51:35.601Z</time></trkpt><trkpt lat="43.5167833" lon="13.24251"><ele>75.0</ele><time>2026-04-04T06:51:36.573Z</time></trkpt><trkpt lat="43.5167283" lon="13.2423433"><ele>75.0</ele><time>2026-04-04T06:51:37.581Z</time></trkpt><trkpt lat="43.5166783" lon="13.242195"><ele>75.0</ele><time>2026-04-04T06:51:38.577Z</time></trkpt><trkpt lat="43.516635" lon="13.2420567"><ele>75.0</ele><time>2026-04-04T06:51:39.571Z</time></trkpt><trkpt lat="43.516595" lon="13.2419233"><ele>75.0</ele><time>2026-04-04T06:51:40.565Z</time></trkpt><trkpt lat="43.516565" lon="13.2417967"><ele>75.0</ele><time>2026-04-04T06:51:41.604Z</time></trkpt><trkpt lat="43.5165583" lon="13.2416717"><ele>75.0</ele><time>2026-04-04T06:51:42.569Z</time></trkpt><trkpt lat="43.5165483" lon="13.2415533"><ele>75.0</ele><time>2026-04-04T06:51:43.571Z</time></trkpt><trkpt lat="43.516535" lon="13.2414383"><ele>75.0</ele><time>2026-04-04T06:51:44.572Z</time></trkpt><trkpt lat="43.5165067" lon="13.2413283"><ele>75.0</ele><time>2026-04-04T06:51:45.572Z</time></trkpt><trkpt lat="43.51645" lon="13.2412383"><ele>75.0</ele><time>2026-04-04T06:51:46.579Z</time></trkpt><trkpt lat="43.516365" lon="13.2411567"><ele>75.0</ele><time>2026-04-04T06:51:47.61Z</time></trkpt><trkpt lat="43.5162733" lon="13.241065"><ele>75.0</ele><time>2026-04-04T06:51:48.57Z</time></trkpt><trkpt lat="43.5161783" lon="13.240955"><ele>75.0</ele><time>2026-04-04T06:51:49.572Z</time></trkpt><trkpt lat="43.51608" lon="13.24083"><ele>75.0</ele><time>2026-04-04T06:51:50.575Z</time></trkpt><trkpt lat="43.5159817" lon="13.2406967"><ele>75.0</ele><time>2026-04-04T06:51:51.575Z</time></trkpt><trkpt lat="43.5158883" lon="13.2405667"><ele>75.0</ele><time>2026-04-04T06:51:52.572Z</time></trkpt><trkpt lat="43.5158033" lon="13.2404383"><ele>75.0</ele><time>2026-04-04T06:51:53.585Z</time></trkpt><trkpt lat="43.515725" lon="13.2403117"><ele>75.0</ele><time>2026-04-04T06:51:54.57Z</time></trkpt><trkpt lat="43.5156533" lon="13.24019"><ele>75.0</ele><time>2026-04-04T06:51:55.571Z</time></trkpt><trkpt lat="43.51559" lon="13.2400983"><ele>75.0</ele><time>2026-04-04T06:51:56.572Z</time></trkpt><trkpt lat="43.515535" lon="13.2400283"><ele>75.0</ele><time>2026-04-04T06:51:57.577Z</time></trkpt><trkpt lat="43.5154833" lon="13.239965"><ele>75.0</ele><time>2026-04-04T06:51:58.574Z</time></trkpt><trkpt lat="43.5154267" lon="13.23983"><ele>75.0</ele><time>2026-04-04T06:52:00.568Z</time></trkpt><trkpt lat="43.5153617" lon="13.2396767"><ele>75.0</ele><time>2026-04-04T06:52:02.578Z</time></trkpt><trkpt lat="43.5153217" lon="13.2396017"><ele>75.5</ele><time>2026-04-04T06:52:03.567Z</time></trkpt><trkpt lat="43.5152733" lon="13.2395183"><ele>76.0</ele><time>2026-04-04T06:52:04.573Z</time></trkpt><trkpt lat="43.515215" lon="13.23944"><ele>76.5</ele><time>2026-04-04T06:52:05.612Z</time></trkpt><trkpt lat="43.5151567" lon="13.2393483"><ele>77.0</ele><time>2026-04-04T06:52:06.57Z</time></trkpt><trkpt lat="43.5151" lon="13.23925"><ele>77.5</ele><time>2026-04-04T06:52:07.572Z</time></trkpt><trkpt lat="43.51504" lon="13.239145"><ele>78.0</ele><time>2026-04-04T06:52:08.576Z</time></trkpt><trkpt lat="43.5149783" lon="13.2390367"><ele>78.4</ele><time>2026-04-04T06:52:09.57Z</time></trkpt><trkpt lat="43.514915" lon="13.2389267"><ele>78.8</ele><time>2026-04-04T06:52:10.575Z</time></trkpt><trkpt lat="43.51485" lon="13.238825"><ele>79.2</ele><time>2026-04-04T06:52:11.61Z</time></trkpt><trkpt lat="43.51478" lon="13.2387267"><ele>79.6</ele><time>2026-04-04T06:52:12.57Z</time></trkpt><trkpt lat="43.5147133" lon="13.2386267"><ele>80.0</ele><time>2026-04-04T06:52:13.574Z</time></trkpt><trkpt lat="43.514655" lon="13.2385233"><ele>80.0</ele><time>2026-04-04T06:52:14.574Z</time></trkpt><trkpt lat="43.514595" lon="13.2384217"><ele>80.0</ele><time>2026-04-04T06:52:15.574Z</time></trkpt><trkpt lat="43.5145317" lon="13.2383233"><ele>80.0</ele><time>2026-04-04T06:52:16.57Z</time></trkpt><trkpt lat="43.5144667" lon="13.238225"><ele>80.0</ele><time>2026-04-04T06:52:17.613Z</time></trkpt><trkpt lat="43.5144033" lon="13.2381233"><ele>80.0</ele><time>2026-04-04T06:52:18.571Z</time></trkpt><trkpt lat="43.5143383" lon="13.2380233"><ele>79.5</ele><time>2026-04-04T06:52:19.571Z</time></trkpt><trkpt lat="43.5142733" lon="13.2379133"><ele>79.0</ele><time>2026-04-04T06:52:20.579Z</time></trkpt><trkpt lat="43.5142017" lon="13.2377967"><ele>78.5</ele><time>2026-04-04T06:52:21.578Z</time></trkpt><trkpt lat="43.5141267" lon="13.2376667"><ele>78.0</ele><time>2026-04-04T06:52:22.574Z</time></trkpt><trkpt lat="43.5140467" lon="13.2375283"><ele>78.0</ele><time>2026-04-04T06:52:23.622Z</time></trkpt><trkpt lat="43.5139667" lon="13.2373967"><ele>78.0</ele><time>2026-04-04T06:52:24.574Z</time></trkpt><trkpt lat="43.513885" lon="13.2372683"><ele>78.0</ele><time>2026-04-04T06:52:25.573Z</time></trkpt><trkpt lat="43.51381" lon="13.2371417"><ele>78.0</ele><time>2026-04-04T06:52:26.573Z</time></trkpt><trkpt lat="43.5137333" lon="13.2370133"><ele>78.0</ele><time>2026-04-04T06:52:27.569Z</time></trkpt><trkpt lat="43.513665" lon="13.2368983"><ele>78.0</ele><time>2026-04-04T06:52:28.57Z</time></trkpt><trkpt lat="43.513605" lon="13.2368017"><ele>78.0</ele><time>2026-04-04T06:52:29.601Z</time></trkpt><trkpt lat="43.5135567" lon="13.2367117"><ele>78.0</ele><time>2026-04-04T06:52:30.571Z</time></trkpt><trkpt lat="43.51352" lon="13.2366383"><ele>78.0</ele><time>2026-04-04T06:52:31.573Z</time></trkpt><trkpt lat="43.5134733" lon="13.2365267"><ele>78.0</ele><time>2026-04-04T06:52:33.57Z</time></trkpt><trkpt lat="43.5133983" lon="13.2364483"><ele>78.0</ele><time>2026-04-04T06:52:42.574Z</time></trkpt><trkpt lat="43.5133417" lon="13.2363667"><ele>78.0</ele><time>2026-04-04T06:52:43.57Z</time></trkpt><trkpt lat="43.513275" lon="13.2362683"><ele>78.0</ele><time>2026-04-04T06:52:44.575Z</time></trkpt><trkpt lat="43.513195" lon="13.2361667"><ele>78.0</ele><time>2026-04-04T06:52:45.57Z</time></trkpt><trkpt lat="43.513105" lon="13.23605"><ele>78.0</ele><time>2026-04-04T06:52:46.574Z</time></trkpt><trkpt lat="43.513015" lon="13.2359367"><ele>78.0</ele><time>2026-04-04T06:52:47.606Z</time></trkpt><trkpt lat="43.512925" lon="13.2358117"><ele>78.0</ele><time>2026-04-04T06:52:48.57Z</time></trkpt><trkpt lat="43.51283" lon="13.2356783"><ele>78.0</ele><time>2026-04-04T06:52:49.572Z</time></trkpt><trkpt lat="43.51274" lon="13.2355417"><ele>78.0</ele><time>2026-04-04T06:52:50.575Z</time></trkpt><trkpt lat="43.5126417" lon="13.23541"><ele>78.0</ele><time>2026-04-04T06:52:51.574Z</time></trkpt><trkpt lat="43.5125567" lon="13.2352617"><ele>78.0</ele><time>2026-04-04T06:52:52.563Z</time></trkpt><trkpt lat="43.5124767" lon="13.2350983"><ele>78.0</ele><time>2026-04-04T06:52:53.572Z</time></trkpt><trkpt lat="43.5123967" lon="13.23493"><ele>78.0</ele><time>2026-04-04T06:52:54.571Z</time></trkpt><trkpt lat="43.5123133" lon="13.2347567"><ele>78.0</ele><time>2026-04-04T06:52:55.576Z</time></trkpt><trkpt lat="43.51223" lon="13.2345867"><ele>78.0</ele><time>2026-04-04T06:52:56.571Z</time></trkpt><trkpt lat="43.5121517" lon="13.23441"><ele>78.0</ele><time>2026-04-04T06:52:57.574Z</time></trkpt><trkpt lat="43.5120733" lon="13.2342367"><ele>78.0</ele><time>2026-04-04T06:52:58.566Z</time></trkpt><trkpt lat="43.512" lon="13.2340633"><ele>78.5</ele><time>2026-04-04T06:52:59.599Z</time></trkpt><trkpt lat="43.511925" lon="13.2338933"><ele>79.0</ele><time>2026-04-04T06:53:00.57Z</time></trkpt><trkpt lat="43.5118567" lon="13.23373"><ele>79.5</ele><time>2026-04-04T06:53:01.57Z</time></trkpt><trkpt lat="43.5117883" lon="13.233575"><ele>80.0</ele><time>2026-04-04T06:53:02.572Z</time></trkpt><trkpt lat="43.511725" lon="13.2334417"><ele>80.0</ele><time>2026-04-04T06:53:03.576Z</time></trkpt><trkpt lat="43.5116817" lon="13.2333217"><ele>80.0</ele><time>2026-04-04T06:53:04.559Z</time></trkpt><trkpt lat="43.5116467" lon="13.2331833"><ele>80.0</ele><time>2026-04-04T06:53:05.611Z</time></trkpt><trkpt lat="43.511605" lon="13.233035"><ele>80.0</ele><time>2026-04-04T06:53:06.568Z</time></trkpt><trkpt lat="43.5115583" lon="13.2328883"><ele>80.0</ele><time>2026-04-04T06:53:07.572Z</time></trkpt><trkpt lat="43.5114933" lon="13.23273"><ele>80.33333333333334</ele><time>2026-04-04T06:53:08.57Z</time></trkpt><trkpt lat="43.51142" lon="13.23254"><ele>80.66666666666667</ele><time>2026-04-04T06:53:09.571Z</time></trkpt><trkpt lat="43.5113467" lon="13.2323417"><ele>81.0</ele><time>2026-04-04T06:53:10.574Z</time></trkpt><trkpt lat="43.51127" lon="13.232135"><ele>81.66666666666667</ele><time>2026-04-04T06:53:11.605Z</time></trkpt><trkpt lat="43.5111967" lon="13.2319217"><ele>82.33333333333334</ele><time>2026-04-04T06:53:12.573Z</time></trkpt><trkpt lat="43.511125" lon="13.23171"><ele>83.0</ele><time>2026-04-04T06:53:13.57Z</time></trkpt><trkpt lat="43.5110517" lon="13.2315"><ele>84.0</ele><time>2026-04-04T06:53:14.57Z</time></trkpt><trkpt lat="43.5109767" lon="13.231295"><ele>85.0</ele><time>2026-04-04T06:53:15.573Z</time></trkpt><trkpt lat="43.5109033" lon="13.2311"><ele>86.0</ele><time>2026-04-04T06:53:16.572Z</time></trkpt><trkpt lat="43.5108333" lon="13.23092"><ele>86.0</ele><time>2026-04-04T06:53:17.611Z</time></trkpt><trkpt lat="43.51077" lon="13.2307533"><ele>86.0</ele><time>2026-04-04T06:53:18.571Z</time></trkpt><trkpt lat="43.5107183" lon="13.2305967"><ele>86.0</ele><time>2026-04-04T06:53:19.57Z</time></trkpt><trkpt lat="43.510675" lon="13.23046"><ele>86.0</ele><time>2026-04-04T06:53:20.572Z</time></trkpt><trkpt lat="43.5106583" lon="13.2303333"><ele>86.0</ele><time>2026-04-04T06:53:21.573Z</time></trkpt><trkpt lat="43.5106483" lon="13.2302033"><ele>86.0</ele><time>2026-04-04T06:53:22.563Z</time></trkpt><trkpt lat="43.5106183" lon="13.230075"><ele>86.0</ele><time>2026-04-04T06:53:23.61Z</time></trkpt><trkpt lat="43.51058" lon="13.229945"><ele>86.0</ele><time>2026-04-04T06:53:24.57Z</time></trkpt><trkpt lat="43.51052" lon="13.22982"><ele>86.0</ele><time>2026-04-04T06:53:25.571Z</time></trkpt><trkpt lat="43.510445" lon="13.22969"><ele>85.33333333333334</ele><time>2026-04-04T06:53:26.572Z</time></trkpt><trkpt lat="43.51035" lon="13.2295417"><ele>84.66666666666667</ele><time>2026-04-04T06:53:27.573Z</time></trkpt><trkpt lat="43.5102483" lon="13.2293617"><ele>84.0</ele><time>2026-04-04T06:53:28.574Z</time></trkpt><trkpt lat="43.5101267" lon="13.22917"><ele>84.33333333333333</ele><time>2026-04-04T06:53:29.619Z</time></trkpt><trkpt lat="43.51" lon="13.2289717"><ele>84.66666666666666</ele><time>2026-04-04T06:53:30.571Z</time></trkpt><trkpt lat="43.50987" lon="13.22877"><ele>85.0</ele><time>2026-04-04T06:53:31.572Z</time></trkpt><trkpt lat="43.5097467" lon="13.2285683"><ele>85.0</ele><time>2026-04-04T06:53:32.576Z</time></trkpt><trkpt lat="43.5096317" lon="13.2283533"><ele>85.0</ele><time>2026-04-04T06:53:33.574Z</time></trkpt><trkpt lat="43.5095233" lon="13.2281367"><ele>85.0</ele><time>2026-04-04T06:53:34.567Z</time></trkpt><trkpt lat="43.5094183" lon="13.227915"><ele>85.0</ele><time>2026-04-04T06:53:35.611Z</time></trkpt><trkpt lat="43.5093267" lon="13.2276883"><ele>85.0</ele><time>2026-04-04T06:53:36.566Z</time></trkpt><trkpt lat="43.5092533" lon="13.2274567"><ele>85.0</ele><time>2026-04-04T06:53:37.57Z</time></trkpt><trkpt lat="43.5091967" lon="13.2272167"><ele>85.0</ele><time>2026-04-04T06:53:38.578Z</time></trkpt><trkpt lat="43.509155" lon="13.2269733"><ele>85.0</ele><time>2026-04-04T06:53:39.576Z</time></trkpt><trkpt lat="43.50912" lon="13.22673"><ele>85.0</ele><time>2026-04-04T06:53:40.573Z</time></trkpt><trkpt lat="43.5090967" lon="13.2264767"><ele>85.0</ele><time>2026-04-04T06:53:41.605Z</time></trkpt><trkpt lat="43.5090767" lon="13.22623"><ele>85.0</ele><time>2026-04-04T06:53:42.565Z</time></trkpt><trkpt lat="43.5090483" lon="13.2259883"><ele>85.0</ele><time>2026-04-04T06:53:43.567Z</time></trkpt><trkpt lat="43.50901" lon="13.22575"><ele>87.33333333333333</ele><time>2026-04-04T06:53:44.568Z</time></trkpt><trkpt lat="43.5089683" lon="13.2255033"><ele>89.66666666666667</ele><time>2026-04-04T06:53:45.566Z</time></trkpt><trkpt lat="43.5089017" lon="13.2252767"><ele>92.0</ele><time>2026-04-04T06:53:46.568Z</time></trkpt><trkpt lat="43.5088267" lon="13.2250533"><ele>92.0</ele><time>2026-04-04T06:53:47.602Z</time></trkpt><trkpt lat="43.5087517" lon="13.2248333"><ele>92.0</ele><time>2026-04-04T06:53:48.568Z</time></trkpt><trkpt lat="43.508675" lon="13.2246167"><ele>92.0</ele><time>2026-04-04T06:53:49.57Z</time></trkpt><trkpt lat="43.5086" lon="13.2244017"><ele>92.0</ele><time>2026-04-04T06:53:50.564Z</time></trkpt><trkpt lat="43.508525" lon="13.224185"><ele>92.0</ele><time>2026-04-04T06:53:51.564Z</time></trkpt><trkpt lat="43.50845" lon="13.2239733"><ele>92.0</ele><time>2026-04-04T06:53:52.572Z</time></trkpt><trkpt lat="43.5083783" lon="13.22376"><ele>92.0</ele><time>2026-04-04T06:53:53.593Z</time></trkpt><trkpt lat="43.5083167" lon="13.2235417"><ele>92.0</ele><time>2026-04-04T06:53:54.562Z</time></trkpt><trkpt lat="43.5082633" lon="13.22332"><ele>92.0</ele><time>2026-04-04T06:53:55.57Z</time></trkpt><trkpt lat="43.508215" lon="13.2230967"><ele>94.33333333333334</ele><time>2026-04-04T06:53:56.571Z</time></trkpt><trkpt lat="43.50816" lon="13.22288"><ele>96.66666666666667</ele><time>2026-04-04T06:53:57.571Z</time></trkpt><trkpt lat="43.5080983" lon="13.22267"><ele>99.0</ele><time>2026-04-04T06:53:58.576Z</time></trkpt><trkpt lat="43.508025" lon="13.2224667"><ele>100.66666666666666</ele><time>2026-04-04T06:53:59.605Z</time></trkpt><trkpt lat="43.5079483" lon="13.2222617"><ele>102.33333333333333</ele><time>2026-04-04T06:54:00.575Z</time></trkpt><trkpt lat="43.5078733" lon="13.222055"><ele>104.0</ele><time>2026-04-04T06:54:01.571Z</time></trkpt><trkpt lat="43.507805" lon="13.2218467"><ele>102.0</ele><time>2026-04-04T06:54:02.567Z</time></trkpt><trkpt lat="43.5077367" lon="13.22164"><ele>100.0</ele><time>2026-04-04T06:54:03.574Z</time></trkpt><trkpt lat="43.5076717" lon="13.2214333"><ele>98.0</ele><time>2026-04-04T06:54:04.572Z</time></trkpt><trkpt lat="43.5076083" lon="13.2212233"><ele>98.0</ele><time>2026-04-04T06:54:05.606Z</time></trkpt><trkpt lat="43.5075467" lon="13.2210117"><ele>98.0</ele><time>2026-04-04T06:54:06.573Z</time></trkpt><trkpt lat="43.5074867" lon="13.2207983"><ele>98.0</ele><time>2026-04-04T06:54:07.573Z</time></trkpt><trkpt lat="43.5074267" lon="13.220585"><ele>98.33333333333333</ele><time>2026-04-04T06:54:08.57Z</time></trkpt><trkpt lat="43.5073717" lon="13.22037"><ele>98.66666666666666</ele><time>2026-04-04T06:54:09.572Z</time></trkpt><trkpt lat="43.5073283" lon="13.2201483"><ele>99.0</ele><time>2026-04-04T06:54:10.573Z</time></trkpt><trkpt lat="43.5072967" lon="13.219925"><ele>97.33333333333333</ele><time>2026-04-04T06:54:11.606Z</time></trkpt><trkpt lat="43.5072733" lon="13.2196983"><ele>95.66666666666666</ele><time>2026-04-04T06:54:12.574Z</time></trkpt><trkpt lat="43.5072433" lon="13.2194767"><ele>94.0</ele><time>2026-04-04T06:54:13.57Z</time></trkpt><trkpt lat="43.5072183" lon="13.2192517"><ele>94.0</ele><time>2026-04-04T06:54:14.571Z</time></trkpt><trkpt lat="43.5071867" lon="13.2190233"><ele>94.0</ele><time>2026-04-04T06:54:15.58Z</time></trkpt><trkpt lat="43.5071533" lon="13.2187883"><ele>94.0</ele><time>2026-04-04T06:54:16.567Z</time></trkpt><trkpt lat="43.50712" lon="13.2185517"><ele>95.0</ele><time>2026-04-04T06:54:17.604Z</time></trkpt><trkpt lat="43.5070867" lon="13.2183167"><ele>96.0</ele><time>2026-04-04T06:54:18.577Z</time></trkpt><trkpt lat="43.5070517" lon="13.2180867"><ele>97.0</ele><time>2026-04-04T06:54:19.574Z</time></trkpt><trkpt lat="43.50702" lon="13.2178583"><ele>94.66666666666667</ele><time>2026-04-04T06:54:20.569Z</time></trkpt><trkpt lat="43.50699" lon="13.2176317"><ele>92.33333333333334</ele><time>2026-04-04T06:54:21.58Z</time></trkpt><trkpt lat="43.5069583" lon="13.2174"><ele>90.0</ele><time>2026-04-04T06:54:22.576Z</time></trkpt><trkpt lat="43.5069233" lon="13.21717"><ele>90.0</ele><time>2026-04-04T06:54:23.604Z</time></trkpt><trkpt lat="43.5068933" lon="13.2169467"><ele>90.0</ele><time>2026-04-04T06:54:24.569Z</time></trkpt><trkpt lat="43.5068583" lon="13.2167267"><ele>90.0</ele><time>2026-04-04T06:54:25.572Z</time></trkpt><trkpt lat="43.5068233" lon="13.2164983"><ele>91.33333333333333</ele><time>2026-04-04T06:54:26.564Z</time></trkpt><trkpt lat="43.506795" lon="13.2162683"><ele>92.66666666666666</ele><time>2026-04-04T06:54:27.572Z</time></trkpt><trkpt lat="43.5067667" lon="13.2160467"><ele>94.0</ele><time>2026-04-04T06:54:28.566Z</time></trkpt><trkpt lat="43.5067333" lon="13.215835"><ele>94.5</ele><time>2026-04-04T06:54:29.615Z</time></trkpt><trkpt lat="43.5067" lon="13.2156283"><ele>95.0</ele><time>2026-04-04T06:54:30.571Z</time></trkpt><trkpt lat="43.5066683" lon="13.2154333"><ele>95.5</ele><time>2026-04-04T06:54:31.573Z</time></trkpt><trkpt lat="43.506635" lon="13.2152533"><ele>96.0</ele><time>2026-04-04T06:54:32.572Z</time></trkpt><trkpt lat="43.5066033" lon="13.2150967"><ele>96.0</ele><time>2026-04-04T06:54:33.571Z</time></trkpt><trkpt lat="43.5065667" lon="13.2149667"><ele>96.0</ele><time>2026-04-04T06:54:34.573Z</time></trkpt><trkpt lat="43.5065183" lon="13.2148967"><ele>96.0</ele><time>2026-04-04T06:54:35.608Z</time></trkpt><trkpt lat="43.5064083" lon="13.2148283"><ele>96.0</ele><time>2026-04-04T06:54:37.575Z</time></trkpt><trkpt lat="43.5063467" lon="13.21486"><ele>96.0</ele><time>2026-04-04T06:54:38.572Z</time></trkpt><trkpt lat="43.506265" lon="13.2149533"><ele>96.0</ele><time>2026-04-04T06:54:40.57Z</time></trkpt><trkpt lat="43.506225" lon="13.2150517"><ele>96.0</ele><time>2026-04-04T06:54:42.572Z</time></trkpt><trkpt lat="43.506235" lon="13.21518"><ele>96.0</ele><time>2026-04-04T06:54:46.571Z</time></trkpt><trkpt lat="43.5062217" lon="13.2152733"><ele>96.0</ele><time>2026-04-04T06:54:48.572Z</time></trkpt><trkpt lat="43.50621" lon="13.21537"><ele>96.0</ele><time>2026-04-04T06:54:52.572Z</time></trkpt><trkpt lat="43.506295" lon="13.215285"><ele>96.0</ele><time>2026-04-04T06:55:51.568Z</time></trkpt><trkpt lat="43.5063383" lon="13.2153883"><ele>96.0</ele><time>2026-04-04T07:00:02.576Z</time></trkpt><trkpt lat="43.5063917" lon="13.2154883"><ele>96.0</ele><time>2026-04-04T07:00:04.571Z</time></trkpt><trkpt lat="43.50651" lon="13.2155333"><ele>96.0</ele><time>2026-04-04T07:00:06.574Z</time></trkpt><trkpt lat="43.5066" lon="13.21553"><ele>96.0</ele><time>2026-04-04T07:00:08.572Z</time></trkpt><trkpt lat="43.506635" lon="13.2154467"><ele>96.0</ele><time>2026-04-04T07:00:21.57Z</time></trkpt><trkpt lat="43.5066217" lon="13.2153133"><ele>96.0</ele><time>2026-04-04T07:00:23.622Z</time></trkpt><trkpt lat="43.5065867" lon="13.215155"><ele>96.0</ele><time>2026-04-04T07:00:24.572Z</time></trkpt><trkpt lat="43.5065567" lon="13.2149717"><ele>96.0</ele><time>2026-04-04T07:00:25.571Z</time></trkpt><trkpt lat="43.5065417" lon="13.21481"><ele>96.0</ele><time>2026-04-04T07:00:26.571Z</time></trkpt><trkpt lat="43.5065167" lon="13.2146233"><ele>96.0</ele><time>2026-04-04T07:00:27.575Z</time></trkpt><trkpt lat="43.5064933" lon="13.2144233"><ele>96.0</ele><time>2026-04-04T07:00:28.564Z</time></trkpt><trkpt lat="43.5064683" lon="13.2142133"><ele>96.0</ele><time>2026-04-04T07:00:29.615Z</time></trkpt><trkpt lat="43.5064483" lon="13.214025"><ele>96.0</ele><time>2026-04-04T07:00:30.573Z</time></trkpt><trkpt lat="43.5064217" lon="13.2138367"><ele>96.0</ele><time>2026-04-04T07:00:31.57Z</time></trkpt><trkpt lat="43.506395" lon="13.213665"><ele>96.0</ele><time>2026-04-04T07:00:32.564Z</time></trkpt><trkpt lat="43.5063633" lon="13.2135133"><ele>96.0</ele><time>2026-04-04T07:00:33.575Z</time></trkpt><trkpt lat="43.5063317" lon="13.2133833"><ele>96.0</ele><time>2026-04-04T07:00:34.571Z</time></trkpt><trkpt lat="43.5062917" lon="13.2132833"><ele>96.0</ele><time>2026-04-04T07:00:35.612Z</time></trkpt><trkpt lat="43.5062533" lon="13.2131817"><ele>94.19999999999999</ele><time>2026-04-04T07:00:36.562Z</time></trkpt><trkpt lat="43.5062267" lon="13.2130583"><ele>92.39999999999999</ele><time>2026-04-04T07:00:37.573Z</time></trkpt><trkpt lat="43.5062117" lon="13.2129067"><ele>90.6</ele><time>2026-04-04T07:00:38.578Z</time></trkpt><trkpt lat="43.5061967" lon="13.2127367"><ele>88.8</ele><time>2026-04-04T07:00:39.575Z</time></trkpt><trkpt lat="43.506185" lon="13.2125717"><ele>87.0</ele><time>2026-04-04T07:00:40.571Z</time></trkpt><trkpt lat="43.50617" lon="13.21242"><ele>87.5</ele><time>2026-04-04T07:00:41.613Z</time></trkpt><trkpt lat="43.50615" lon="13.2122867"><ele>88.0</ele><time>2026-04-04T07:00:42.569Z</time></trkpt><trkpt lat="43.5061233" lon="13.2121667"><ele>88.5</ele><time>2026-04-04T07:00:43.572Z</time></trkpt><trkpt lat="43.5060683" lon="13.212085"><ele>89.0</ele><time>2026-04-04T07:00:44.572Z</time></trkpt><trkpt lat="43.5060083" lon="13.2120117"><ele>89.5</ele><time>2026-04-04T07:00:45.571Z</time></trkpt><trkpt lat="43.5059233" lon="13.2119983"><ele>90.0</ele><time>2026-04-04T07:00:46.571Z</time></trkpt><trkpt lat="43.5058383" lon="13.2120067"><ele>90.0</ele><time>2026-04-04T07:00:47.618Z</time></trkpt><trkpt lat="43.5057617" lon="13.2120567"><ele>90.0</ele><time>2026-04-04T07:00:48.57Z</time></trkpt><trkpt lat="43.50573" lon="13.21222"><ele>90.0</ele><time>2026-04-04T07:00:49.575Z</time></trkpt><trkpt lat="43.5057" lon="13.2123567"><ele>90.0</ele><time>2026-04-04T07:00:50.573Z</time></trkpt><trkpt lat="43.5056933" lon="13.2125183"><ele>90.0</ele><time>2026-04-04T07:00:51.566Z</time></trkpt><trkpt lat="43.5057067" lon="13.2126883"><ele>89.4</ele><time>2026-04-04T07:00:52.566Z</time></trkpt><trkpt lat="43.5057267" lon="13.2128517"><ele>88.8</ele><time>2026-04-04T07:00:53.621Z</time></trkpt><trkpt lat="43.5057417" lon="13.2129983"><ele>88.19999999999999</ele><time>2026-04-04T07:00:54.571Z</time></trkpt><trkpt lat="43.5057583" lon="13.2131333"><ele>87.6</ele><time>2026-04-04T07:00:55.573Z</time></trkpt><trkpt lat="43.5057583" lon="13.21326"><ele>87.0</ele><time>2026-04-04T07:00:56.568Z</time></trkpt><trkpt lat="43.5057467" lon="13.2133867"><ele>87.0</ele><time>2026-04-04T07:00:57.573Z</time></trkpt><trkpt lat="43.50572" lon="13.2135083"><ele>87.0</ele><time>2026-04-04T07:00:58.569Z</time></trkpt><trkpt lat="43.50567" lon="13.2136167"><ele>87.0</ele><time>2026-04-04T07:00:59.603Z</time></trkpt><trkpt lat="43.5055633" lon="13.2136967"><ele>87.0</ele><time>2026-04-04T07:01:00.56Z</time></trkpt><trkpt lat="43.5054467" lon="13.2137733"><ele>87.0</ele><time>2026-04-04T07:01:01.567Z</time></trkpt><trkpt lat="43.5053233" lon="13.2138617"><ele>86.33333333333333</ele><time>2026-04-04T07:01:02.568Z</time></trkpt><trkpt lat="43.5051917" lon="13.2139533"><ele>85.66666666666666</ele><time>2026-04-04T07:01:03.574Z</time></trkpt><trkpt lat="43.5050533" lon="13.2140483"><ele>85.0</ele><time>2026-04-04T07:01:04.563Z</time></trkpt><trkpt lat="43.5049033" lon="13.2141383"><ele>84.33333333333333</ele><time>2026-04-04T07:01:05.617Z</time></trkpt><trkpt lat="43.50475" lon="13.2142217"><ele>83.66666666666667</ele><time>2026-04-04T07:01:06.573Z</time></trkpt><trkpt lat="43.50459" lon="13.2143017"><ele>83.0</ele><time>2026-04-04T07:01:07.572Z</time></trkpt><trkpt lat="43.504435" lon="13.2143783"><ele>82.33333333333334</ele><time>2026-04-04T07:01:08.57Z</time></trkpt><trkpt lat="43.5042783" lon="13.2144483"><ele>81.66666666666667</ele><time>2026-04-04T07:01:09.572Z</time></trkpt><trkpt lat="43.5041267" lon="13.2145183"><ele>81.0</ele><time>2026-04-04T07:01:10.561Z</time></trkpt><trkpt lat="43.5039767" lon="13.2145817"><ele>81.0</ele><time>2026-04-04T07:01:11.612Z</time></trkpt><trkpt lat="43.5038217" lon="13.2146517"><ele>81.0</ele><time>2026-04-04T07:01:12.568Z</time></trkpt><trkpt lat="43.5036633" lon="13.2147183"><ele>81.0</ele><time>2026-04-04T07:01:13.569Z</time></trkpt><trkpt lat="43.503525" lon="13.2147883"><ele>81.0</ele><time>2026-04-04T07:01:14.567Z</time></trkpt><trkpt lat="43.5033717" lon="13.2148567"><ele>81.0</ele><time>2026-04-04T07:01:15.571Z</time></trkpt><trkpt lat="43.5032167" lon="13.21493"><ele>81.0</ele><time>2026-04-04T07:01:16.57Z</time></trkpt><trkpt lat="43.5030633" lon="13.215005"><ele>80.33333333333333</ele><time>2026-04-04T07:01:17.613Z</time></trkpt><trkpt lat="43.502905" lon="13.21508"><ele>79.66666666666666</ele><time>2026-04-04T07:01:18.571Z</time></trkpt><trkpt lat="43.5027417" lon="13.2151533"><ele>79.0</ele><time>2026-04-04T07:01:19.573Z</time></trkpt><trkpt lat="43.5025817" lon="13.2152267"><ele>79.0</ele><time>2026-04-04T07:01:20.571Z</time></trkpt><trkpt lat="43.50242" lon="13.2152867"><ele>79.0</ele><time>2026-04-04T07:01:21.573Z</time></trkpt><trkpt lat="43.5022583" lon="13.2153433"><ele>79.0</ele><time>2026-04-04T07:01:22.57Z</time></trkpt><trkpt lat="43.5020933" lon="13.2153917"><ele>77.0</ele><time>2026-04-04T07:01:23.62Z</time></trkpt><trkpt lat="43.5019333" lon="13.2154417"><ele>75.0</ele><time>2026-04-04T07:01:24.57Z</time></trkpt><trkpt lat="43.501775" lon="13.21549"><ele>73.0</ele><time>2026-04-04T07:01:25.571Z</time></trkpt><trkpt lat="43.5016183" lon="13.2155383"><ele>73.0</ele><time>2026-04-04T07:01:26.561Z</time></trkpt><trkpt lat="43.5014617" lon="13.2155917"><ele>73.0</ele><time>2026-04-04T07:01:27.576Z</time></trkpt><trkpt lat="43.5013067" lon="13.21564"><ele>73.0</ele><time>2026-04-04T07:01:28.567Z</time></trkpt><trkpt lat="43.5011533" lon="13.2156883"><ele>72.0</ele><time>2026-04-04T07:01:29.609Z</time></trkpt><trkpt lat="43.5010017" lon="13.2157367"><ele>71.0</ele><time>2026-04-04T07:01:30.57Z</time></trkpt><trkpt lat="43.50085" lon="13.21578"><ele>70.0</ele><time>2026-04-04T07:01:31.572Z</time></trkpt><trkpt lat="43.5006967" lon="13.215825"><ele>70.0</ele><time>2026-04-04T07:01:32.568Z</time></trkpt><trkpt lat="43.5005433" lon="13.2158633"><ele>70.0</ele><time>2026-04-04T07:01:33.573Z</time></trkpt><trkpt lat="43.5003917" lon="13.2159083"><ele>70.0</ele><time>2026-04-04T07:01:34.574Z</time></trkpt><trkpt lat="43.5002467" lon="13.2159467"><ele>70.0</ele><time>2026-04-04T07:01:35.611Z</time></trkpt><trkpt lat="43.500105" lon="13.2159883"><ele>70.0</ele><time>2026-04-04T07:01:36.57Z</time></trkpt><trkpt lat="43.4999633" lon="13.2160233"><ele>70.0</ele><time>2026-04-04T07:01:37.572Z</time></trkpt><trkpt lat="43.499815" lon="13.2160633"><ele>70.0</ele><time>2026-04-04T07:01:38.569Z</time></trkpt><trkpt lat="43.4996667" lon="13.2161017"><ele>70.75</ele><time>2026-04-04T07:01:39.57Z</time></trkpt><trkpt lat="43.4995283" lon="13.21614"><ele>71.5</ele><time>2026-04-04T07:01:40.569Z</time></trkpt><trkpt lat="43.499405" lon="13.2161717"><ele>72.25</ele><time>2026-04-04T07:01:41.615Z</time></trkpt><trkpt lat="43.499295" lon="13.216195"><ele>73.0</ele><time>2026-04-04T07:01:42.575Z</time></trkpt><trkpt lat="43.4992017" lon="13.216215"><ele>73.0</ele><time>2026-04-04T07:01:43.572Z</time></trkpt><trkpt lat="43.4991183" lon="13.21622"><ele>73.0</ele><time>2026-04-04T07:01:44.566Z</time></trkpt><trkpt lat="43.4990467" lon="13.216215"><ele>73.0</ele><time>2026-04-04T07:01:45.574Z</time></trkpt><trkpt lat="43.49898" lon="13.21621"><ele>73.0</ele><time>2026-04-04T07:01:46.572Z</time></trkpt><trkpt lat="43.4988883" lon="13.2161733"><ele>73.0</ele><time>2026-04-04T07:01:48.569Z</time></trkpt><trkpt lat="43.4987967" lon="13.216105"><ele>73.0</ele><time>2026-04-04T07:01:50.571Z</time></trkpt><trkpt lat="43.4986717" lon="13.2160833"><ele>72.83333333333333</ele><time>2026-04-04T07:01:52.575Z</time></trkpt><trkpt lat="43.4986033" lon="13.21611"><ele>72.66666666666666</ele><time>2026-04-04T07:01:53.621Z</time></trkpt><trkpt lat="43.49854" lon="13.2161583"><ele>72.5</ele><time>2026-04-04T07:01:54.566Z</time></trkpt><trkpt lat="43.498475" lon="13.216225"><ele>72.33333333333333</ele><time>2026-04-04T07:01:55.572Z</time></trkpt><trkpt lat="43.4983967" lon="13.2163067"><ele>72.16666666666667</ele><time>2026-04-04T07:01:56.571Z</time></trkpt><trkpt lat="43.498305" lon="13.2163833"><ele>72.0</ele><time>2026-04-04T07:01:57.574Z</time></trkpt><trkpt lat="43.498205" lon="13.21644"><ele>72.0</ele><time>2026-04-04T07:01:58.571Z</time></trkpt><trkpt lat="43.4980983" lon="13.2164667"><ele>72.0</ele><time>2026-04-04T07:01:59.615Z</time></trkpt><trkpt lat="43.49798" lon="13.216475"><ele>72.0</ele><time>2026-04-04T07:02:00.569Z</time></trkpt><trkpt lat="43.4978467" lon="13.2164683"><ele>72.0</ele><time>2026-04-04T07:02:01.564Z</time></trkpt><trkpt lat="43.497705" lon="13.216455"><ele>71.66666666666667</ele><time>2026-04-04T07:02:02.571Z</time></trkpt><trkpt lat="43.4975517" lon="13.2164367"><ele>71.33333333333334</ele><time>2026-04-04T07:02:03.571Z</time></trkpt><trkpt lat="43.4973983" lon="13.2164167"><ele>71.0</ele><time>2026-04-04T07:02:04.573Z</time></trkpt><trkpt lat="43.4972417" lon="13.2163917"><ele>71.0</ele><time>2026-04-04T07:02:05.616Z</time></trkpt><trkpt lat="43.4970967" lon="13.2163633"><ele>71.0</ele><time>2026-04-04T07:02:06.571Z</time></trkpt><trkpt lat="43.49696" lon="13.2163383"><ele>71.0</ele><time>2026-04-04T07:02:07.572Z</time></trkpt><trkpt lat="43.4968283" lon="13.2163217"><ele>71.0</ele><time>2026-04-04T07:02:08.572Z</time></trkpt><trkpt lat="43.4967017" lon="13.2163067"><ele>71.0</ele><time>2026-04-04T07:02:09.572Z</time></trkpt><trkpt lat="43.49658" lon="13.21629"><ele>71.0</ele><time>2026-04-04T07:02:10.571Z</time></trkpt><trkpt lat="43.4964567" lon="13.2162733"><ele>71.0</ele><time>2026-04-04T07:02:11.617Z</time></trkpt><trkpt lat="43.4963317" lon="13.2162583"><ele>71.0</ele><time>2026-04-04T07:02:12.566Z</time></trkpt><trkpt lat="43.496205" lon="13.2162433"><ele>71.0</ele><time>2026-04-04T07:02:13.571Z</time></trkpt><trkpt lat="43.4960783" lon="13.2162267"><ele>71.0</ele><time>2026-04-04T07:02:14.569Z</time></trkpt><trkpt lat="43.495955" lon="13.216205"><ele>71.0</ele><time>2026-04-04T07:02:15.574Z</time></trkpt><trkpt lat="43.4958367" lon="13.2161833"><ele>71.0</ele><time>2026-04-04T07:02:16.575Z</time></trkpt><trkpt lat="43.49572" lon="13.2161683"><ele>71.0</ele><time>2026-04-04T07:02:17.616Z</time></trkpt><trkpt lat="43.4956067" lon="13.216155"><ele>71.0</ele><time>2026-04-04T07:02:18.558Z</time></trkpt><trkpt lat="43.4954983" lon="13.216155"><ele>71.0</ele><time>2026-04-04T07:02:19.569Z</time></trkpt><trkpt lat="43.4953867" lon="13.2161833"><ele>71.0</ele><time>2026-04-04T07:02:20.579Z</time></trkpt><trkpt lat="43.4952683" lon="13.2162333"><ele>71.25</ele><time>2026-04-04T07:02:21.57Z</time></trkpt><trkpt lat="43.4951533" lon="13.2163133"><ele>71.5</ele><time>2026-04-04T07:02:22.573Z</time></trkpt><trkpt lat="43.49504" lon="13.216405"><ele>71.75</ele><time>2026-04-04T07:02:23.622Z</time></trkpt><trkpt lat="43.494925" lon="13.21649"><ele>72.0</ele><time>2026-04-04T07:02:24.571Z</time></trkpt><trkpt lat="43.4948017" lon="13.2165717"><ele>72.5</ele><time>2026-04-04T07:02:25.566Z</time></trkpt><trkpt lat="43.4946767" lon="13.2166583"><ele>73.0</ele><time>2026-04-04T07:02:26.579Z</time></trkpt><trkpt lat="43.4945533" lon="13.2167517"><ele>73.5</ele><time>2026-04-04T07:02:27.568Z</time></trkpt><trkpt lat="43.494435" lon="13.2168417"><ele>74.0</ele><time>2026-04-04T07:02:28.574Z</time></trkpt><trkpt lat="43.49432" lon="13.2169317"><ele>74.25</ele><time>2026-04-04T07:02:29.601Z</time></trkpt><trkpt lat="43.4942033" lon="13.217025"><ele>74.5</ele><time>2026-04-04T07:02:30.569Z</time></trkpt><trkpt lat="43.4940933" lon="13.2171083"><ele>74.75</ele><time>2026-04-04T07:02:31.568Z</time></trkpt><trkpt lat="43.4939867" lon="13.2171983"><ele>75.0</ele><time>2026-04-04T07:02:32.578Z</time></trkpt><trkpt lat="43.4938817" lon="13.2172883"><ele>75.5</ele><time>2026-04-04T07:02:33.573Z</time></trkpt><trkpt lat="43.4937717" lon="13.21738"><ele>76.0</ele><time>2026-04-04T07:02:34.572Z</time></trkpt><trkpt lat="43.4936617" lon="13.2174667"><ele>76.5</ele><time>2026-04-04T07:02:35.614Z</time></trkpt><trkpt lat="43.493555" lon="13.21755"><ele>77.0</ele><time>2026-04-04T07:02:36.567Z</time></trkpt><trkpt lat="43.493445" lon="13.21763"><ele>77.5</ele><time>2026-04-04T07:02:37.573Z</time></trkpt><trkpt lat="43.4933417" lon="13.21771"><ele>78.0</ele><time>2026-04-04T07:02:38.573Z</time></trkpt><trkpt lat="43.4932417" lon="13.2177933"><ele>78.5</ele><time>2026-04-04T07:02:39.574Z</time></trkpt><trkpt lat="43.4931383" lon="13.217875"><ele>79.0</ele><time>2026-04-04T07:02:40.577Z</time></trkpt><trkpt lat="43.4930283" lon="13.21796"><ele>79.0</ele><time>2026-04-04T07:02:41.613Z</time></trkpt><trkpt lat="43.4929183" lon="13.2180483"><ele>79.0</ele><time>2026-04-04T07:02:42.568Z</time></trkpt><trkpt lat="43.49279" lon="13.2181517"><ele>79.0</ele><time>2026-04-04T07:02:43.571Z</time></trkpt><trkpt lat="43.4926533" lon="13.2182617"><ele>79.0</ele><time>2026-04-04T07:02:44.57Z</time></trkpt><trkpt lat="43.492495" lon="13.2183783"><ele>79.0</ele><time>2026-04-04T07:02:45.572Z</time></trkpt><trkpt lat="43.4923267" lon="13.218495"><ele>79.0</ele><time>2026-04-04T07:02:46.568Z</time></trkpt><trkpt lat="43.4921567" lon="13.2186017"><ele>79.0</ele><time>2026-04-04T07:02:47.616Z</time></trkpt><trkpt lat="43.4919983" lon="13.2187067"><ele>79.33333333333333</ele><time>2026-04-04T07:02:48.569Z</time></trkpt><trkpt lat="43.4918483" lon="13.2188083"><ele>79.66666666666667</ele><time>2026-04-04T07:02:49.574Z</time></trkpt><trkpt lat="43.4917117" lon="13.21891"><ele>80.0</ele><time>2026-04-04T07:02:50.561Z</time></trkpt><trkpt lat="43.49159" lon="13.2190033"><ele>80.0</ele><time>2026-04-04T07:02:51.572Z</time></trkpt><trkpt lat="43.49148" lon="13.2190833"><ele>80.0</ele><time>2026-04-04T07:02:52.567Z</time></trkpt><trkpt lat="43.4913767" lon="13.2191467"><ele>80.0</ele><time>2026-04-04T07:02:53.602Z</time></trkpt><trkpt lat="43.4912817" lon="13.2191917"><ele>80.0</ele><time>2026-04-04T07:02:54.568Z</time></trkpt><trkpt lat="43.4911983" lon="13.2192233"><ele>80.0</ele><time>2026-04-04T07:02:55.575Z</time></trkpt><trkpt lat="43.4911333" lon="13.2192467"><ele>80.0</ele><time>2026-04-04T07:02:56.573Z</time></trkpt><trkpt lat="43.4910467" lon="13.219275"><ele>80.0</ele><time>2026-04-04T07:02:58.576Z</time></trkpt><trkpt lat="43.4909567" lon="13.2192917"><ele>80.0</ele><time>2026-04-04T07:03:00.571Z</time></trkpt><trkpt lat="43.490885" lon="13.2193"><ele>80.0</ele><time>2026-04-04T07:03:01.577Z</time></trkpt><trkpt lat="43.490795" lon="13.2193017"><ele>80.0</ele><time>2026-04-04T07:03:02.57Z</time></trkpt><trkpt lat="43.49069" lon="13.21929"><ele>80.0</ele><time>2026-04-04T07:03:03.571Z</time></trkpt><trkpt lat="43.49058" lon="13.2192783"><ele>80.0</ele><time>2026-04-04T07:03:04.576Z</time></trkpt><trkpt lat="43.4904633" lon="13.21925"><ele>80.0</ele><time>2026-04-04T07:03:05.612Z</time></trkpt><trkpt lat="43.4903367" lon="13.2192033"><ele>80.0</ele><time>2026-04-04T07:03:06.571Z</time></trkpt><trkpt lat="43.4902067" lon="13.2191383"><ele>80.0</ele><time>2026-04-04T07:03:07.571Z</time></trkpt><trkpt lat="43.49007" lon="13.2190583"><ele>79.66666666666667</ele><time>2026-04-04T07:03:08.572Z</time></trkpt><trkpt lat="43.4899233" lon="13.2189667"><ele>79.33333333333333</ele><time>2026-04-04T07:03:09.574Z</time></trkpt><trkpt lat="43.4897733" lon="13.2188767"><ele>79.0</ele><time>2026-04-04T07:03:10.569Z</time></trkpt><trkpt lat="43.4896217" lon="13.2187867"><ele>79.33333333333333</ele><time>2026-04-04T07:03:11.62Z</time></trkpt><trkpt lat="43.48947" lon="13.2186917"><ele>79.66666666666667</ele><time>2026-04-04T07:03:12.575Z</time></trkpt><trkpt lat="43.4893183" lon="13.2185983"><ele>80.0</ele><time>2026-04-04T07:03:13.578Z</time></trkpt><trkpt lat="43.48917" lon="13.2184983"><ele>80.0</ele><time>2026-04-04T07:03:14.569Z</time></trkpt><trkpt lat="43.4890233" lon="13.2184017"><ele>80.0</ele><time>2026-04-04T07:03:15.573Z</time></trkpt><trkpt lat="43.4888767" lon="13.2183133"><ele>80.0</ele><time>2026-04-04T07:03:16.575Z</time></trkpt><trkpt lat="43.4887367" lon="13.21823"><ele>80.5</ele><time>2026-04-04T07:03:17.616Z</time></trkpt><trkpt lat="43.48861" lon="13.21815"><ele>81.0</ele><time>2026-04-04T07:03:18.571Z</time></trkpt><trkpt lat="43.4884817" lon="13.21808"><ele>81.5</ele><time>2026-04-04T07:03:19.571Z</time></trkpt><trkpt lat="43.48835" lon="13.2180017"><ele>82.0</ele><time>2026-04-04T07:03:20.575Z</time></trkpt><trkpt lat="43.4882017" lon="13.217925"><ele>82.0</ele><time>2026-04-04T07:03:21.57Z</time></trkpt><trkpt lat="43.488045" lon="13.2178367"><ele>82.0</ele><time>2026-04-04T07:03:22.56Z</time></trkpt><trkpt lat="43.4878883" lon="13.217745"><ele>82.0</ele><time>2026-04-04T07:03:23.612Z</time></trkpt><trkpt lat="43.487735" lon="13.21765"><ele>83.0</ele><time>2026-04-04T07:03:24.559Z</time></trkpt><trkpt lat="43.4875783" lon="13.2175583"><ele>84.0</ele><time>2026-04-04T07:03:25.566Z</time></trkpt><trkpt lat="43.4874133" lon="13.2174733"><ele>85.0</ele><time>2026-04-04T07:03:26.566Z</time></trkpt><trkpt lat="43.487245" lon="13.2173867"><ele>85.66666666666666</ele><time>2026-04-04T07:03:27.573Z</time></trkpt><trkpt lat="43.4870733" lon="13.217305"><ele>86.33333333333333</ele><time>2026-04-04T07:03:28.565Z</time></trkpt><trkpt lat="43.4869033" lon="13.2172183"><ele>87.0</ele><time>2026-04-04T07:03:29.601Z</time></trkpt><trkpt lat="43.486735" lon="13.2171417"><ele>87.0</ele><time>2026-04-04T07:03:30.576Z</time></trkpt><trkpt lat="43.486565" lon="13.2170617"><ele>87.0</ele><time>2026-04-04T07:03:31.571Z</time></trkpt><trkpt lat="43.4863917" lon="13.21699"><ele>87.0</ele><time>2026-04-04T07:03:32.571Z</time></trkpt><trkpt lat="43.4862217" lon="13.2169117"><ele>86.66666666666667</ele><time>2026-04-04T07:03:33.573Z</time></trkpt><trkpt lat="43.48605" lon="13.2168317"><ele>86.33333333333334</ele><time>2026-04-04T07:03:34.572Z</time></trkpt><trkpt lat="43.485875" lon="13.216755"><ele>86.0</ele><time>2026-04-04T07:03:35.617Z</time></trkpt><trkpt lat="43.485705" lon="13.2166617"><ele>86.0</ele><time>2026-04-04T07:03:36.573Z</time></trkpt><trkpt lat="43.485535" lon="13.2165733"><ele>86.0</ele><time>2026-04-04T07:03:37.574Z</time></trkpt><trkpt lat="43.4853667" lon="13.216485"><ele>86.0</ele><time>2026-04-04T07:03:38.573Z</time></trkpt><trkpt lat="43.485195" lon="13.2163983"><ele>85.33333333333334</ele><time>2026-04-04T07:03:39.568Z</time></trkpt><trkpt lat="43.485025" lon="13.2163067"><ele>84.66666666666667</ele><time>2026-04-04T07:03:40.567Z</time></trkpt><trkpt lat="43.4848517" lon="13.2162217"><ele>84.0</ele><time>2026-04-04T07:03:41.621Z</time></trkpt><trkpt lat="43.48468" lon="13.2161383"><ele>85.0</ele><time>2026-04-04T07:03:42.572Z</time></trkpt><trkpt lat="43.4845083" lon="13.216055"><ele>86.0</ele><time>2026-04-04T07:03:43.574Z</time></trkpt><trkpt lat="43.48434" lon="13.2159683"><ele>87.0</ele><time>2026-04-04T07:03:44.563Z</time></trkpt><trkpt lat="43.48417" lon="13.2158867"><ele>87.0</ele><time>2026-04-04T07:03:45.573Z</time></trkpt><trkpt lat="43.4839983" lon="13.21581"><ele>87.0</ele><time>2026-04-04T07:03:46.575Z</time></trkpt><trkpt lat="43.4838283" lon="13.2157283"><ele>87.0</ele><time>2026-04-04T07:03:47.619Z</time></trkpt><trkpt lat="43.48366" lon="13.2156433"><ele>87.33333333333333</ele><time>2026-04-04T07:03:48.574Z</time></trkpt><trkpt lat="43.4834867" lon="13.2155617"><ele>87.66666666666666</ele><time>2026-04-04T07:03:49.571Z</time></trkpt><trkpt lat="43.483315" lon="13.21548"><ele>88.0</ele><time>2026-04-04T07:03:50.569Z</time></trkpt><trkpt lat="43.483145" lon="13.2153983"><ele>88.0</ele><time>2026-04-04T07:03:51.574Z</time></trkpt><trkpt lat="43.4829767" lon="13.2153117"><ele>88.0</ele><time>2026-04-04T07:03:52.573Z</time></trkpt><trkpt lat="43.4828167" lon="13.2152117"><ele>88.0</ele><time>2026-04-04T07:03:53.616Z</time></trkpt><trkpt lat="43.4826617" lon="13.2150967"><ele>88.66666666666666</ele><time>2026-04-04T07:03:54.568Z</time></trkpt><trkpt lat="43.4825183" lon="13.2149633"><ele>89.33333333333333</ele><time>2026-04-04T07:03:55.57Z</time></trkpt><trkpt lat="43.4823883" lon="13.21482"><ele>90.0</ele><time>2026-04-04T07:03:56.574Z</time></trkpt><trkpt lat="43.4822633" lon="13.21467"><ele>90.0</ele><time>2026-04-04T07:03:57.574Z</time></trkpt><trkpt lat="43.48214" lon="13.2145167"><ele>90.0</ele><time>2026-04-04T07:03:58.579Z</time></trkpt><trkpt lat="43.4820217" lon="13.214365"><ele>90.0</ele><time>2026-04-04T07:03:59.573Z</time></trkpt><trkpt lat="43.4819083" lon="13.2142167"><ele>92.33333333333334</ele><time>2026-04-04T07:04:00.571Z</time></trkpt><trkpt lat="43.4817983" lon="13.214075"><ele>94.66666666666667</ele><time>2026-04-04T07:04:01.569Z</time></trkpt><trkpt lat="43.4816883" lon="13.2139367"><ele>97.0</ele><time>2026-04-04T07:04:02.564Z</time></trkpt><trkpt lat="43.4815783" lon="13.213795"><ele>97.0</ele><time>2026-04-04T07:04:03.571Z</time></trkpt><trkpt lat="43.4814717" lon="13.2136533"><ele>97.0</ele><time>2026-04-04T07:04:04.572Z</time></trkpt><trkpt lat="43.4813667" lon="13.2135133"><ele>97.0</ele><time>2026-04-04T07:04:05.618Z</time></trkpt><trkpt lat="43.4812617" lon="13.2133767"><ele>97.0</ele><time>2026-04-04T07:04:06.566Z</time></trkpt><trkpt lat="43.4811583" lon="13.2132433"><ele>98.75</ele><time>2026-04-04T07:04:07.571Z</time></trkpt><trkpt lat="43.4810583" lon="13.2131117"><ele>100.5</ele><time>2026-04-04T07:04:08.577Z</time></trkpt><trkpt lat="43.4809567" lon="13.21298"><ele>102.25</ele><time>2026-04-04T07:04:09.572Z</time></trkpt><trkpt lat="43.4808533" lon="13.2128433"><ele>104.0</ele><time>2026-04-04T07:04:10.566Z</time></trkpt><trkpt lat="43.4807467" lon="13.2127083"><ele>104.0</ele><time>2026-04-04T07:04:11.616Z</time></trkpt><trkpt lat="43.4806317" lon="13.2125783"><ele>104.0</ele><time>2026-04-04T07:04:12.574Z</time></trkpt><trkpt lat="43.4805217" lon="13.2124367"><ele>104.0</ele><time>2026-04-04T07:04:13.573Z</time></trkpt><trkpt lat="43.4804" lon="13.2123333"><ele>104.0</ele><time>2026-04-04T07:04:14.571Z</time></trkpt><trkpt lat="43.4802767" lon="13.212255"><ele>104.75</ele><time>2026-04-04T07:04:15.572Z</time></trkpt><trkpt lat="43.4801533" lon="13.212195"><ele>105.5</ele><time>2026-04-04T07:04:16.572Z</time></trkpt><trkpt lat="43.4800317" lon="13.2121383"><ele>106.25</ele><time>2026-04-04T07:04:17.612Z</time></trkpt><trkpt lat="43.47991" lon="13.21208"><ele>107.0</ele><time>2026-04-04T07:04:18.579Z</time></trkpt><trkpt lat="43.47979" lon="13.212025"><ele>107.0</ele><time>2026-04-04T07:04:19.57Z</time></trkpt><trkpt lat="43.47967" lon="13.21198"><ele>107.0</ele><time>2026-04-04T07:04:20.579Z</time></trkpt><trkpt lat="43.4795583" lon="13.21194"><ele>107.0</ele><time>2026-04-04T07:04:21.574Z</time></trkpt><trkpt lat="43.4794467" lon="13.2119217"><ele>107.0</ele><time>2026-04-04T07:04:22.572Z</time></trkpt><trkpt lat="43.479335" lon="13.21192"><ele>109.0</ele><time>2026-04-04T07:04:23.616Z</time></trkpt><trkpt lat="43.4792267" lon="13.21193"><ele>111.0</ele><time>2026-04-04T07:04:24.563Z</time></trkpt><trkpt lat="43.47912" lon="13.2119767"><ele>113.0</ele><time>2026-04-04T07:04:25.574Z</time></trkpt><trkpt lat="43.4790133" lon="13.212055"><ele>115.0</ele><time>2026-04-04T07:04:26.571Z</time></trkpt><trkpt lat="43.4788917" lon="13.21219"><ele>117.0</ele><time>2026-04-04T07:04:27.574Z</time></trkpt><trkpt lat="43.4787567" lon="13.212335"><ele>119.0</ele><time>2026-04-04T07:04:28.572Z</time></trkpt><trkpt lat="43.47862" lon="13.2124817"><ele>121.0</ele><time>2026-04-04T07:04:29.605Z</time></trkpt><trkpt lat="43.4784717" lon="13.212615"><ele>121.0</ele><time>2026-04-04T07:04:30.575Z</time></trkpt><trkpt lat="43.4783133" lon="13.2127183"><ele>121.0</ele><time>2026-04-04T07:04:31.571Z</time></trkpt><trkpt lat="43.4781483" lon="13.2127833"><ele>121.0</ele><time>2026-04-04T07:04:32.569Z</time></trkpt><trkpt lat="43.4779683" lon="13.2127717"><ele>122.66666666666667</ele><time>2026-04-04T07:04:33.571Z</time></trkpt><trkpt lat="43.4777933" lon="13.21273"><ele>124.33333333333334</ele><time>2026-04-04T07:04:34.562Z</time></trkpt><trkpt lat="43.4776183" lon="13.21267"><ele>126.0</ele><time>2026-04-04T07:04:35.614Z</time></trkpt><trkpt lat="43.4774417" lon="13.2125933"><ele>126.0</ele><time>2026-04-04T07:04:36.572Z</time></trkpt><trkpt lat="43.4772583" lon="13.2125133"><ele>126.0</ele><time>2026-04-04T07:04:37.57Z</time></trkpt><trkpt lat="43.4770783" lon="13.2124367"><ele>126.0</ele><time>2026-04-04T07:04:38.571Z</time></trkpt><trkpt lat="43.4769017" lon="13.2123633"><ele>127.0</ele><time>2026-04-04T07:04:39.57Z</time></trkpt><trkpt lat="43.476725" lon="13.2122883"><ele>128.0</ele><time>2026-04-04T07:04:40.572Z</time></trkpt><trkpt lat="43.4765533" lon="13.2122167"><ele>129.0</ele><time>2026-04-04T07:04:41.617Z</time></trkpt><trkpt lat="43.4763867" lon="13.2121483"><ele>132.0</ele><time>2026-04-04T07:04:42.571Z</time></trkpt><trkpt lat="43.47623" lon="13.21208"><ele>135.0</ele><time>2026-04-04T07:04:43.572Z</time></trkpt><trkpt lat="43.4760783" lon="13.2120183"><ele>138.0</ele><time>2026-04-04T07:04:44.569Z</time></trkpt><trkpt lat="43.4759317" lon="13.2119517"><ele>138.0</ele><time>2026-04-04T07:04:45.575Z</time></trkpt><trkpt lat="43.47578" lon="13.2118783"><ele>138.0</ele><time>2026-04-04T07:04:46.57Z</time></trkpt><trkpt lat="43.47563" lon="13.2117917"><ele>138.0</ele><time>2026-04-04T07:04:47.61Z</time></trkpt><trkpt lat="43.4754833" lon="13.2116883"><ele>139.66666666666666</ele><time>2026-04-04T07:04:48.567Z</time></trkpt><trkpt lat="43.47535" lon="13.211575"><ele>141.33333333333331</ele><time>2026-04-04T07:04:49.57Z</time></trkpt><trkpt lat="43.47522" lon="13.21146"><ele>143.0</ele><time>2026-04-04T07:04:50.57Z</time></trkpt><trkpt lat="43.47509" lon="13.2113433"><ele>143.0</ele><time>2026-04-04T07:04:51.569Z</time></trkpt><trkpt lat="43.4749583" lon="13.2112267"><ele>143.0</ele><time>2026-04-04T07:04:52.574Z</time></trkpt><trkpt lat="43.4748167" lon="13.211115"><ele>143.0</ele><time>2026-04-04T07:04:53.626Z</time></trkpt><trkpt lat="43.474665" lon="13.2110183"><ele>146.66666666666666</ele><time>2026-04-04T07:04:54.567Z</time></trkpt><trkpt lat="43.4744967" lon="13.21093"><ele>150.33333333333334</ele><time>2026-04-04T07:04:55.573Z</time></trkpt><trkpt lat="43.47432" lon="13.2108517"><ele>154.0</ele><time>2026-04-04T07:04:56.569Z</time></trkpt><trkpt lat="43.4741367" lon="13.2107817"><ele>154.0</ele><time>2026-04-04T07:04:57.572Z</time></trkpt><trkpt lat="43.4739483" lon="13.2107233"><ele>154.0</ele><time>2026-04-04T07:04:58.572Z</time></trkpt><trkpt lat="43.4737667" lon="13.2106683"><ele>154.0</ele><time>2026-04-04T07:04:59.6Z</time></trkpt><trkpt lat="43.4735867" lon="13.2106133"><ele>156.0</ele><time>2026-04-04T07:05:00.571Z</time></trkpt><trkpt lat="43.473425" lon="13.2105317"><ele>158.0</ele><time>2026-04-04T07:05:01.572Z</time></trkpt><trkpt lat="43.473285" lon="13.210415"><ele>160.0</ele><time>2026-04-04T07:05:02.577Z</time></trkpt><trkpt lat="43.47316" lon="13.2102767"><ele>160.0</ele><time>2026-04-04T07:05:03.574Z</time></trkpt><trkpt lat="43.4730783" lon="13.2100967"><ele>160.0</ele><time>2026-04-04T07:05:04.574Z</time></trkpt><trkpt lat="43.4730033" lon="13.2098983"><ele>160.0</ele><time>2026-04-04T07:05:05.621Z</time></trkpt><trkpt lat="43.4729317" lon="13.2096917"><ele>164.33333333333334</ele><time>2026-04-04T07:05:06.57Z</time></trkpt><trkpt lat="43.4728567" lon="13.2094917"><ele>168.66666666666666</ele><time>2026-04-04T07:05:07.571Z</time></trkpt><trkpt lat="43.4727867" lon="13.2093"><ele>173.0</ele><time>2026-04-04T07:05:08.57Z</time></trkpt><trkpt lat="43.472715" lon="13.2091283"><ele>172.4</ele><time>2026-04-04T07:05:09.573Z</time></trkpt><trkpt lat="43.4726517" lon="13.20897"><ele>171.8</ele><time>2026-04-04T07:05:10.582Z</time></trkpt><trkpt lat="43.4726017" lon="13.2088283"><ele>171.2</ele><time>2026-04-04T07:05:11.617Z</time></trkpt><trkpt lat="43.4725633" lon="13.2087017"><ele>170.6</ele><time>2026-04-04T07:05:12.57Z</time></trkpt><trkpt lat="43.472545" lon="13.20858"><ele>170.0</ele><time>2026-04-04T07:05:13.574Z</time></trkpt><trkpt lat="43.472585" lon="13.208455"><ele>170.0</ele><time>2026-04-04T07:05:14.578Z</time></trkpt><trkpt lat="43.4726383" lon="13.2083183"><ele>170.0</ele><time>2026-04-04T07:05:15.574Z</time></trkpt><trkpt lat="43.47271" lon="13.2081617"><ele>170.0</ele><time>2026-04-04T07:05:16.56Z</time></trkpt><trkpt lat="43.4727867" lon="13.207985"><ele>170.0</ele><time>2026-04-04T07:05:17.616Z</time></trkpt><trkpt lat="43.4728717" lon="13.2077933"><ele>167.66666666666666</ele><time>2026-04-04T07:05:18.567Z</time></trkpt><trkpt lat="43.4729583" lon="13.20759"><ele>165.33333333333334</ele><time>2026-04-04T07:05:19.576Z</time></trkpt><trkpt lat="43.4730483" lon="13.2073867"><ele>163.0</ele><time>2026-04-04T07:05:20.57Z</time></trkpt><trkpt lat="43.473135" lon="13.2071767"><ele>163.0</ele><time>2026-04-04T07:05:21.575Z</time></trkpt><trkpt lat="43.4732183" lon="13.2069633"><ele>163.0</ele><time>2026-04-04T07:05:22.575Z</time></trkpt><trkpt lat="43.4733033" lon="13.20674"><ele>163.0</ele><time>2026-04-04T07:05:23.604Z</time></trkpt><trkpt lat="43.4733867" lon="13.206525"><ele>164.66666666666669</ele><time>2026-04-04T07:05:24.558Z</time></trkpt><trkpt lat="43.473475" lon="13.2063267"><ele>166.33333333333334</ele><time>2026-04-04T07:05:25.579Z</time></trkpt><trkpt lat="43.47357" lon="13.20615"><ele>168.0</ele><time>2026-04-04T07:05:26.576Z</time></trkpt><trkpt lat="43.4736617" lon="13.206"><ele>168.0</ele><time>2026-04-04T07:05:27.573Z</time></trkpt><trkpt lat="43.4737467" lon="13.205875"><ele>168.0</ele><time>2026-04-04T07:05:28.568Z</time></trkpt><trkpt lat="43.4738183" lon="13.2057683"><ele>168.0</ele><time>2026-04-04T07:05:29.597Z</time></trkpt><trkpt lat="43.4738733" lon="13.205685"><ele>168.0</ele><time>2026-04-04T07:05:30.562Z</time></trkpt><trkpt lat="43.4739183" lon="13.2055367"><ele>168.0</ele><time>2026-04-04T07:05:32.569Z</time></trkpt><trkpt lat="43.4738583" lon="13.2053883"><ele>168.5</ele><time>2026-04-04T07:05:34.561Z</time></trkpt><trkpt lat="43.47377" lon="13.2053283"><ele>169.0</ele><time>2026-04-04T07:05:35.614Z</time></trkpt><trkpt lat="43.4736583" lon="13.2052683"><ele>169.5</ele><time>2026-04-04T07:05:36.573Z</time></trkpt><trkpt lat="43.473535" lon="13.2051967"><ele>170.0</ele><time>2026-04-04T07:05:37.571Z</time></trkpt><trkpt lat="43.4734217" lon="13.2051183"><ele>170.0</ele><time>2026-04-04T07:05:38.571Z</time></trkpt><trkpt lat="43.4733183" lon="13.2050417"><ele>170.0</ele><time>2026-04-04T07:05:39.575Z</time></trkpt><trkpt lat="43.4732317" lon="13.20496"><ele>170.0</ele><time>2026-04-04T07:05:40.572Z</time></trkpt><trkpt lat="43.4731533" lon="13.20486"><ele>170.0</ele><time>2026-04-04T07:05:41.622Z</time></trkpt><trkpt lat="43.4730817" lon="13.204735"><ele>170.0</ele><time>2026-04-04T07:05:42.568Z</time></trkpt><trkpt lat="43.47302" lon="13.20459"><ele>170.2</ele><time>2026-04-04T07:05:43.58Z</time></trkpt><trkpt lat="43.4729683" lon="13.2044433"><ele>170.4</ele><time>2026-04-04T07:05:44.567Z</time></trkpt><trkpt lat="43.472925" lon="13.2042917"><ele>170.60000000000002</ele><time>2026-04-04T07:05:45.58Z</time></trkpt><trkpt lat="43.47288" lon="13.204155"><ele>170.8</ele><time>2026-04-04T07:05:46.562Z</time></trkpt><trkpt lat="43.4728317" lon="13.2040283"><ele>171.0</ele><time>2026-04-04T07:05:47.62Z</time></trkpt><trkpt lat="43.4727733" lon="13.2039133"><ele>169.5</ele><time>2026-04-04T07:05:48.572Z</time></trkpt><trkpt lat="43.472695" lon="13.2038083"><ele>168.0</ele><time>2026-04-04T07:05:49.575Z</time></trkpt><trkpt lat="43.4726" lon="13.203715"><ele>166.5</ele><time>2026-04-04T07:05:50.564Z</time></trkpt><trkpt lat="43.472485" lon="13.20363"><ele>165.0</ele><time>2026-04-04T07:05:51.572Z</time></trkpt><trkpt lat="43.4723733" lon="13.2035417"><ele>165.0</ele><time>2026-04-04T07:05:52.569Z</time></trkpt><trkpt lat="43.4722567" lon="13.203445"><ele>165.0</ele><time>2026-04-04T07:05:53.619Z</time></trkpt><trkpt lat="43.4721417" lon="13.2033383"><ele>165.0</ele><time>2026-04-04T07:05:54.572Z</time></trkpt><trkpt lat="43.472025" lon="13.2032217"><ele>165.0</ele><time>2026-04-04T07:05:55.576Z</time></trkpt><trkpt lat="43.4719083" lon="13.2031"><ele>162.75</ele><time>2026-04-04T07:05:56.571Z</time></trkpt><trkpt lat="43.4717883" lon="13.2029767"><ele>160.5</ele><time>2026-04-04T07:05:57.576Z</time></trkpt><trkpt lat="43.4716667" lon="13.2028567"><ele>158.25</ele><time>2026-04-04T07:05:58.566Z</time></trkpt><trkpt lat="43.471545" lon="13.2027367"><ele>156.0</ele><time>2026-04-04T07:05:59.619Z</time></trkpt><trkpt lat="43.471425" lon="13.2026183"><ele>156.0</ele><time>2026-04-04T07:06:00.571Z</time></trkpt><trkpt lat="43.471305" lon="13.2025033"><ele>156.0</ele><time>2026-04-04T07:06:01.572Z</time></trkpt><trkpt lat="43.471185" lon="13.2023917"><ele>156.0</ele><time>2026-04-04T07:06:02.56Z</time></trkpt><trkpt lat="43.4710633" lon="13.2022833"><ele>156.0</ele><time>2026-04-04T07:06:03.581Z</time></trkpt><trkpt lat="43.4709433" lon="13.20217"><ele>155.0</ele><time>2026-04-04T07:06:04.568Z</time></trkpt><trkpt lat="43.4708217" lon="13.2020583"><ele>154.0</ele><time>2026-04-04T07:06:05.617Z</time></trkpt><trkpt lat="43.4707067" lon="13.2019417"><ele>153.0</ele><time>2026-04-04T07:06:06.574Z</time></trkpt><trkpt lat="43.4705967" lon="13.2018233"><ele>152.0</ele><time>2026-04-04T07:06:07.574Z</time></trkpt><trkpt lat="43.4704883" lon="13.2017033"><ele>151.25</ele><time>2026-04-04T07:06:08.577Z</time></trkpt><trkpt lat="43.4703817" lon="13.2015783"><ele>150.5</ele><time>2026-04-04T07:06:09.576Z</time></trkpt><trkpt lat="43.47028" lon="13.2014467"><ele>149.75</ele><time>2026-04-04T07:06:10.573Z</time></trkpt><trkpt lat="43.4701733" lon="13.2013117"><ele>149.0</ele><time>2026-04-04T07:06:11.615Z</time></trkpt><trkpt lat="43.47006" lon="13.2011783"><ele>148.25</ele><time>2026-04-04T07:06:12.577Z</time></trkpt><trkpt lat="43.4699483" lon="13.2010467"><ele>147.5</ele><time>2026-04-04T07:06:13.576Z</time></trkpt><trkpt lat="43.46984" lon="13.2009167"><ele>146.75</ele><time>2026-04-04T07:06:14.571Z</time></trkpt><trkpt lat="43.4697333" lon="13.200785"><ele>146.0</ele><time>2026-04-04T07:06:15.573Z</time></trkpt><trkpt lat="43.46963" lon="13.2006533"><ele>143.75</ele><time>2026-04-04T07:06:16.565Z</time></trkpt><trkpt lat="43.46953" lon="13.20052"><ele>141.5</ele><time>2026-04-04T07:06:17.619Z</time></trkpt><trkpt lat="43.4694267" lon="13.20039"><ele>139.25</ele><time>2026-04-04T07:06:18.576Z</time></trkpt><trkpt lat="43.4693267" lon="13.2002617"><ele>137.0</ele><time>2026-04-04T07:06:19.572Z</time></trkpt><trkpt lat="43.469225" lon="13.2001317"><ele>137.0</ele><time>2026-04-04T07:06:20.567Z</time></trkpt><trkpt lat="43.4691183" lon="13.2000017"><ele>137.0</ele><time>2026-04-04T07:06:21.577Z</time></trkpt><trkpt lat="43.4690067" lon="13.1998717"><ele>137.0</ele><time>2026-04-04T07:06:22.574Z</time></trkpt><trkpt lat="43.4689067" lon="13.1997333"><ele>137.0</ele><time>2026-04-04T07:06:23.601Z</time></trkpt><trkpt lat="43.46881" lon="13.1995917"><ele>134.75</ele><time>2026-04-04T07:06:24.57Z</time></trkpt><trkpt lat="43.4687233" lon="13.1994483"><ele>132.5</ele><time>2026-04-04T07:06:25.572Z</time></trkpt><trkpt lat="43.4686517" lon="13.19931"><ele>130.25</ele><time>2026-04-04T07:06:26.561Z</time></trkpt><trkpt lat="43.4686067" lon="13.1991717"><ele>128.0</ele><time>2026-04-04T07:06:27.574Z</time></trkpt><trkpt lat="43.468595" lon="13.1990217"><ele>126.5</ele><time>2026-04-04T07:06:28.569Z</time></trkpt><trkpt lat="43.4686083" lon="13.1988567"><ele>125.0</ele><time>2026-04-04T07:06:29.602Z</time></trkpt><trkpt lat="43.4686367" lon="13.1986933"><ele>123.5</ele><time>2026-04-04T07:06:30.56Z</time></trkpt><trkpt lat="43.4686483" lon="13.1985317"><ele>122.0</ele><time>2026-04-04T07:06:31.572Z</time></trkpt><trkpt lat="43.4686433" lon="13.198365"><ele>122.0</ele><time>2026-04-04T07:06:32.567Z</time></trkpt><trkpt lat="43.4686183" lon="13.1982"><ele>122.0</ele><time>2026-04-04T07:06:33.569Z</time></trkpt><trkpt lat="43.4685683" lon="13.19803"><ele>122.0</ele><time>2026-04-04T07:06:34.568Z</time></trkpt><trkpt lat="43.4684867" lon="13.19786"><ele>122.0</ele><time>2026-04-04T07:06:35.616Z</time></trkpt><trkpt lat="43.4683967" lon="13.1976933"><ele>119.66666666666666</ele><time>2026-04-04T07:06:36.565Z</time></trkpt><trkpt lat="43.468305" lon="13.1975233"><ele>117.33333333333334</ele><time>2026-04-04T07:06:37.577Z</time></trkpt><trkpt lat="43.4682183" lon="13.1973567"><ele>115.0</ele><time>2026-04-04T07:06:38.568Z</time></trkpt><trkpt lat="43.46813" lon="13.1971917"><ele>114.25</ele><time>2026-04-04T07:06:39.574Z</time></trkpt><trkpt lat="43.4680417" lon="13.19703"><ele>113.5</ele><time>2026-04-04T07:06:40.57Z</time></trkpt><trkpt lat="43.467945" lon="13.1968733"><ele>112.75</ele><time>2026-04-04T07:06:41.617Z</time></trkpt><trkpt lat="43.4678367" lon="13.196735"><ele>112.0</ele><time>2026-04-04T07:06:42.566Z</time></trkpt><trkpt lat="43.4677133" lon="13.196615"><ele>112.0</ele><time>2026-04-04T07:06:43.572Z</time></trkpt><trkpt lat="43.4675733" lon="13.1965217"><ele>112.0</ele><time>2026-04-04T07:06:44.574Z</time></trkpt><trkpt lat="43.467425" lon="13.1964383"><ele>112.0</ele><time>2026-04-04T07:06:45.573Z</time></trkpt><trkpt lat="43.4672767" lon="13.1963517"><ele>111.66666666666667</ele><time>2026-04-04T07:06:46.575Z</time></trkpt><trkpt lat="43.4671333" lon="13.1962617"><ele>111.33333333333334</ele><time>2026-04-04T07:06:47.618Z</time></trkpt><trkpt lat="43.4669917" lon="13.1961567"><ele>111.0</ele><time>2026-04-04T07:06:48.568Z</time></trkpt><trkpt lat="43.46686" lon="13.1960333"><ele>110.66666666666666</ele><time>2026-04-04T07:06:49.577Z</time></trkpt><trkpt lat="43.4667433" lon="13.1958867"><ele>110.33333333333333</ele><time>2026-04-04T07:06:50.57Z</time></trkpt><trkpt lat="43.466635" lon="13.1957267"><ele>110.0</ele><time>2026-04-04T07:06:51.574Z</time></trkpt><trkpt lat="43.4665317" lon="13.195555"><ele>109.66666666666666</ele><time>2026-04-04T07:06:52.559Z</time></trkpt><trkpt lat="43.4664167" lon="13.1953817"><ele>109.33333333333334</ele><time>2026-04-04T07:06:53.602Z</time></trkpt><trkpt lat="43.4662967" lon="13.1952083"><ele>109.0</ele><time>2026-04-04T07:06:54.574Z</time></trkpt><trkpt lat="43.4661717" lon="13.1950333"><ele>110.0</ele><time>2026-04-04T07:06:55.572Z</time></trkpt><trkpt lat="43.4660483" lon="13.194855"><ele>111.0</ele><time>2026-04-04T07:06:56.578Z</time></trkpt><trkpt lat="43.4659233" lon="13.194675"><ele>112.0</ele><time>2026-04-04T07:06:57.575Z</time></trkpt><trkpt lat="43.4657983" lon="13.1944917"><ele>112.33333333333334</ele><time>2026-04-04T07:06:58.569Z</time></trkpt><trkpt lat="43.4656683" lon="13.19431"><ele>112.66666666666666</ele><time>2026-04-04T07:06:59.62Z</time></trkpt><trkpt lat="43.465535" lon="13.1941367"><ele>113.0</ele><time>2026-04-04T07:07:00.574Z</time></trkpt><trkpt lat="43.4654033" lon="13.193965"><ele>115.66666666666666</ele><time>2026-04-04T07:07:01.573Z</time></trkpt><trkpt lat="43.46527" lon="13.1937933"><ele>118.33333333333334</ele><time>2026-04-04T07:07:02.571Z</time></trkpt><trkpt lat="43.4651383" lon="13.1936233"><ele>121.0</ele><time>2026-04-04T07:07:03.574Z</time></trkpt><trkpt lat="43.4650083" lon="13.1934533"><ele>121.0</ele><time>2026-04-04T07:07:04.569Z</time></trkpt><trkpt lat="43.464875" lon="13.193285"><ele>121.0</ele><time>2026-04-04T07:07:05.622Z</time></trkpt><trkpt lat="43.4647483" lon="13.1931167"><ele>121.0</ele><time>2026-04-04T07:07:06.56Z</time></trkpt><trkpt lat="43.4646317" lon="13.1929533"><ele>124.75</ele><time>2026-04-04T07:07:07.57Z</time></trkpt><trkpt lat="43.4645283" lon="13.1927917"><ele>128.5</ele><time>2026-04-04T07:07:08.573Z</time></trkpt><trkpt lat="43.46445" lon="13.1926267"><ele>132.25</ele><time>2026-04-04T07:07:09.571Z</time></trkpt><trkpt lat="43.464415" lon="13.1924467"><ele>136.0</ele><time>2026-04-04T07:07:10.577Z</time></trkpt><trkpt lat="43.4644217" lon="13.1922567"><ele>137.25</ele><time>2026-04-04T07:07:11.615Z</time></trkpt><trkpt lat="43.4644517" lon="13.192065"><ele>138.5</ele><time>2026-04-04T07:07:12.576Z</time></trkpt><trkpt lat="43.4644833" lon="13.19187"><ele>139.75</ele><time>2026-04-04T07:07:13.572Z</time></trkpt><trkpt lat="43.4644917" lon="13.1916833"><ele>141.0</ele><time>2026-04-04T07:07:14.57Z</time></trkpt><trkpt lat="43.4644867" lon="13.1915117"><ele>140.66666666666666</ele><time>2026-04-04T07:07:15.576Z</time></trkpt><trkpt lat="43.4644683" lon="13.1913583"><ele>140.33333333333334</ele><time>2026-04-04T07:07:16.575Z</time></trkpt><trkpt lat="43.46444" lon="13.1912233"><ele>140.0</ele><time>2026-04-04T07:07:17.614Z</time></trkpt><trkpt lat="43.4644067" lon="13.1911067"><ele>139.66666666666669</ele><time>2026-04-04T07:07:18.569Z</time></trkpt><trkpt lat="43.46438" lon="13.1910117"><ele>139.33333333333334</ele><time>2026-04-04T07:07:20.568Z</time></trkpt><trkpt lat="43.4643783" lon="13.19092"><ele>139.0</ele><time>2026-04-04T07:07:24.569Z</time></trkpt><trkpt lat="43.4643433" lon="13.1910217"><ele>139.0</ele><time>2026-04-04T07:07:28.572Z</time></trkpt><trkpt lat="43.4643617" lon="13.1911517"><ele>139.0</ele><time>2026-04-04T07:07:30.571Z</time></trkpt><trkpt lat="43.4643233" lon="13.1912717"><ele>139.0</ele><time>2026-04-04T07:07:32.575Z</time></trkpt><trkpt lat="43.46427" lon="13.1913317"><ele>139.0</ele><time>2026-04-04T07:07:33.581Z</time></trkpt><trkpt lat="43.4641967" lon="13.1913917"><ele>139.0</ele><time>2026-04-04T07:07:34.582Z</time></trkpt><trkpt lat="43.464115" lon="13.1914617"><ele>139.0</ele><time>2026-04-04T07:07:35.618Z</time></trkpt><trkpt lat="43.4640167" lon="13.1915533"><ele>139.5</ele><time>2026-04-04T07:07:36.571Z</time></trkpt><trkpt lat="43.4639233" lon="13.1916467"><ele>140.0</ele><time>2026-04-04T07:07:37.573Z</time></trkpt><trkpt lat="43.4638333" lon="13.1917383"><ele>140.5</ele><time>2026-04-04T07:07:38.574Z</time></trkpt><trkpt lat="43.4637367" lon="13.1918267"><ele>141.0</ele><time>2026-04-04T07:07:39.575Z</time></trkpt><trkpt lat="43.4636383" lon="13.1919083"><ele>142.0</ele><time>2026-04-04T07:07:40.569Z</time></trkpt><trkpt lat="43.463535" lon="13.1919833"><ele>143.0</ele><time>2026-04-04T07:07:41.622Z</time></trkpt><trkpt lat="43.4634317" lon="13.192035"><ele>144.0</ele><time>2026-04-04T07:07:42.571Z</time></trkpt><trkpt lat="43.463325" lon="13.19206"><ele>145.0</ele><time>2026-04-04T07:07:43.571Z</time></trkpt><trkpt lat="43.4632133" lon="13.19206"><ele>146.0</ele><time>2026-04-04T07:07:44.559Z</time></trkpt><trkpt lat="43.4630883" lon="13.1920083"><ele>146.0</ele><time>2026-04-04T07:07:45.57Z</time></trkpt><trkpt lat="43.4629483" lon="13.19193"><ele>146.0</ele><time>2026-04-04T07:07:46.57Z</time></trkpt><trkpt lat="43.46279" lon="13.1918283"><ele>146.0</ele><time>2026-04-04T07:07:47.616Z</time></trkpt><trkpt lat="43.46263" lon="13.191735"><ele>145.75</ele><time>2026-04-04T07:07:48.572Z</time></trkpt><trkpt lat="43.4624883" lon="13.19164"><ele>145.5</ele><time>2026-04-04T07:07:49.571Z</time></trkpt><trkpt lat="43.4623533" lon="13.19155"><ele>145.25</ele><time>2026-04-04T07:07:50.577Z</time></trkpt><trkpt lat="43.46223" lon="13.1914617"><ele>145.0</ele><time>2026-04-04T07:07:51.572Z</time></trkpt><trkpt lat="43.462105" lon="13.1913817"><ele>146.0</ele><time>2026-04-04T07:07:52.571Z</time></trkpt><trkpt lat="43.461985" lon="13.191305"><ele>147.0</ele><time>2026-04-04T07:07:53.625Z</time></trkpt><trkpt lat="43.4618683" lon="13.1912233"><ele>148.0</ele><time>2026-04-04T07:07:54.573Z</time></trkpt><trkpt lat="43.461755" lon="13.191135"><ele>149.0</ele><time>2026-04-04T07:07:55.577Z</time></trkpt><trkpt lat="43.461635" lon="13.19105"><ele>149.0</ele><time>2026-04-04T07:07:56.577Z</time></trkpt><trkpt lat="43.461515" lon="13.1909683"><ele>149.0</ele><time>2026-04-04T07:07:57.584Z</time></trkpt><trkpt lat="43.4613983" lon="13.190885"><ele>149.0</ele><time>2026-04-04T07:07:58.572Z</time></trkpt><trkpt lat="43.4612767" lon="13.1908083"><ele>149.0</ele><time>2026-04-04T07:07:59.61Z</time></trkpt><trkpt lat="43.46116" lon="13.190725"><ele>148.0</ele><time>2026-04-04T07:08:00.573Z</time></trkpt><trkpt lat="43.4610417" lon="13.1906367"><ele>147.0</ele><time>2026-04-04T07:08:01.574Z</time></trkpt><trkpt lat="43.4609167" lon="13.190545"><ele>146.0</ele><time>2026-04-04T07:08:02.572Z</time></trkpt><trkpt lat="43.4607883" lon="13.190455"><ele>145.0</ele><time>2026-04-04T07:08:03.576Z</time></trkpt><trkpt lat="43.4606567" lon="13.1903667"><ele>145.0</ele><time>2026-04-04T07:08:04.569Z</time></trkpt><trkpt lat="43.4605233" lon="13.1902817"><ele>145.0</ele><time>2026-04-04T07:08:05.617Z</time></trkpt><trkpt lat="43.460385" lon="13.190195"><ele>145.0</ele><time>2026-04-04T07:08:06.567Z</time></trkpt><trkpt lat="43.4602417" lon="13.190115"><ele>145.66666666666669</ele><time>2026-04-04T07:08:07.583Z</time></trkpt><trkpt lat="43.4600983" lon="13.1900433"><ele>146.33333333333334</ele><time>2026-04-04T07:08:08.572Z</time></trkpt><trkpt lat="43.459955" lon="13.1899733"><ele>147.0</ele><time>2026-04-04T07:08:09.575Z</time></trkpt><trkpt lat="43.45981" lon="13.189905"><ele>146.66666666666666</ele><time>2026-04-04T07:08:10.565Z</time></trkpt><trkpt lat="43.4596683" lon="13.1898333"><ele>146.33333333333331</ele><time>2026-04-04T07:08:11.612Z</time></trkpt><trkpt lat="43.459525" lon="13.18976"><ele>146.0</ele><time>2026-04-04T07:08:12.575Z</time></trkpt><trkpt lat="43.459385" lon="13.1896867"><ele>146.0</ele><time>2026-04-04T07:08:13.572Z</time></trkpt><trkpt lat="43.4592483" lon="13.1896117"><ele>146.0</ele><time>2026-04-04T07:08:14.567Z</time></trkpt><trkpt lat="43.45912" lon="13.1895467"><ele>146.0</ele><time>2026-04-04T07:08:15.574Z</time></trkpt><trkpt lat="43.4590083" lon="13.1894883"><ele>146.0</ele><time>2026-04-04T07:08:16.575Z</time></trkpt><trkpt lat="43.45891" lon="13.189445"><ele>146.0</ele><time>2026-04-04T07:08:17.617Z</time></trkpt><trkpt lat="43.45881" lon="13.1893967"><ele>146.0</ele><time>2026-04-04T07:08:18.565Z</time></trkpt><trkpt lat="43.4587117" lon="13.1893317"><ele>146.0</ele><time>2026-04-04T07:08:19.571Z</time></trkpt><trkpt lat="43.4586083" lon="13.1892517"><ele>146.0</ele><time>2026-04-04T07:08:20.569Z</time></trkpt><trkpt lat="43.4585067" lon="13.18916"><ele>147.75</ele><time>2026-04-04T07:08:21.573Z</time></trkpt><trkpt lat="43.45841" lon="13.1890417"><ele>149.5</ele><time>2026-04-04T07:08:22.57Z</time></trkpt><trkpt lat="43.45832" lon="13.1889033"><ele>151.25</ele><time>2026-04-04T07:08:23.588Z</time></trkpt><trkpt lat="43.458225" lon="13.1887583"><ele>153.0</ele><time>2026-04-04T07:08:24.576Z</time></trkpt><trkpt lat="43.4581333" lon="13.188605"><ele>153.25</ele><time>2026-04-04T07:08:25.571Z</time></trkpt><trkpt lat="43.4580317" lon="13.1884517"><ele>153.5</ele><time>2026-04-04T07:08:26.575Z</time></trkpt><trkpt lat="43.45793" lon="13.1883033"><ele>153.75</ele><time>2026-04-04T07:08:27.575Z</time></trkpt><trkpt lat="43.4578333" lon="13.1881667"><ele>154.0</ele><time>2026-04-04T07:08:28.571Z</time></trkpt><trkpt lat="43.4577467" lon="13.1880283"><ele>156.75</ele><time>2026-04-04T07:08:29.618Z</time></trkpt><trkpt lat="43.4576583" lon="13.18789"><ele>159.5</ele><time>2026-04-04T07:08:30.579Z</time></trkpt><trkpt lat="43.4575633" lon="13.1877567"><ele>162.25</ele><time>2026-04-04T07:08:31.574Z</time></trkpt><trkpt lat="43.4574817" lon="13.18764"><ele>165.0</ele><time>2026-04-04T07:08:32.571Z</time></trkpt><trkpt lat="43.457405" lon="13.1875267"><ele>165.0</ele><time>2026-04-04T07:08:33.574Z</time></trkpt><trkpt lat="43.4573267" lon="13.1874183"><ele>165.0</ele><time>2026-04-04T07:08:34.567Z</time></trkpt><trkpt lat="43.457245" lon="13.1873083"><ele>165.0</ele><time>2026-04-04T07:08:35.626Z</time></trkpt><trkpt lat="43.4571767" lon="13.1871917"><ele>165.0</ele><time>2026-04-04T07:08:36.571Z</time></trkpt><trkpt lat="43.4571133" lon="13.1870733"><ele>165.0</ele><time>2026-04-04T07:08:37.582Z</time></trkpt><trkpt lat="43.4570417" lon="13.1869483"><ele>168.25</ele><time>2026-04-04T07:08:38.571Z</time></trkpt><trkpt lat="43.4569683" lon="13.1868133"><ele>171.5</ele><time>2026-04-04T07:08:39.575Z</time></trkpt><trkpt lat="43.4568783" lon="13.186685"><ele>174.75</ele><time>2026-04-04T07:08:40.566Z</time></trkpt><trkpt lat="43.4568" lon="13.1865483"><ele>178.0</ele><time>2026-04-04T07:08:41.618Z</time></trkpt><trkpt lat="43.4567167" lon="13.1864133"><ele>179.5</ele><time>2026-04-04T07:08:42.575Z</time></trkpt><trkpt lat="43.45664" lon="13.186285"><ele>181.0</ele><time>2026-04-04T07:08:43.577Z</time></trkpt><trkpt lat="43.4565667" lon="13.1861667"><ele>182.5</ele><time>2026-04-04T07:08:44.569Z</time></trkpt><trkpt lat="43.4564867" lon="13.186055"><ele>184.0</ele><time>2026-04-04T07:08:45.576Z</time></trkpt><trkpt lat="43.4563967" lon="13.1859467"><ele>184.0</ele><time>2026-04-04T07:08:46.573Z</time></trkpt><trkpt lat="43.4563033" lon="13.1858367"><ele>184.0</ele><time>2026-04-04T07:08:47.621Z</time></trkpt><trkpt lat="43.4562067" lon="13.185735"><ele>184.0</ele><time>2026-04-04T07:08:48.572Z</time></trkpt><trkpt lat="43.4561267" lon="13.1856467"><ele>184.0</ele><time>2026-04-04T07:08:49.575Z</time></trkpt><trkpt lat="43.4560533" lon="13.1855717"><ele>184.0</ele><time>2026-04-04T07:08:50.573Z</time></trkpt><trkpt lat="43.456" lon="13.185505"><ele>185.83333333333334</ele><time>2026-04-04T07:08:51.581Z</time></trkpt><trkpt lat="43.4559367" lon="13.1853917"><ele>187.66666666666669</ele><time>2026-04-04T07:08:53.626Z</time></trkpt><trkpt lat="43.4558967" lon="13.1853"><ele>189.5</ele><time>2026-04-04T07:08:55.572Z</time></trkpt><trkpt lat="43.4558217" lon="13.1852533"><ele>191.33333333333334</ele><time>2026-04-04T07:08:57.571Z</time></trkpt><trkpt lat="43.45576" lon="13.1852717"><ele>193.16666666666666</ele><time>2026-04-04T07:08:58.567Z</time></trkpt><trkpt lat="43.4556717" lon="13.1853033"><ele>195.0</ele><time>2026-04-04T07:08:59.614Z</time></trkpt><trkpt lat="43.45557" lon="13.18532"><ele>195.0</ele><time>2026-04-04T07:09:00.575Z</time></trkpt><trkpt lat="43.4554583" lon="13.1853333"><ele>195.0</ele><time>2026-04-04T07:09:01.572Z</time></trkpt><trkpt lat="43.455345" lon="13.1853317"><ele>195.0</ele><time>2026-04-04T07:09:02.572Z</time></trkpt><trkpt lat="43.4552283" lon="13.185285"><ele>195.0</ele><time>2026-04-04T07:09:03.573Z</time></trkpt><trkpt lat="43.455115" lon="13.1852167"><ele>196.75</ele><time>2026-04-04T07:09:04.567Z</time></trkpt><trkpt lat="43.454995" lon="13.1851383"><ele>198.5</ele><time>2026-04-04T07:09:05.63Z</time></trkpt><trkpt lat="43.454875" lon="13.18506"><ele>200.25</ele><time>2026-04-04T07:09:06.574Z</time></trkpt><trkpt lat="43.4547517" lon="13.185005"><ele>202.0</ele><time>2026-04-04T07:09:07.571Z</time></trkpt><trkpt lat="43.45463" lon="13.1849583"><ele>203.5</ele><time>2026-04-04T07:09:08.582Z</time></trkpt><trkpt lat="43.4545083" lon="13.1849267"><ele>205.0</ele><time>2026-04-04T07:09:09.574Z</time></trkpt><trkpt lat="43.45439" lon="13.1849033"><ele>206.5</ele><time>2026-04-04T07:09:10.573Z</time></trkpt><trkpt lat="43.45427" lon="13.1848917"><ele>208.0</ele><time>2026-04-04T07:09:11.625Z</time></trkpt><trkpt lat="43.4541483" lon="13.1848883"><ele>208.0</ele><time>2026-04-04T07:09:12.578Z</time></trkpt><trkpt lat="43.4540167" lon="13.184895"><ele>208.0</ele><time>2026-04-04T07:09:13.571Z</time></trkpt><trkpt lat="43.4538783" lon="13.1848933"><ele>208.0</ele><time>2026-04-04T07:09:14.576Z</time></trkpt><trkpt lat="43.4537417" lon="13.184875"><ele>208.0</ele><time>2026-04-04T07:09:15.577Z</time></trkpt><trkpt lat="43.4536117" lon="13.1848433"><ele>208.25</ele><time>2026-04-04T07:09:16.572Z</time></trkpt><trkpt lat="43.4534933" lon="13.1847883"><ele>208.5</ele><time>2026-04-04T07:09:17.603Z</time></trkpt><trkpt lat="43.453385" lon="13.1847083"><ele>208.75</ele><time>2026-04-04T07:09:18.568Z</time></trkpt><trkpt lat="43.4532817" lon="13.1846217"><ele>209.0</ele><time>2026-04-04T07:09:19.572Z</time></trkpt><trkpt lat="43.4531883" lon="13.18453"><ele>209.0</ele><time>2026-04-04T07:09:20.574Z</time></trkpt><trkpt lat="43.453095" lon="13.1844367"><ele>209.0</ele><time>2026-04-04T07:09:21.57Z</time></trkpt><trkpt lat="43.4530017" lon="13.184345"><ele>209.0</ele><time>2026-04-04T07:09:22.574Z</time></trkpt><trkpt lat="43.4528967" lon="13.184275"><ele>209.0</ele><time>2026-04-04T07:09:23.629Z</time></trkpt><trkpt lat="43.45279" lon="13.1842317"><ele>209.75</ele><time>2026-04-04T07:09:24.574Z</time></trkpt><trkpt lat="43.452675" lon="13.18421"><ele>210.5</ele><time>2026-04-04T07:09:25.571Z</time></trkpt><trkpt lat="43.4525533" lon="13.1841933"><ele>211.25</ele><time>2026-04-04T07:09:26.561Z</time></trkpt><trkpt lat="43.4524267" lon="13.1841867"><ele>212.0</ele><time>2026-04-04T07:09:27.574Z</time></trkpt><trkpt lat="43.452305" lon="13.1841733"><ele>212.0</ele><time>2026-04-04T07:09:28.571Z</time></trkpt><trkpt lat="43.4521883" lon="13.1841483"><ele>212.0</ele><time>2026-04-04T07:09:29.582Z</time></trkpt><trkpt lat="43.4520733" lon="13.1841067"><ele>212.0</ele><time>2026-04-04T07:09:30.572Z</time></trkpt><trkpt lat="43.4519767" lon="13.1840133"><ele>212.0</ele><time>2026-04-04T07:09:31.571Z</time></trkpt><trkpt lat="43.451895" lon="13.1838983"><ele>213.75</ele><time>2026-04-04T07:09:32.572Z</time></trkpt><trkpt lat="43.4518417" lon="13.1837483"><ele>215.5</ele><time>2026-04-04T07:09:33.57Z</time></trkpt><trkpt lat="43.451795" lon="13.1835967"><ele>217.25</ele><time>2026-04-04T07:09:34.571Z</time></trkpt><trkpt lat="43.45177" lon="13.1834333"><ele>219.0</ele><time>2026-04-04T07:09:35.613Z</time></trkpt><trkpt lat="43.4517367" lon="13.18328"><ele>219.0</ele><time>2026-04-04T07:09:36.569Z</time></trkpt><trkpt lat="43.45169" lon="13.18313"><ele>219.0</ele><time>2026-04-04T07:09:37.571Z</time></trkpt><trkpt lat="43.4516367" lon="13.1829783"><ele>219.0</ele><time>2026-04-04T07:09:38.57Z</time></trkpt><trkpt lat="43.451575" lon="13.18283"><ele>219.0</ele><time>2026-04-04T07:09:39.574Z</time></trkpt><trkpt lat="43.4515083" lon="13.18268"><ele>219.0</ele><time>2026-04-04T07:09:40.578Z</time></trkpt><trkpt lat="43.4514333" lon="13.18255"><ele>219.0</ele><time>2026-04-04T07:09:41.607Z</time></trkpt><trkpt lat="43.4513567" lon="13.1824233"><ele>219.0</ele><time>2026-04-04T07:09:42.564Z</time></trkpt><trkpt lat="43.4512783" lon="13.1823083"><ele>219.0</ele><time>2026-04-04T07:09:43.575Z</time></trkpt><trkpt lat="43.4511917" lon="13.1822"><ele>219.0</ele><time>2026-04-04T07:09:44.569Z</time></trkpt><trkpt lat="43.4510933" lon="13.1820933"><ele>219.0</ele><time>2026-04-04T07:09:45.577Z</time></trkpt><trkpt lat="43.45099" lon="13.1819933"><ele>219.0</ele><time>2026-04-04T07:09:46.568Z</time></trkpt><trkpt lat="43.4508783" lon="13.1819017"><ele>219.0</ele><time>2026-04-04T07:09:47.618Z</time></trkpt><trkpt lat="43.45073" lon="13.1818633"><ele>219.0</ele><time>2026-04-04T07:09:48.567Z</time></trkpt><trkpt lat="43.4505883" lon="13.18185"><ele>219.0</ele><time>2026-04-04T07:09:49.573Z</time></trkpt><trkpt lat="43.4504483" lon="13.1818383"><ele>219.0</ele><time>2026-04-04T07:09:50.572Z</time></trkpt><trkpt lat="43.4503067" lon="13.18183"><ele>219.0</ele><time>2026-04-04T07:09:51.575Z</time></trkpt><trkpt lat="43.4501733" lon="13.1818233"><ele>220.75</ele><time>2026-04-04T07:09:52.576Z</time></trkpt><trkpt lat="43.4500383" lon="13.1818183"><ele>222.5</ele><time>2026-04-04T07:09:53.625Z</time></trkpt><trkpt lat="43.4498983" lon="13.18182"><ele>224.25</ele><time>2026-04-04T07:09:54.561Z</time></trkpt><trkpt lat="43.44976" lon="13.1818183"><ele>226.0</ele><time>2026-04-04T07:09:55.575Z</time></trkpt><trkpt lat="43.4496217" lon="13.1818167"><ele>227.75</ele><time>2026-04-04T07:09:56.576Z</time></trkpt><trkpt lat="43.449485" lon="13.18182"><ele>229.5</ele><time>2026-04-04T07:09:57.575Z</time></trkpt><trkpt lat="43.4493467" lon="13.1818133"><ele>231.25</ele><time>2026-04-04T07:09:58.574Z</time></trkpt><trkpt lat="43.4492117" lon="13.1817867"><ele>233.0</ele><time>2026-04-04T07:09:59.608Z</time></trkpt><trkpt lat="43.4490817" lon="13.1817417"><ele>233.0</ele><time>2026-04-04T07:10:00.572Z</time></trkpt><trkpt lat="43.4489567" lon="13.18168"><ele>233.0</ele><time>2026-04-04T07:10:01.571Z</time></trkpt><trkpt lat="43.4488333" lon="13.181615"><ele>233.0</ele><time>2026-04-04T07:10:02.568Z</time></trkpt><trkpt lat="43.448715" lon="13.1815467"><ele>233.0</ele><time>2026-04-04T07:10:03.57Z</time></trkpt><trkpt lat="43.4486" lon="13.1814733"><ele>235.0</ele><time>2026-04-04T07:10:04.569Z</time></trkpt><trkpt lat="43.4484883" lon="13.1813983"><ele>237.0</ele><time>2026-04-04T07:10:05.614Z</time></trkpt><trkpt lat="43.44838" lon="13.181315"><ele>239.0</ele><time>2026-04-04T07:10:06.57Z</time></trkpt><trkpt lat="43.4482683" lon="13.181235"><ele>241.0</ele><time>2026-04-04T07:10:07.578Z</time></trkpt><trkpt lat="43.4481483" lon="13.1811617"><ele>241.0</ele><time>2026-04-04T07:10:08.57Z</time></trkpt><trkpt lat="43.44802" lon="13.1811067"><ele>241.0</ele><time>2026-04-04T07:10:09.575Z</time></trkpt><trkpt lat="43.4478867" lon="13.18108"><ele>241.0</ele><time>2026-04-04T07:10:10.571Z</time></trkpt><trkpt lat="43.4477517" lon="13.1810783"><ele>241.0</ele><time>2026-04-04T07:10:11.614Z</time></trkpt><trkpt lat="43.447615" lon="13.1810783"><ele>244.25</ele><time>2026-04-04T07:10:12.569Z</time></trkpt><trkpt lat="43.4474783" lon="13.1810717"><ele>247.5</ele><time>2026-04-04T07:10:13.567Z</time></trkpt><trkpt lat="43.44734" lon="13.1810583"><ele>250.75</ele><time>2026-04-04T07:10:14.569Z</time></trkpt><trkpt lat="43.4472033" lon="13.1810367"><ele>254.0</ele><time>2026-04-04T07:10:15.572Z</time></trkpt><trkpt lat="43.4470633" lon="13.1810233"><ele>257.75</ele><time>2026-04-04T07:10:16.571Z</time></trkpt><trkpt lat="43.446925" lon="13.180995"><ele>261.5</ele><time>2026-04-04T07:10:17.616Z</time></trkpt><trkpt lat="43.4467917" lon="13.1809567"><ele>265.25</ele><time>2026-04-04T07:10:18.561Z</time></trkpt><trkpt lat="43.4466567" lon="13.1809217"><ele>269.0</ele><time>2026-04-04T07:10:19.57Z</time></trkpt><trkpt lat="43.44651" lon="13.1808783"><ele>269.0</ele><time>2026-04-04T07:10:20.565Z</time></trkpt><trkpt lat="43.4463833" lon="13.18082"><ele>269.0</ele><time>2026-04-04T07:10:21.575Z</time></trkpt><trkpt lat="43.4463417" lon="13.1807"><ele>269.0</ele><time>2026-04-04T07:10:22.574Z</time></trkpt><trkpt lat="43.446305" lon="13.18058"><ele>269.0</ele><time>2026-04-04T07:10:23.612Z</time></trkpt><trkpt lat="43.4462783" lon="13.180445"><ele>269.0</ele><time>2026-04-04T07:10:24.559Z</time></trkpt><trkpt lat="43.4462417" lon="13.1803133"><ele>271.2</ele><time>2026-04-04T07:10:25.572Z</time></trkpt><trkpt lat="43.4461933" lon="13.1801883"><ele>273.4</ele><time>2026-04-04T07:10:26.568Z</time></trkpt><trkpt lat="43.4461367" lon="13.1800583"><ele>275.6</ele><time>2026-04-04T07:10:27.572Z</time></trkpt><trkpt lat="43.446075" lon="13.17993"><ele>277.8</ele><time>2026-04-04T07:10:28.569Z</time></trkpt><trkpt lat="43.44599" lon="13.179805"><ele>280.0</ele><time>2026-04-04T07:10:29.62Z</time></trkpt><trkpt lat="43.44592" lon="13.1796783"><ele>280.75</ele><time>2026-04-04T07:10:30.565Z</time></trkpt><trkpt lat="43.4458433" lon="13.1795533"><ele>281.5</ele><time>2026-04-04T07:10:31.573Z</time></trkpt><trkpt lat="43.4457833" lon="13.1794167"><ele>282.25</ele><time>2026-04-04T07:10:32.576Z</time></trkpt><trkpt lat="43.4457317" lon="13.1792617"><ele>283.0</ele><time>2026-04-04T07:10:33.574Z</time></trkpt><trkpt lat="43.445685" lon="13.1790933"><ele>283.5</ele><time>2026-04-04T07:10:34.569Z</time></trkpt><trkpt lat="43.4456267" lon="13.178925"><ele>284.0</ele><time>2026-04-04T07:10:35.618Z</time></trkpt><trkpt lat="43.445555" lon="13.17877"><ele>284.5</ele><time>2026-04-04T07:10:36.569Z</time></trkpt><trkpt lat="43.4454667" lon="13.178625"><ele>285.0</ele><time>2026-04-04T07:10:37.576Z</time></trkpt><trkpt lat="43.4453733" lon="13.1784917"><ele>286.75</ele><time>2026-04-04T07:10:38.573Z</time></trkpt><trkpt lat="43.4452833" lon="13.1783633"><ele>288.5</ele><time>2026-04-04T07:10:39.579Z</time></trkpt><trkpt lat="43.445195" lon="13.17824"><ele>290.25</ele><time>2026-04-04T07:10:40.574Z</time></trkpt><trkpt lat="43.4451133" lon="13.1781083"><ele>292.0</ele><time>2026-04-04T07:10:41.613Z</time></trkpt><trkpt lat="43.44504" lon="13.1779767"><ele>292.6</ele><time>2026-04-04T07:10:42.563Z</time></trkpt><trkpt lat="43.4449767" lon="13.17784"><ele>293.2</ele><time>2026-04-04T07:10:43.574Z</time></trkpt><trkpt lat="43.4449233" lon="13.1777033"><ele>293.8</ele><time>2026-04-04T07:10:44.564Z</time></trkpt><trkpt lat="43.444875" lon="13.1775733"><ele>294.4</ele><time>2026-04-04T07:10:45.575Z</time></trkpt><trkpt lat="43.4448367" lon="13.17744"><ele>295.0</ele><time>2026-04-04T07:10:46.569Z</time></trkpt><trkpt lat="43.4448033" lon="13.177305"><ele>295.2</ele><time>2026-04-04T07:10:47.607Z</time></trkpt><trkpt lat="43.4447567" lon="13.1771867"><ele>295.4</ele><time>2026-04-04T07:10:48.567Z</time></trkpt><trkpt lat="43.4446983" lon="13.177095"><ele>295.6</ele><time>2026-04-04T07:10:49.572Z</time></trkpt><trkpt lat="43.444615" lon="13.1770767"><ele>295.8</ele><time>2026-04-04T07:10:50.571Z</time></trkpt><trkpt lat="43.4445233" lon="13.1770967"><ele>296.0</ele><time>2026-04-04T07:10:51.566Z</time></trkpt><trkpt lat="43.444425" lon="13.1771217"><ele>298.0</ele><time>2026-04-04T07:10:52.564Z</time></trkpt><trkpt lat="43.4443233" lon="13.1771383"><ele>300.0</ele><time>2026-04-04T07:10:53.587Z</time></trkpt><trkpt lat="43.444215" lon="13.17714"><ele>302.0</ele><time>2026-04-04T07:10:54.571Z</time></trkpt><trkpt lat="43.4441067" lon="13.1771117"><ele>304.0</ele><time>2026-04-04T07:10:55.572Z</time></trkpt><trkpt lat="43.4439983" lon="13.17706"><ele>306.0</ele><time>2026-04-04T07:10:56.564Z</time></trkpt><trkpt lat="43.4438967" lon="13.17698"><ele>308.75</ele><time>2026-04-04T07:10:57.572Z</time></trkpt><trkpt lat="43.4437917" lon="13.1768817"><ele>311.5</ele><time>2026-04-04T07:10:58.573Z</time></trkpt><trkpt lat="43.4436817" lon="13.1767883"><ele>314.25</ele><time>2026-04-04T07:10:59.602Z</time></trkpt><trkpt lat="43.4435683" lon="13.17672"><ele>317.0</ele><time>2026-04-04T07:11:00.565Z</time></trkpt><trkpt lat="43.4434633" lon="13.1766567"><ele>317.0</ele><time>2026-04-04T07:11:01.564Z</time></trkpt><trkpt lat="43.4433633" lon="13.1765733"><ele>317.0</ele><time>2026-04-04T07:11:02.571Z</time></trkpt><trkpt lat="43.4432667" lon="13.1764633"><ele>317.0</ele><time>2026-04-04T07:11:03.579Z</time></trkpt><trkpt lat="43.4431683" lon="13.176335"><ele>317.0</ele><time>2026-04-04T07:11:04.577Z</time></trkpt><trkpt lat="43.44307" lon="13.1762017"><ele>319.5</ele><time>2026-04-04T07:11:05.62Z</time></trkpt><trkpt lat="43.44297" lon="13.1760683"><ele>322.0</ele><time>2026-04-04T07:11:06.574Z</time></trkpt><trkpt lat="43.44287" lon="13.1759317"><ele>324.5</ele><time>2026-04-04T07:11:07.576Z</time></trkpt><trkpt lat="43.44277" lon="13.1757917"><ele>327.0</ele><time>2026-04-04T07:11:08.574Z</time></trkpt><trkpt lat="43.44268" lon="13.175645"><ele>332.0</ele><time>2026-04-04T07:11:09.575Z</time></trkpt><trkpt lat="43.4426017" lon="13.1754933"><ele>337.0</ele><time>2026-04-04T07:11:10.571Z</time></trkpt><trkpt lat="43.44255" lon="13.1753383"><ele>342.0</ele><time>2026-04-04T07:11:11.615Z</time></trkpt><trkpt lat="43.4425283" lon="13.1751683"><ele>347.0</ele><time>2026-04-04T07:11:12.572Z</time></trkpt><trkpt lat="43.4425333" lon="13.1749833"><ele>349.0</ele><time>2026-04-04T07:11:13.572Z</time></trkpt><trkpt lat="43.4425433" lon="13.1747967"><ele>351.0</ele><time>2026-04-04T07:11:14.574Z</time></trkpt><trkpt lat="43.442575" lon="13.1746"><ele>353.0</ele><time>2026-04-04T07:11:15.575Z</time></trkpt><trkpt lat="43.442605" lon="13.1744167"><ele>355.0</ele><time>2026-04-04T07:11:16.572Z</time></trkpt><trkpt lat="43.442645" lon="13.17425"><ele>355.0</ele><time>2026-04-04T07:11:17.616Z</time></trkpt><trkpt lat="43.4426933" lon="13.1741083"><ele>355.0</ele><time>2026-04-04T07:11:18.571Z</time></trkpt><trkpt lat="43.4427533" lon="13.1739933"><ele>355.0</ele><time>2026-04-04T07:11:19.572Z</time></trkpt><trkpt lat="43.4428217" lon="13.1739117"><ele>355.0</ele><time>2026-04-04T07:11:20.575Z</time></trkpt><trkpt lat="43.442885" lon="13.173855"><ele>355.0</ele><time>2026-04-04T07:11:21.574Z</time></trkpt><trkpt lat="43.4429717" lon="13.1737717"><ele>357.0</ele><time>2026-04-04T07:11:23.618Z</time></trkpt><trkpt lat="43.4429233" lon="13.1736967"><ele>359.0</ele><time>2026-04-04T07:11:27.57Z</time></trkpt><trkpt lat="43.442845" lon="13.17372"><ele>361.0</ele><time>2026-04-04T07:11:28.574Z</time></trkpt><trkpt lat="43.442765" lon="13.1737333"><ele>363.0</ele><time>2026-04-04T07:11:29.607Z</time></trkpt><trkpt lat="43.4426717" lon="13.1737567"><ele>365.0</ele><time>2026-04-04T07:11:30.565Z</time></trkpt><trkpt lat="43.4425783" lon="13.17377"><ele>367.0</ele><time>2026-04-04T07:11:31.572Z</time></trkpt><trkpt lat="43.44248" lon="13.173775"><ele>367.0</ele><time>2026-04-04T07:11:32.569Z</time></trkpt><trkpt lat="43.44238" lon="13.1737867"><ele>367.0</ele><time>2026-04-04T07:11:33.574Z</time></trkpt><trkpt lat="43.4422817" lon="13.1738267"><ele>367.0</ele><time>2026-04-04T07:11:34.579Z</time></trkpt><trkpt lat="43.4421783" lon="13.17389"><ele>367.0</ele><time>2026-04-04T07:11:35.613Z</time></trkpt><trkpt lat="43.4420733" lon="13.173985"><ele>367.0</ele><time>2026-04-04T07:11:36.574Z</time></trkpt><trkpt lat="43.4419683" lon="13.1741117"><ele>368.66666666666663</ele><time>2026-04-04T07:11:37.572Z</time></trkpt><trkpt lat="43.4418617" lon="13.1742567"><ele>370.3333333333333</ele><time>2026-04-04T07:11:38.571Z</time></trkpt><trkpt lat="43.4417567" lon="13.174415"><ele>372.0</ele><time>2026-04-04T07:11:39.58Z</time></trkpt><trkpt lat="43.4416517" lon="13.1745667"><ele>372.0</ele><time>2026-04-04T07:11:40.575Z</time></trkpt><trkpt lat="43.4415483" lon="13.1747167"><ele>372.0</ele><time>2026-04-04T07:11:41.619Z</time></trkpt><trkpt lat="43.4414433" lon="13.1748583"><ele>372.0</ele><time>2026-04-04T07:11:42.566Z</time></trkpt><trkpt lat="43.441335" lon="13.1749967"><ele>372.0</ele><time>2026-04-04T07:11:43.572Z</time></trkpt><trkpt lat="43.441225" lon="13.1751233"><ele>374.75</ele><time>2026-04-04T07:11:44.57Z</time></trkpt><trkpt lat="43.4411167" lon="13.1752433"><ele>377.5</ele><time>2026-04-04T07:11:45.574Z</time></trkpt><trkpt lat="43.4410067" lon="13.175355"><ele>380.25</ele><time>2026-04-04T07:11:46.573Z</time></trkpt><trkpt lat="43.4408983" lon="13.1754617"><ele>383.0</ele><time>2026-04-04T07:11:47.61Z</time></trkpt><trkpt lat="43.4407867" lon="13.1755583"><ele>383.0</ele><time>2026-04-04T07:11:48.576Z</time></trkpt><trkpt lat="43.4406683" lon="13.1756383"><ele>383.0</ele><time>2026-04-04T07:11:49.577Z</time></trkpt><trkpt lat="43.4405367" lon="13.1756933"><ele>383.0</ele><time>2026-04-04T07:11:50.575Z</time></trkpt><trkpt lat="43.4403967" lon="13.1757267"><ele>383.0</ele><time>2026-04-04T07:11:51.575Z</time></trkpt><trkpt lat="43.4402483" lon="13.1757483"><ele>382.0</ele><time>2026-04-04T07:11:52.569Z</time></trkpt><trkpt lat="43.4401067" lon="13.1757733"><ele>381.0</ele><time>2026-04-04T07:11:53.62Z</time></trkpt><trkpt lat="43.4399683" lon="13.1758083"><ele>380.0</ele><time>2026-04-04T07:11:54.566Z</time></trkpt><trkpt lat="43.439835" lon="13.175865"><ele>379.0</ele><time>2026-04-04T07:11:55.574Z</time></trkpt><trkpt lat="43.439705" lon="13.1759417"><ele>379.3333333333333</ele><time>2026-04-04T07:11:56.57Z</time></trkpt><trkpt lat="43.43957" lon="13.17604"><ele>379.6666666666667</ele><time>2026-04-04T07:11:57.578Z</time></trkpt><trkpt lat="43.4394317" lon="13.1761683"><ele>380.0</ele><time>2026-04-04T07:11:58.572Z</time></trkpt><trkpt lat="43.4392883" lon="13.1763217"><ele>380.0</ele><time>2026-04-04T07:11:59.617Z</time></trkpt><trkpt lat="43.4391467" lon="13.1764717"><ele>380.0</ele><time>2026-04-04T07:12:00.574Z</time></trkpt><trkpt lat="43.4390033" lon="13.1766183"><ele>380.0</ele><time>2026-04-04T07:12:01.574Z</time></trkpt><trkpt lat="43.4388567" lon="13.17677"><ele>380.6666666666667</ele><time>2026-04-04T07:12:02.567Z</time></trkpt><trkpt lat="43.4387117" lon="13.176915"><ele>381.3333333333333</ele><time>2026-04-04T07:12:03.575Z</time></trkpt><trkpt lat="43.4385717" lon="13.1770533"><ele>382.0</ele><time>2026-04-04T07:12:04.573Z</time></trkpt><trkpt lat="43.4384317" lon="13.1771917"><ele>382.0</ele><time>2026-04-04T07:12:05.62Z</time></trkpt><trkpt lat="43.4382933" lon="13.1773267"><ele>382.0</ele><time>2026-04-04T07:12:06.577Z</time></trkpt><trkpt lat="43.43816" lon="13.177455"><ele>382.0</ele><time>2026-04-04T07:12:07.574Z</time></trkpt><trkpt lat="43.438035" lon="13.177575"><ele>383.25</ele><time>2026-04-04T07:12:08.571Z</time></trkpt><trkpt lat="43.437915" lon="13.177695"><ele>384.5</ele><time>2026-04-04T07:12:09.579Z</time></trkpt><trkpt lat="43.4377933" lon="13.17781"><ele>385.75</ele><time>2026-04-04T07:12:10.56Z</time></trkpt><trkpt lat="43.4376717" lon="13.1779233"><ele>387.0</ele><time>2026-04-04T07:12:11.612Z</time></trkpt><trkpt lat="43.4375483" lon="13.1780383"><ele>387.0</ele><time>2026-04-04T07:12:12.578Z</time></trkpt><trkpt lat="43.437425" lon="13.1781583"><ele>387.0</ele><time>2026-04-04T07:12:13.573Z</time></trkpt><trkpt lat="43.4373" lon="13.1782767"><ele>387.0</ele><time>2026-04-04T07:12:14.57Z</time></trkpt><trkpt lat="43.4371783" lon="13.1783983"><ele>388.5</ele><time>2026-04-04T07:12:15.574Z</time></trkpt><trkpt lat="43.4370583" lon="13.1785133"><ele>390.0</ele><time>2026-04-04T07:12:16.568Z</time></trkpt><trkpt lat="43.436935" lon="13.1786333"><ele>391.5</ele><time>2026-04-04T07:12:17.615Z</time></trkpt><trkpt lat="43.436815" lon="13.17875"><ele>393.0</ele><time>2026-04-04T07:12:18.574Z</time></trkpt><trkpt lat="43.436695" lon="13.1788733"><ele>393.0</ele><time>2026-04-04T07:12:19.575Z</time></trkpt><trkpt lat="43.4365733" lon="13.1789967"><ele>393.0</ele><time>2026-04-04T07:12:20.572Z</time></trkpt><trkpt lat="43.4364617" lon="13.1791217"><ele>393.0</ele><time>2026-04-04T07:12:21.577Z</time></trkpt><trkpt lat="43.4363533" lon="13.1792567"><ele>393.0</ele><time>2026-04-04T07:12:22.579Z</time></trkpt><trkpt lat="43.4362533" lon="13.1794067"><ele>394.33333333333337</ele><time>2026-04-04T07:12:23.621Z</time></trkpt><trkpt lat="43.4361567" lon="13.1795783"><ele>395.6666666666667</ele><time>2026-04-04T07:12:24.559Z</time></trkpt><trkpt lat="43.4360617" lon="13.17975"><ele>397.0</ele><time>2026-04-04T07:12:25.57Z</time></trkpt><trkpt lat="43.4359683" lon="13.1799267"><ele>398.33333333333337</ele><time>2026-04-04T07:12:26.573Z</time></trkpt><trkpt lat="43.4358833" lon="13.1800967"><ele>399.66666666666663</ele><time>2026-04-04T07:12:27.574Z</time></trkpt><trkpt lat="43.4358033" lon="13.1802667"><ele>401.0</ele><time>2026-04-04T07:12:28.57Z</time></trkpt><trkpt lat="43.4357233" lon="13.180455"><ele>401.0</ele><time>2026-04-04T07:12:29.605Z</time></trkpt><trkpt lat="43.43564" lon="13.1806417"><ele>401.0</ele><time>2026-04-04T07:12:30.574Z</time></trkpt><trkpt lat="43.4355733" lon="13.1808233"><ele>401.0</ele><time>2026-04-04T07:12:31.574Z</time></trkpt><trkpt lat="43.4355033" lon="13.1810033"><ele>402.0</ele><time>2026-04-04T07:12:32.568Z</time></trkpt><trkpt lat="43.4354483" lon="13.1811533"><ele>403.0</ele><time>2026-04-04T07:12:33.575Z</time></trkpt><trkpt lat="43.4354" lon="13.181285"><ele>404.0</ele><time>2026-04-04T07:12:34.566Z</time></trkpt><trkpt lat="43.43536" lon="13.1813933"><ele>405.0</ele><time>2026-04-04T07:12:35.616Z</time></trkpt><trkpt lat="43.4353117" lon="13.1815117"><ele>406.0</ele><time>2026-04-04T07:12:36.57Z</time></trkpt><trkpt lat="43.4352667" lon="13.1816217"><ele>407.25</ele><time>2026-04-04T07:12:37.573Z</time></trkpt><trkpt lat="43.435215" lon="13.1817433"><ele>408.5</ele><time>2026-04-04T07:12:38.561Z</time></trkpt><trkpt lat="43.4351517" lon="13.1818883"><ele>409.75</ele><time>2026-04-04T07:12:39.576Z</time></trkpt><trkpt lat="43.4350917" lon="13.18203"><ele>411.0</ele><time>2026-04-04T07:12:40.575Z</time></trkpt><trkpt lat="43.4350183" lon="13.1821833"><ele>411.0</ele><time>2026-04-04T07:12:41.617Z</time></trkpt><trkpt lat="43.434935" lon="13.18233"><ele>411.0</ele><time>2026-04-04T07:12:42.569Z</time></trkpt><trkpt lat="43.43483" lon="13.182465"><ele>411.0</ele><time>2026-04-04T07:12:43.574Z</time></trkpt><trkpt lat="43.434725" lon="13.18257"><ele>411.0</ele><time>2026-04-04T07:12:44.574Z</time></trkpt><trkpt lat="43.4345983" lon="13.182675"><ele>414.66666666666663</ele><time>2026-04-04T07:12:45.572Z</time></trkpt><trkpt lat="43.4344583" lon="13.1827617"><ele>418.3333333333333</ele><time>2026-04-04T07:12:46.561Z</time></trkpt><trkpt lat="43.4343033" lon="13.1828317"><ele>422.0</ele><time>2026-04-04T07:12:47.62Z</time></trkpt><trkpt lat="43.4341467" lon="13.1829033"><ele>422.0</ele><time>2026-04-04T07:12:48.56Z</time></trkpt><trkpt lat="43.43399" lon="13.1829817"><ele>422.0</ele><time>2026-04-04T07:12:49.572Z</time></trkpt><trkpt lat="43.4338367" lon="13.1830683"><ele>422.0</ele><time>2026-04-04T07:12:50.573Z</time></trkpt><trkpt lat="43.4336917" lon="13.1831533"><ele>423.5</ele><time>2026-04-04T07:12:51.572Z</time></trkpt><trkpt lat="43.4335517" lon="13.1832333"><ele>425.0</ele><time>2026-04-04T07:12:52.57Z</time></trkpt><trkpt lat="43.4334183" lon="13.1833067"><ele>426.5</ele><time>2026-04-04T07:12:53.609Z</time></trkpt><trkpt lat="43.433305" lon="13.183375"><ele>428.0</ele><time>2026-04-04T07:12:54.562Z</time></trkpt><trkpt lat="43.4332" lon="13.183435"><ele>428.0</ele><time>2026-04-04T07:12:55.571Z</time></trkpt><trkpt lat="43.433095" lon="13.1835017"><ele>427.99999999999994</ele><time>2026-04-04T07:12:56.567Z</time></trkpt><trkpt lat="43.433005" lon="13.18357"><ele>427.99999999999994</ele><time>2026-04-04T07:12:57.571Z</time></trkpt><trkpt lat="43.4329133" lon="13.1836283"><ele>428.0</ele><time>2026-04-04T07:12:58.56Z</time></trkpt><trkpt lat="43.4328367" lon="13.1836683"><ele>428.0</ele><time>2026-04-04T07:12:59.61Z</time></trkpt><trkpt lat="43.4327667" lon="13.1836917"><ele>427.0</ele><time>2026-04-04T07:13:00.574Z</time></trkpt><trkpt lat="43.4326433" lon="13.1836633"><ele>426.0</ele><time>2026-04-04T07:13:02.573Z</time></trkpt><trkpt lat="43.4325667" lon="13.1835833"><ele>425.0</ele><time>2026-04-04T07:13:03.573Z</time></trkpt><trkpt lat="43.4324767" lon="13.183475"><ele>424.0</ele><time>2026-04-04T07:13:04.576Z</time></trkpt><trkpt lat="43.4323667" lon="13.1833367"><ele>421.6666666666667</ele><time>2026-04-04T07:13:05.615Z</time></trkpt><trkpt lat="43.43223" lon="13.1831683"><ele>419.33333333333337</ele><time>2026-04-04T07:13:06.575Z</time></trkpt><trkpt lat="43.4320983" lon="13.1830083"><ele>417.0</ele><time>2026-04-04T07:13:07.569Z</time></trkpt><trkpt lat="43.4319583" lon="13.182875"><ele>416.0</ele><time>2026-04-04T07:13:08.572Z</time></trkpt><trkpt lat="43.4318083" lon="13.1827617"><ele>415.0</ele><time>2026-04-04T07:13:09.575Z</time></trkpt><trkpt lat="43.4316717" lon="13.1826317"><ele>414.0</ele><time>2026-04-04T07:13:10.572Z</time></trkpt><trkpt lat="43.4315383" lon="13.1825017"><ele>414.0</ele><time>2026-04-04T07:13:11.618Z</time></trkpt><trkpt lat="43.4314033" lon="13.1823767"><ele>414.0</ele><time>2026-04-04T07:13:12.573Z</time></trkpt><trkpt lat="43.43127" lon="13.182255"><ele>414.0</ele><time>2026-04-04T07:13:13.572Z</time></trkpt><trkpt lat="43.4311367" lon="13.18214"><ele>410.33333333333337</ele><time>2026-04-04T07:13:14.572Z</time></trkpt><trkpt lat="43.4310067" lon="13.1820233"><ele>406.6666666666667</ele><time>2026-04-04T07:13:15.573Z</time></trkpt><trkpt lat="43.43088" lon="13.1819067"><ele>403.0</ele><time>2026-04-04T07:13:16.567Z</time></trkpt><trkpt lat="43.4307533" lon="13.1817867"><ele>403.0</ele><time>2026-04-04T07:13:17.62Z</time></trkpt><trkpt lat="43.43063" lon="13.18167"><ele>403.0</ele><time>2026-04-04T07:13:18.571Z</time></trkpt><trkpt lat="43.430505" lon="13.1815583"><ele>403.0</ele><time>2026-04-04T07:13:19.571Z</time></trkpt><trkpt lat="43.4303817" lon="13.1814433"><ele>403.0</ele><time>2026-04-04T07:13:20.564Z</time></trkpt><trkpt lat="43.430255" lon="13.1813317"><ele>400.0</ele><time>2026-04-04T07:13:21.572Z</time></trkpt><trkpt lat="43.430135" lon="13.1812067"><ele>397.0</ele><time>2026-04-04T07:13:22.559Z</time></trkpt><trkpt lat="43.43001" lon="13.1810817"><ele>394.0</ele><time>2026-04-04T07:13:23.624Z</time></trkpt><trkpt lat="43.4298783" lon="13.180955"><ele>394.0</ele><time>2026-04-04T07:13:24.57Z</time></trkpt><trkpt lat="43.4297417" lon="13.180825"><ele>394.0</ele><time>2026-04-04T07:13:25.575Z</time></trkpt><trkpt lat="43.4296083" lon="13.1806883"><ele>394.0</ele><time>2026-04-04T07:13:26.571Z</time></trkpt><trkpt lat="43.4294717" lon="13.180565"><ele>389.33333333333337</ele><time>2026-04-04T07:13:27.575Z</time></trkpt><trkpt lat="43.42933" lon="13.18044"><ele>384.6666666666667</ele><time>2026-04-04T07:13:28.572Z</time></trkpt><trkpt lat="43.4291933" lon="13.1803133"><ele>380.0</ele><time>2026-04-04T07:13:29.599Z</time></trkpt><trkpt lat="43.4290533" lon="13.1801933"><ele>380.0</ele><time>2026-04-04T07:13:30.583Z</time></trkpt><trkpt lat="43.42892" lon="13.1800717"><ele>380.0</ele><time>2026-04-04T07:13:31.579Z</time></trkpt><trkpt lat="43.4287833" lon="13.1799517"><ele>380.0</ele><time>2026-04-04T07:13:32.57Z</time></trkpt><trkpt lat="43.4286533" lon="13.17983"><ele>376.6666666666667</ele><time>2026-04-04T07:13:33.575Z</time></trkpt><trkpt lat="43.4285283" lon="13.179715"><ele>373.3333333333333</ele><time>2026-04-04T07:13:34.572Z</time></trkpt><trkpt lat="43.4283983" lon="13.17961"><ele>370.0</ele><time>2026-04-04T07:13:35.617Z</time></trkpt><trkpt lat="43.42826" lon="13.1795233"><ele>370.0</ele><time>2026-04-04T07:13:36.567Z</time></trkpt><trkpt lat="43.4281133" lon="13.1794467"><ele>370.0</ele><time>2026-04-04T07:13:37.573Z</time></trkpt><trkpt lat="43.4279583" lon="13.179385"><ele>370.0</ele><time>2026-04-04T07:13:38.571Z</time></trkpt><trkpt lat="43.4277983" lon="13.1793333"><ele>370.0</ele><time>2026-04-04T07:13:39.577Z</time></trkpt><trkpt lat="43.42764" lon="13.1792783"><ele>370.0</ele><time>2026-04-04T07:13:40.573Z</time></trkpt><trkpt lat="43.4274917" lon="13.179215"><ele>370.0</ele><time>2026-04-04T07:13:41.614Z</time></trkpt><trkpt lat="43.4273483" lon="13.1791333"><ele>370.0</ele><time>2026-04-04T07:13:42.573Z</time></trkpt><trkpt lat="43.427205" lon="13.17905"><ele>370.0</ele><time>2026-04-04T07:13:43.573Z</time></trkpt><trkpt lat="43.42706" lon="13.1789617"><ele>370.0</ele><time>2026-04-04T07:13:44.565Z</time></trkpt><trkpt lat="43.4269117" lon="13.178875"><ele>368.3333333333333</ele><time>2026-04-04T07:13:45.575Z</time></trkpt><trkpt lat="43.4267667" lon="13.1787867"><ele>366.6666666666667</ele><time>2026-04-04T07:13:46.57Z</time></trkpt><trkpt lat="43.4266267" lon="13.1786933"><ele>365.0</ele><time>2026-04-04T07:13:47.617Z</time></trkpt><trkpt lat="43.42649" lon="13.1785933"><ele>365.0</ele><time>2026-04-04T07:13:48.571Z</time></trkpt><trkpt lat="43.4263583" lon="13.1784683"><ele>365.0</ele><time>2026-04-04T07:13:49.576Z</time></trkpt><trkpt lat="43.42623" lon="13.1783267"><ele>365.0</ele><time>2026-04-04T07:13:50.573Z</time></trkpt><trkpt lat="43.4261033" lon="13.1781767"><ele>365.0</ele><time>2026-04-04T07:13:51.577Z</time></trkpt><trkpt lat="43.4259717" lon="13.1780317"><ele>365.0</ele><time>2026-04-04T07:13:52.574Z</time></trkpt><trkpt lat="43.4258367" lon="13.1778967"><ele>365.0</ele><time>2026-04-04T07:13:53.62Z</time></trkpt><trkpt lat="43.4257067" lon="13.1777633"><ele>365.0</ele><time>2026-04-04T07:13:54.577Z</time></trkpt><trkpt lat="43.42558" lon="13.1776267"><ele>365.0</ele><time>2026-04-04T07:13:55.573Z</time></trkpt><trkpt lat="43.4254583" lon="13.1774933"><ele>365.0</ele><time>2026-04-04T07:13:56.57Z</time></trkpt><trkpt lat="43.4253483" lon="13.1773733"><ele>365.0</ele><time>2026-04-04T07:13:57.573Z</time></trkpt><trkpt lat="43.425255" lon="13.17727"><ele>365.0</ele><time>2026-04-04T07:13:58.575Z</time></trkpt><trkpt lat="43.42517" lon="13.1771867"><ele>365.0</ele><time>2026-04-04T07:13:59.618Z</time></trkpt><trkpt lat="43.4250933" lon="13.1771067"><ele>365.0</ele><time>2026-04-04T07:14:00.571Z</time></trkpt><trkpt lat="43.42504" lon="13.1770383"><ele>365.0</ele><time>2026-04-04T07:14:01.579Z</time></trkpt><trkpt lat="43.4249933" lon="13.17689"><ele>365.0</ele><time>2026-04-04T07:14:03.577Z</time></trkpt><trkpt lat="43.42504" lon="13.176715"><ele>365.0</ele><time>2026-04-04T07:14:05.621Z</time></trkpt><trkpt lat="43.4251" lon="13.1766217"><ele>365.0</ele><time>2026-04-04T07:14:06.569Z</time></trkpt><trkpt lat="43.4251583" lon="13.17653"><ele>365.0</ele><time>2026-04-04T07:14:07.584Z</time></trkpt><trkpt lat="43.425205" lon="13.1764517"><ele>365.0</ele><time>2026-04-04T07:14:08.572Z</time></trkpt><trkpt lat="43.42525" lon="13.176375"><ele>365.0</ele><time>2026-04-04T07:14:09.565Z</time></trkpt><trkpt lat="43.4253067" lon="13.176255"><ele>365.0</ele><time>2026-04-04T07:14:11.616Z</time></trkpt><trkpt lat="43.42524" lon="13.1762517"><ele>365.0</ele><time>2026-04-04T07:14:14.575Z</time></trkpt><trkpt lat="43.4251883" lon="13.1763717"><ele>365.0</ele><time>2026-04-04T07:14:16.573Z</time></trkpt><trkpt lat="43.4251383" lon="13.1765017"><ele>365.0</ele><time>2026-04-04T07:14:17.61Z</time></trkpt><trkpt lat="43.4250917" lon="13.1766333"><ele>365.0</ele><time>2026-04-04T07:14:18.564Z</time></trkpt><trkpt lat="43.4250517" lon="13.17676"><ele>365.0</ele><time>2026-04-04T07:14:19.573Z</time></trkpt><trkpt lat="43.4250267" lon="13.17687"><ele>365.0</ele><time>2026-04-04T07:14:20.565Z</time></trkpt><trkpt lat="43.4250017" lon="13.17696"><ele>365.0</ele><time>2026-04-04T07:14:21.575Z</time></trkpt><trkpt lat="43.4249117" lon="13.17701"><ele>365.0</ele><time>2026-04-04T07:14:23.625Z</time></trkpt><trkpt lat="43.4248417" lon="13.1770033"><ele>365.0</ele><time>2026-04-04T07:14:24.566Z</time></trkpt><trkpt lat="43.4247617" lon="13.176965"><ele>365.0</ele><time>2026-04-04T07:14:25.571Z</time></trkpt><trkpt lat="43.4246883" lon="13.176885"><ele>365.0</ele><time>2026-04-04T07:14:26.572Z</time></trkpt><trkpt lat="43.4246167" lon="13.17679"><ele>365.0</ele><time>2026-04-04T07:14:27.57Z</time></trkpt><trkpt lat="43.4245467" lon="13.1766917"><ele>365.0</ele><time>2026-04-04T07:14:28.568Z</time></trkpt><trkpt lat="43.4244767" lon="13.1765717"><ele>365.0</ele><time>2026-04-04T07:14:29.62Z</time></trkpt><trkpt lat="43.4244183" lon="13.1764283"><ele>365.25</ele><time>2026-04-04T07:14:30.575Z</time></trkpt><trkpt lat="43.42437" lon="13.1762717"><ele>365.5</ele><time>2026-04-04T07:14:31.573Z</time></trkpt><trkpt lat="43.4243283" lon="13.17611"><ele>365.75</ele><time>2026-04-04T07:14:32.578Z</time></trkpt><trkpt lat="43.4242967" lon="13.1759467"><ele>366.0</ele><time>2026-04-04T07:14:33.571Z</time></trkpt><trkpt lat="43.4242517" lon="13.175795"><ele>364.25</ele><time>2026-04-04T07:14:34.573Z</time></trkpt><trkpt lat="43.4241833" lon="13.1756567"><ele>362.5</ele><time>2026-04-04T07:14:35.622Z</time></trkpt><trkpt lat="43.4241" lon="13.1755167"><ele>360.75</ele><time>2026-04-04T07:14:36.573Z</time></trkpt><trkpt lat="43.4240133" lon="13.1753733"><ele>359.0</ele><time>2026-04-04T07:14:37.574Z</time></trkpt><trkpt lat="43.4239283" lon="13.1752317"><ele>359.0</ele><time>2026-04-04T07:14:38.564Z</time></trkpt><trkpt lat="43.4238583" lon="13.175085"><ele>359.0</ele><time>2026-04-04T07:14:39.575Z</time></trkpt><trkpt lat="43.4238033" lon="13.17493"><ele>359.0</ele><time>2026-04-04T07:14:40.576Z</time></trkpt><trkpt lat="43.4237567" lon="13.17477"><ele>359.0</ele><time>2026-04-04T07:14:41.612Z</time></trkpt><trkpt lat="43.4237033" lon="13.1746083"><ele>359.5</ele><time>2026-04-04T07:14:42.565Z</time></trkpt><trkpt lat="43.4236433" lon="13.1744517"><ele>360.0</ele><time>2026-04-04T07:14:43.573Z</time></trkpt><trkpt lat="43.4235767" lon="13.17431"><ele>360.5</ele><time>2026-04-04T07:14:44.569Z</time></trkpt><trkpt lat="43.4235067" lon="13.174175"><ele>361.0</ele><time>2026-04-04T07:14:45.572Z</time></trkpt><trkpt lat="43.423435" lon="13.174055"><ele>359.0</ele><time>2026-04-04T07:14:46.571Z</time></trkpt><trkpt lat="43.423365" lon="13.173935"><ele>357.0</ele><time>2026-04-04T07:14:47.617Z</time></trkpt><trkpt lat="43.4233067" lon="13.1738117"><ele>355.0</ele><time>2026-04-04T07:14:48.573Z</time></trkpt><trkpt lat="43.423265" lon="13.173685"><ele>353.0</ele><time>2026-04-04T07:14:49.575Z</time></trkpt><trkpt lat="43.42323" lon="13.1735633"><ele>351.0</ele><time>2026-04-04T07:14:50.565Z</time></trkpt><trkpt lat="43.4231967" lon="13.173455"><ele>351.0</ele><time>2026-04-04T07:14:51.573Z</time></trkpt><trkpt lat="43.42315" lon="13.173355"><ele>351.0</ele><time>2026-04-04T07:14:52.572Z</time></trkpt><trkpt lat="43.4230917" lon="13.17326"><ele>351.0</ele><time>2026-04-04T07:14:53.612Z</time></trkpt><trkpt lat="43.423015" lon="13.173185"><ele>351.0</ele><time>2026-04-04T07:14:54.563Z</time></trkpt><trkpt lat="43.422925" lon="13.173145"><ele>351.0</ele><time>2026-04-04T07:14:55.575Z</time></trkpt><trkpt lat="43.4228317" lon="13.17313"><ele>350.0</ele><time>2026-04-04T07:14:56.572Z</time></trkpt><trkpt lat="43.42273" lon="13.1731617"><ele>349.0</ele><time>2026-04-04T07:14:57.576Z</time></trkpt><trkpt lat="43.4226317" lon="13.1731917"><ele>348.0</ele><time>2026-04-04T07:14:58.569Z</time></trkpt><trkpt lat="43.4225383" lon="13.17325"><ele>347.0</ele><time>2026-04-04T07:14:59.612Z</time></trkpt><trkpt lat="43.42246" lon="13.173335"><ele>346.0</ele><time>2026-04-04T07:15:00.571Z</time></trkpt><trkpt lat="43.4224" lon="13.1734317"><ele>346.0</ele><time>2026-04-04T07:15:01.574Z</time></trkpt><trkpt lat="43.4223283" lon="13.1735133"><ele>346.0</ele><time>2026-04-04T07:15:02.564Z</time></trkpt><trkpt lat="43.42225" lon="13.173565"><ele>346.0</ele><time>2026-04-04T07:15:03.57Z</time></trkpt><trkpt lat="43.4221683" lon="13.1735917"><ele>346.0</ele><time>2026-04-04T07:15:04.571Z</time></trkpt><trkpt lat="43.422065" lon="13.17357"><ele>346.0</ele><time>2026-04-04T07:15:05.619Z</time></trkpt><trkpt lat="43.42196" lon="13.1735233"><ele>343.6</ele><time>2026-04-04T07:15:06.569Z</time></trkpt><trkpt lat="43.4218533" lon="13.1734833"><ele>341.20000000000005</ele><time>2026-04-04T07:15:07.566Z</time></trkpt><trkpt lat="43.4217433" lon="13.1734683"><ele>338.79999999999995</ele><time>2026-04-04T07:15:08.572Z</time></trkpt><trkpt lat="43.421635" lon="13.1734633"><ele>336.4</ele><time>2026-04-04T07:15:09.575Z</time></trkpt><trkpt lat="43.4215367" lon="13.17348"><ele>334.0</ele><time>2026-04-04T07:15:10.564Z</time></trkpt><trkpt lat="43.42144" lon="13.1735117"><ele>334.0</ele><time>2026-04-04T07:15:11.612Z</time></trkpt><trkpt lat="43.4213467" lon="13.1735517"><ele>334.0</ele><time>2026-04-04T07:15:12.576Z</time></trkpt><trkpt lat="43.4212583" lon="13.1735883"><ele>334.0</ele><time>2026-04-04T07:15:13.575Z</time></trkpt><trkpt lat="43.421175" lon="13.1736183"><ele>334.0</ele><time>2026-04-04T07:15:14.566Z</time></trkpt><trkpt lat="43.42109" lon="13.173635"><ele>334.0</ele><time>2026-04-04T07:15:15.572Z</time></trkpt><trkpt lat="43.4209983" lon="13.1736367"><ele>330.59999999999997</ele><time>2026-04-04T07:15:16.558Z</time></trkpt><trkpt lat="43.4209083" lon="13.1736183"><ele>327.2</ele><time>2026-04-04T07:15:17.615Z</time></trkpt><trkpt lat="43.4208217" lon="13.1735967"><ele>323.79999999999995</ele><time>2026-04-04T07:15:18.571Z</time></trkpt><trkpt lat="43.420735" lon="13.1735467"><ele>320.4</ele><time>2026-04-04T07:15:19.571Z</time></trkpt><trkpt lat="43.4206483" lon="13.1734667"><ele>317.0</ele><time>2026-04-04T07:15:20.564Z</time></trkpt><trkpt lat="43.420555" lon="13.17338"><ele>314.0</ele><time>2026-04-04T07:15:21.575Z</time></trkpt><trkpt lat="43.4204633" lon="13.1732933"><ele>311.0</ele><time>2026-04-04T07:15:22.57Z</time></trkpt><trkpt lat="43.4203867" lon="13.1732067"><ele>308.0</ele><time>2026-04-04T07:15:23.609Z</time></trkpt><trkpt lat="43.4202833" lon="13.1731233"><ele>305.0</ele><time>2026-04-04T07:15:24.567Z</time></trkpt><trkpt lat="43.4201733" lon="13.1730467"><ele>304.0</ele><time>2026-04-04T07:15:25.564Z</time></trkpt><trkpt lat="43.42006" lon="13.1729817"><ele>303.0</ele><time>2026-04-04T07:15:26.565Z</time></trkpt><trkpt lat="43.4199333" lon="13.1729133"><ele>302.0</ele><time>2026-04-04T07:15:27.568Z</time></trkpt><trkpt lat="43.419795" lon="13.172845"><ele>301.0</ele><time>2026-04-04T07:15:28.561Z</time></trkpt><trkpt lat="43.4196817" lon="13.1727633"><ele>298.75</ele><time>2026-04-04T07:15:29.612Z</time></trkpt><trkpt lat="43.419565" lon="13.1726933"><ele>296.5</ele><time>2026-04-04T07:15:30.566Z</time></trkpt><trkpt lat="43.41946" lon="13.17264"><ele>294.25</ele><time>2026-04-04T07:15:31.578Z</time></trkpt><trkpt lat="43.4193483" lon="13.1725967"><ele>292.0</ele><time>2026-04-04T07:15:32.57Z</time></trkpt><trkpt lat="43.4192517" lon="13.1725533"><ele>292.0</ele><time>2026-04-04T07:15:33.57Z</time></trkpt><trkpt lat="43.41915" lon="13.17255"><ele>292.0</ele><time>2026-04-04T07:15:34.571Z</time></trkpt><trkpt lat="43.4190317" lon="13.1726067"><ele>292.0</ele><time>2026-04-04T07:15:35.616Z</time></trkpt><trkpt lat="43.4189233" lon="13.17263"><ele>292.0</ele><time>2026-04-04T07:15:36.573Z</time></trkpt><trkpt lat="43.4188283" lon="13.1726483"><ele>292.0</ele><time>2026-04-04T07:15:37.573Z</time></trkpt><trkpt lat="43.418745" lon="13.172635"><ele>291.8333333333333</ele><time>2026-04-04T07:15:38.569Z</time></trkpt><trkpt lat="43.4186767" lon="13.1726"><ele>291.66666666666663</ele><time>2026-04-04T07:15:39.575Z</time></trkpt><trkpt lat="43.4186217" lon="13.1725417"><ele>291.5</ele><time>2026-04-04T07:15:40.576Z</time></trkpt><trkpt lat="43.418575" lon="13.1724667"><ele>291.3333333333333</ele><time>2026-04-04T07:15:41.618Z</time></trkpt><trkpt lat="43.418555" lon="13.1723483"><ele>291.1666666666667</ele><time>2026-04-04T07:15:42.572Z</time></trkpt><trkpt lat="43.4185533" lon="13.17219"><ele>291.0</ele><time>2026-04-04T07:15:43.573Z</time></trkpt><trkpt lat="43.4185617" lon="13.17202"><ele>292.25</ele><time>2026-04-04T07:15:44.57Z</time></trkpt><trkpt lat="43.4185667" lon="13.1718467"><ele>293.5</ele><time>2026-04-04T07:15:45.572Z</time></trkpt><trkpt lat="43.418565" lon="13.1716867"><ele>294.75</ele><time>2026-04-04T07:15:46.572Z</time></trkpt><trkpt lat="43.418555" lon="13.171515"><ele>296.0</ele><time>2026-04-04T07:15:47.618Z</time></trkpt><trkpt lat="43.418545" lon="13.17136"><ele>297.0</ele><time>2026-04-04T07:15:48.559Z</time></trkpt><trkpt lat="43.4185167" lon="13.1712083"><ele>298.0</ele><time>2026-04-04T07:15:49.573Z</time></trkpt><trkpt lat="43.4184783" lon="13.17104"><ele>299.0</ele><time>2026-04-04T07:15:50.572Z</time></trkpt><trkpt lat="43.41843" lon="13.1709017"><ele>300.0</ele><time>2026-04-04T07:15:51.575Z</time></trkpt><trkpt lat="43.418355" lon="13.17084"><ele>301.0</ele><time>2026-04-04T07:15:52.58Z</time></trkpt><trkpt lat="43.4182833" lon="13.1708083"><ele>301.0</ele><time>2026-04-04T07:15:53.618Z</time></trkpt><trkpt lat="43.418215" lon="13.170825"><ele>301.0</ele><time>2026-04-04T07:15:54.565Z</time></trkpt><trkpt lat="43.41815" lon="13.1708767"><ele>301.0</ele><time>2026-04-04T07:15:55.571Z</time></trkpt><trkpt lat="43.4180817" lon="13.170965"><ele>301.0</ele><time>2026-04-04T07:15:56.569Z</time></trkpt><trkpt lat="43.4180033" lon="13.1710867"><ele>301.0</ele><time>2026-04-04T07:15:57.571Z</time></trkpt><trkpt lat="43.4179167" lon="13.1712233"><ele>304.5</ele><time>2026-04-04T07:15:58.572Z</time></trkpt><trkpt lat="43.417825" lon="13.171385"><ele>308.0</ele><time>2026-04-04T07:15:59.613Z</time></trkpt><trkpt lat="43.417735" lon="13.1715383"><ele>311.5</ele><time>2026-04-04T07:16:00.575Z</time></trkpt><trkpt lat="43.417655" lon="13.1716717"><ele>315.0</ele><time>2026-04-04T07:16:01.576Z</time></trkpt><trkpt lat="43.4175833" lon="13.1717767"><ele>315.0</ele><time>2026-04-04T07:16:02.574Z</time></trkpt><trkpt lat="43.4175083" lon="13.171845"><ele>315.0</ele><time>2026-04-04T07:16:03.577Z</time></trkpt><trkpt lat="43.4174267" lon="13.1718433"><ele>315.0</ele><time>2026-04-04T07:16:04.566Z</time></trkpt><trkpt lat="43.4173183" lon="13.1717033"><ele>315.0</ele><time>2026-04-04T07:16:05.609Z</time></trkpt><trkpt lat="43.4171983" lon="13.1715967"><ele>319.0</ele><time>2026-04-04T07:16:06.572Z</time></trkpt><trkpt lat="43.4170767" lon="13.1714817"><ele>323.0</ele><time>2026-04-04T07:16:07.572Z</time></trkpt><trkpt lat="43.4169633" lon="13.1713617"><ele>327.0</ele><time>2026-04-04T07:16:08.569Z</time></trkpt><trkpt lat="43.4168567" lon="13.1712333"><ele>331.0</ele><time>2026-04-04T07:16:09.574Z</time></trkpt><trkpt lat="43.416755" lon="13.1711"><ele>331.0</ele><time>2026-04-04T07:16:10.577Z</time></trkpt><trkpt lat="43.416665" lon="13.170955"><ele>331.0</ele><time>2026-04-04T07:16:11.619Z</time></trkpt><trkpt lat="43.4165767" lon="13.17081"><ele>331.0</ele><time>2026-04-04T07:16:12.573Z</time></trkpt><trkpt lat="43.41649" lon="13.1706567"><ele>331.0</ele><time>2026-04-04T07:16:13.578Z</time></trkpt><trkpt lat="43.4164" lon="13.1705017"><ele>334.25</ele><time>2026-04-04T07:16:14.578Z</time></trkpt><trkpt lat="43.41632" lon="13.17034"><ele>337.5</ele><time>2026-04-04T07:16:15.573Z</time></trkpt><trkpt lat="43.4162317" lon="13.1701833"><ele>340.75</ele><time>2026-04-04T07:16:16.576Z</time></trkpt><trkpt lat="43.41614" lon="13.1700333"><ele>344.0</ele><time>2026-04-04T07:16:17.616Z</time></trkpt><trkpt lat="43.41605" lon="13.1698883"><ele>348.0</ele><time>2026-04-04T07:16:18.575Z</time></trkpt><trkpt lat="43.4159683" lon="13.1697517"><ele>352.0</ele><time>2026-04-04T07:16:19.573Z</time></trkpt><trkpt lat="43.415895" lon="13.1696283"><ele>356.0</ele><time>2026-04-04T07:16:20.57Z</time></trkpt><trkpt lat="43.4158417" lon="13.1695183"><ele>360.0</ele><time>2026-04-04T07:16:21.572Z</time></trkpt><trkpt lat="43.4158067" lon="13.1694183"><ele>364.0</ele><time>2026-04-04T07:16:22.572Z</time></trkpt><trkpt lat="43.41584" lon="13.1692767"><ele>364.0</ele><time>2026-04-04T07:16:24.575Z</time></trkpt><trkpt lat="43.415975" lon="13.1692467"><ele>364.0</ele><time>2026-04-04T07:16:26.559Z</time></trkpt><trkpt lat="43.416085" lon="13.169235"><ele>364.0</ele><time>2026-04-04T07:16:27.569Z</time></trkpt><trkpt lat="43.4161933" lon="13.169205"><ele>364.0</ele><time>2026-04-04T07:16:28.572Z</time></trkpt><trkpt lat="43.4163033" lon="13.1691483"><ele>363.75</ele><time>2026-04-04T07:16:29.618Z</time></trkpt><trkpt lat="43.4164083" lon="13.169085"><ele>363.5</ele><time>2026-04-04T07:16:30.57Z</time></trkpt><trkpt lat="43.4165183" lon="13.1690217"><ele>363.25</ele><time>2026-04-04T07:16:31.577Z</time></trkpt><trkpt lat="43.4166317" lon="13.1689467"><ele>363.0</ele><time>2026-04-04T07:16:32.573Z</time></trkpt><trkpt lat="43.4167433" lon="13.1688567"><ele>364.59999999999997</ele><time>2026-04-04T07:16:33.576Z</time></trkpt><trkpt lat="43.4168617" lon="13.1687617"><ele>366.2</ele><time>2026-04-04T07:16:34.572Z</time></trkpt><trkpt lat="43.4169233" lon="13.1686483"><ele>367.8</ele><time>2026-04-04T07:16:35.614Z</time></trkpt><trkpt lat="43.4169583" lon="13.1685383"><ele>369.4</ele><time>2026-04-04T07:16:36.566Z</time></trkpt><trkpt lat="43.41697" lon="13.1684317"><ele>371.0</ele><time>2026-04-04T07:16:37.57Z</time></trkpt><trkpt lat="43.4169583" lon="13.1683217"><ele>371.0</ele><time>2026-04-04T07:16:38.57Z</time></trkpt><trkpt lat="43.4168783" lon="13.1681983"><ele>371.0</ele><time>2026-04-04T07:16:39.564Z</time></trkpt><trkpt lat="43.4167933" lon="13.1680783"><ele>371.0</ele><time>2026-04-04T07:16:40.563Z</time></trkpt><trkpt lat="43.416685" lon="13.1679667"><ele>371.0</ele><time>2026-04-04T07:16:41.613Z</time></trkpt><trkpt lat="43.4165633" lon="13.1678667"><ele>372.5</ele><time>2026-04-04T07:16:42.565Z</time></trkpt><trkpt lat="43.4164483" lon="13.1677683"><ele>374.0</ele><time>2026-04-04T07:16:43.573Z</time></trkpt><trkpt lat="43.416335" lon="13.16768"><ele>375.5</ele><time>2026-04-04T07:16:44.581Z</time></trkpt><trkpt lat="43.4162233" lon="13.1676067"><ele>377.0</ele><time>2026-04-04T07:16:45.575Z</time></trkpt><trkpt lat="43.4161233" lon="13.16754"><ele>377.0</ele><time>2026-04-04T07:16:46.575Z</time></trkpt><trkpt lat="43.4160133" lon="13.16748"><ele>377.0</ele><time>2026-04-04T07:16:47.617Z</time></trkpt><trkpt lat="43.4159" lon="13.16742"><ele>377.0</ele><time>2026-04-04T07:16:48.569Z</time></trkpt><trkpt lat="43.4157833" lon="13.167355"><ele>377.0</ele><time>2026-04-04T07:16:49.574Z</time></trkpt><trkpt lat="43.4156683" lon="13.1672767"><ele>373.75</ele><time>2026-04-04T07:16:50.573Z</time></trkpt><trkpt lat="43.4155517" lon="13.16719"><ele>370.5</ele><time>2026-04-04T07:16:51.573Z</time></trkpt><trkpt lat="43.415435" lon="13.16709"><ele>367.25</ele><time>2026-04-04T07:16:52.566Z</time></trkpt><trkpt lat="43.4153217" lon="13.1669767"><ele>364.0</ele><time>2026-04-04T07:16:53.617Z</time></trkpt><trkpt lat="43.41522" lon="13.1668483"><ele>369.75</ele><time>2026-04-04T07:16:54.566Z</time></trkpt><trkpt lat="43.4151279" lon="13.1667058"><ele>375.5</ele><time>2026-04-04T07:16:55.569Z</time></trkpt><trkpt lat="43.4150429" lon="13.1665505"><ele>381.25</ele><time>2026-04-04T07:16:56.574Z</time></trkpt><trkpt lat="43.4149616" lon="13.1663897"><ele>387.0</ele><time>2026-04-04T07:16:57.575Z</time></trkpt><trkpt lat="43.4148782" lon="13.1662289"><ele>387.0</ele><time>2026-04-04T07:16:58.562Z</time></trkpt><trkpt lat="43.4147884" lon="13.1660758"><ele>387.0</ele><time>2026-04-04T07:16:59.619Z</time></trkpt><trkpt lat="43.4146977" lon="13.165937"><ele>387.0</ele><time>2026-04-04T07:17:00.558Z</time></trkpt><trkpt lat="43.4146019" lon="13.1657996"><ele>387.0</ele><time>2026-04-04T07:17:01.565Z</time></trkpt><trkpt lat="43.4145031" lon="13.1656668"><ele>392.75</ele><time>2026-04-04T07:17:02.565Z</time></trkpt><trkpt lat="43.4144152" lon="13.165537"><ele>398.5</ele><time>2026-04-04T07:17:03.576Z</time></trkpt><trkpt lat="43.4143257" lon="13.1654227"><ele>404.25</ele><time>2026-04-04T07:17:04.567Z</time></trkpt><trkpt lat="43.4142503" lon="13.1653028"><ele>410.0</ele><time>2026-04-04T07:17:05.611Z</time></trkpt><trkpt lat="43.4141872" lon="13.1651908"><ele>409.99999999999994</ele><time>2026-04-04T07:17:06.563Z</time></trkpt><trkpt lat="43.4141369" lon="13.1650846"><ele>410.0</ele><time>2026-04-04T07:17:07.575Z</time></trkpt><trkpt lat="43.4140882" lon="13.1650066"><ele>410.0</ele><time>2026-04-04T07:17:08.563Z</time></trkpt><trkpt lat="43.4140078" lon="13.1649865"><ele>410.0</ele><time>2026-04-04T07:17:10.573Z</time></trkpt><trkpt lat="43.4139416" lon="13.1650965"><ele>409.99999999999994</ele><time>2026-04-04T07:17:12.575Z</time></trkpt><trkpt lat="43.4139081" lon="13.1652007"><ele>410.0</ele><time>2026-04-04T07:17:13.571Z</time></trkpt><trkpt lat="43.4138639" lon="13.1653115"><ele>412.99999999999994</ele><time>2026-04-04T07:17:14.572Z</time></trkpt><trkpt lat="43.4138095" lon="13.1654029"><ele>416.0</ele><time>2026-04-04T07:17:15.573Z</time></trkpt><trkpt lat="43.4137424" lon="13.1654787"><ele>419.0</ele><time>2026-04-04T07:17:16.57Z</time></trkpt><trkpt lat="43.4136715" lon="13.1655335"><ele>422.0</ele><time>2026-04-04T07:17:17.613Z</time></trkpt><trkpt lat="43.4135903" lon="13.1655785"><ele>424.99999999999994</ele><time>2026-04-04T07:17:18.569Z</time></trkpt><trkpt lat="43.413493" lon="13.1656247"><ele>428.0</ele><time>2026-04-04T07:17:19.569Z</time></trkpt><trkpt lat="43.4133864" lon="13.1656735"><ele>426.25</ele><time>2026-04-04T07:17:20.567Z</time></trkpt><trkpt lat="43.4132719" lon="13.1657264"><ele>424.5</ele><time>2026-04-04T07:17:21.569Z</time></trkpt><trkpt lat="43.4131599" lon="13.1657864"><ele>422.75</ele><time>2026-04-04T07:17:22.566Z</time></trkpt><trkpt lat="43.4130503" lon="13.1658539"><ele>421.0</ele><time>2026-04-04T07:17:23.609Z</time></trkpt><trkpt lat="43.4129617" lon="13.1658933"><ele>421.0</ele><time>2026-04-04T07:17:24.565Z</time></trkpt><trkpt lat="43.41285" lon="13.16597"><ele>421.0</ele><time>2026-04-04T07:17:25.565Z</time></trkpt><trkpt lat="43.4127267" lon="13.1660583"><ele>421.0</ele><time>2026-04-04T07:17:26.571Z</time></trkpt><trkpt lat="43.412615" lon="13.1661683"><ele>421.0</ele><time>2026-04-04T07:17:27.57Z</time></trkpt><trkpt lat="43.41254" lon="13.1663083"><ele>421.0</ele><time>2026-04-04T07:17:28.57Z</time></trkpt><trkpt lat="43.4124767" lon="13.1664617"><ele>421.0</ele><time>2026-04-04T07:17:29.602Z</time></trkpt><trkpt lat="43.412405" lon="13.1666267"><ele>421.0</ele><time>2026-04-04T07:17:30.576Z</time></trkpt><trkpt lat="43.412315" lon="13.16679"><ele>421.0</ele><time>2026-04-04T07:17:31.573Z</time></trkpt><trkpt lat="43.4122117" lon="13.16693"><ele>421.0</ele><time>2026-04-04T07:17:32.57Z</time></trkpt><trkpt lat="43.4121233" lon="13.1670333"><ele>421.0</ele><time>2026-04-04T07:17:33.574Z</time></trkpt><trkpt lat="43.412025" lon="13.1671433"><ele>421.0</ele><time>2026-04-04T07:17:34.574Z</time></trkpt><trkpt lat="43.4119583" lon="13.1672467"><ele>421.0</ele><time>2026-04-04T07:17:35.618Z</time></trkpt><trkpt lat="43.41189" lon="13.1673467"><ele>421.0</ele><time>2026-04-04T07:17:36.571Z</time></trkpt><trkpt lat="43.411795" lon="13.1674283"><ele>421.0</ele><time>2026-04-04T07:17:37.576Z</time></trkpt><trkpt lat="43.4116967" lon="13.16749"><ele>421.0</ele><time>2026-04-04T07:17:38.569Z</time></trkpt><trkpt lat="43.4116117" lon="13.1675133"><ele>421.0</ele><time>2026-04-04T07:17:39.573Z</time></trkpt><trkpt lat="43.4115283" lon="13.1675067"><ele>421.0</ele><time>2026-04-04T07:17:40.57Z</time></trkpt><trkpt lat="43.4114483" lon="13.167475"><ele>421.0</ele><time>2026-04-04T07:17:41.61Z</time></trkpt><trkpt lat="43.4113917" lon="13.1673583"><ele>423.20000000000005</ele><time>2026-04-04T07:17:42.56Z</time></trkpt><trkpt lat="43.41132" lon="13.1672733"><ele>425.40000000000003</ele><time>2026-04-04T07:17:43.575Z</time></trkpt><trkpt lat="43.4112467" lon="13.167165"><ele>427.6</ele><time>2026-04-04T07:17:44.582Z</time></trkpt><trkpt lat="43.4111617" lon="13.1670617"><ele>429.8</ele><time>2026-04-04T07:17:45.577Z</time></trkpt><trkpt lat="43.4110767" lon="13.1669667"><ele>432.0</ele><time>2026-04-04T07:17:46.574Z</time></trkpt><trkpt lat="43.4109833" lon="13.166925"><ele>432.0</ele><time>2026-04-04T07:17:47.62Z</time></trkpt><trkpt lat="43.4109" lon="13.1668867"><ele>432.00000000000006</ele><time>2026-04-04T07:17:48.567Z</time></trkpt><trkpt lat="43.4108033" lon="13.1668683"><ele>432.00000000000006</ele><time>2026-04-04T07:17:49.573Z</time></trkpt><trkpt lat="43.41071" lon="13.1668217"><ele>432.0</ele><time>2026-04-04T07:17:50.571Z</time></trkpt><trkpt lat="43.4106217" lon="13.16673"><ele>432.0</ele><time>2026-04-04T07:17:51.577Z</time></trkpt><trkpt lat="43.41054" lon="13.166625"><ele>435.0</ele><time>2026-04-04T07:17:52.575Z</time></trkpt><trkpt lat="43.41046" lon="13.1665333"><ele>438.00000000000006</ele><time>2026-04-04T07:17:53.602Z</time></trkpt><trkpt lat="43.4103683" lon="13.1664717"><ele>441.00000000000006</ele><time>2026-04-04T07:17:54.57Z</time></trkpt><trkpt lat="43.410265" lon="13.1664433"><ele>444.0</ele><time>2026-04-04T07:17:55.576Z</time></trkpt><trkpt lat="43.41014" lon="13.1664617"><ele>447.0</ele><time>2026-04-04T07:17:56.574Z</time></trkpt><trkpt lat="43.4100067" lon="13.166495"><ele>447.0</ele><time>2026-04-04T07:17:57.574Z</time></trkpt><trkpt lat="43.4098767" lon="13.1665267"><ele>447.0</ele><time>2026-04-04T07:17:58.572Z</time></trkpt><trkpt lat="43.40975" lon="13.16658"><ele>447.0</ele><time>2026-04-04T07:17:59.607Z</time></trkpt><trkpt lat="43.4096333" lon="13.16664"><ele>447.0</ele><time>2026-04-04T07:18:00.575Z</time></trkpt><trkpt lat="43.4095233" lon="13.16672"><ele>452.25</ele><time>2026-04-04T07:18:01.574Z</time></trkpt><trkpt lat="43.4094333" lon="13.16682"><ele>457.5</ele><time>2026-04-04T07:18:02.569Z</time></trkpt><trkpt lat="43.4093683" lon="13.16695"><ele>462.75</ele><time>2026-04-04T07:18:03.578Z</time></trkpt><trkpt lat="43.4093217" lon="13.1671167"><ele>468.0</ele><time>2026-04-04T07:18:04.577Z</time></trkpt><trkpt lat="43.4092583" lon="13.167315"><ele>464.25</ele><time>2026-04-04T07:18:05.61Z</time></trkpt><trkpt lat="43.4091833" lon="13.1674867"><ele>460.5</ele><time>2026-04-04T07:18:06.574Z</time></trkpt><trkpt lat="43.4090983" lon="13.1676367"><ele>456.75</ele><time>2026-04-04T07:18:07.568Z</time></trkpt><trkpt lat="43.4089867" lon="13.1677617"><ele>453.0</ele><time>2026-04-04T07:18:08.571Z</time></trkpt><trkpt lat="43.4088567" lon="13.1678683"><ele>455.25</ele><time>2026-04-04T07:18:09.57Z</time></trkpt><trkpt lat="43.4087217" lon="13.1679583"><ele>457.5</ele><time>2026-04-04T07:18:10.573Z</time></trkpt><trkpt lat="43.408585" lon="13.1680383"><ele>459.75</ele><time>2026-04-04T07:18:11.616Z</time></trkpt><trkpt lat="43.4084533" lon="13.168115"><ele>462.0</ele><time>2026-04-04T07:18:12.573Z</time></trkpt><trkpt lat="43.4083317" lon="13.1681933"><ele>462.0</ele><time>2026-04-04T07:18:13.573Z</time></trkpt><trkpt lat="43.40823" lon="13.1682783"><ele>462.00000000000006</ele><time>2026-04-04T07:18:14.571Z</time></trkpt><trkpt lat="43.4081367" lon="13.1683617"><ele>462.00000000000006</ele><time>2026-04-04T07:18:15.574Z</time></trkpt><trkpt lat="43.4080633" lon="13.1684417"><ele>462.0</ele><time>2026-04-04T07:18:16.576Z</time></trkpt><trkpt lat="43.4080033" lon="13.1684983"><ele>462.0</ele><time>2026-04-04T07:18:17.616Z</time></trkpt><trkpt lat="43.4079467" lon="13.1685533"><ele>461.6</ele><time>2026-04-04T07:18:19.571Z</time></trkpt><trkpt lat="43.4078917" lon="13.1686333"><ele>461.20000000000005</ele><time>2026-04-04T07:18:21.572Z</time></trkpt><trkpt lat="43.4078517" lon="13.1687917"><ele>460.8</ele><time>2026-04-04T07:18:23.611Z</time></trkpt><trkpt lat="43.40783" lon="13.1689283"><ele>460.4</ele><time>2026-04-04T07:18:24.571Z</time></trkpt><trkpt lat="43.4077967" lon="13.16906"><ele>460.0</ele><time>2026-04-04T07:18:25.567Z</time></trkpt><trkpt lat="43.40776" lon="13.1691817"><ele>460.00000000000006</ele><time>2026-04-04T07:18:26.572Z</time></trkpt><trkpt lat="43.407725" lon="13.1692917"><ele>460.0</ele><time>2026-04-04T07:18:27.573Z</time></trkpt><trkpt lat="43.40769" lon="13.1693983"><ele>460.0</ele><time>2026-04-04T07:18:28.573Z</time></trkpt><trkpt lat="43.4076533" lon="13.169505"><ele>460.0</ele><time>2026-04-04T07:18:29.612Z</time></trkpt><trkpt lat="43.4075967" lon="13.1696017"><ele>460.00000000000006</ele><time>2026-04-04T07:18:30.57Z</time></trkpt><trkpt lat="43.407555" lon="13.1696917"><ele>460.0</ele><time>2026-04-04T07:18:31.581Z</time></trkpt><trkpt lat="43.407485" lon="13.1697667"><ele>460.00000000000006</ele><time>2026-04-04T07:18:32.569Z</time></trkpt><trkpt lat="43.4074083" lon="13.1698167"><ele>460.0</ele><time>2026-04-04T07:18:33.572Z</time></trkpt><trkpt lat="43.4073267" lon="13.1698533"><ele>460.0</ele><time>2026-04-04T07:18:34.569Z</time></trkpt><trkpt lat="43.4072583" lon="13.1698983"><ele>460.0</ele><time>2026-04-04T07:18:35.614Z</time></trkpt><trkpt lat="43.4072" lon="13.1699633"><ele>460.00000000000006</ele><time>2026-04-04T07:18:36.565Z</time></trkpt><trkpt lat="43.4071583" lon="13.1700433"><ele>460.0</ele><time>2026-04-04T07:18:37.572Z</time></trkpt><trkpt lat="43.4071833" lon="13.1702283"><ele>457.6</ele><time>2026-04-04T07:18:39.568Z</time></trkpt><trkpt lat="43.4072967" lon="13.1703017"><ele>455.2</ele><time>2026-04-04T07:18:40.574Z</time></trkpt><trkpt lat="43.40739" lon="13.17037"><ele>452.79999999999995</ele><time>2026-04-04T07:18:41.617Z</time></trkpt><trkpt lat="43.40748" lon="13.1704383"><ele>450.4</ele><time>2026-04-04T07:18:42.569Z</time></trkpt><trkpt lat="43.4075717" lon="13.17051"><ele>448.0</ele><time>2026-04-04T07:18:43.572Z</time></trkpt><trkpt lat="43.40765" lon="13.1705783"><ele>448.0</ele><time>2026-04-04T07:18:44.564Z</time></trkpt><trkpt lat="43.4077367" lon="13.1706433"><ele>447.99999999999994</ele><time>2026-04-04T07:18:45.569Z</time></trkpt><trkpt lat="43.4078267" lon="13.1707133"><ele>447.99999999999994</ele><time>2026-04-04T07:18:46.567Z</time></trkpt><trkpt lat="43.40792" lon="13.17078"><ele>448.0</ele><time>2026-04-04T07:18:47.613Z</time></trkpt><trkpt lat="43.4080017" lon="13.17085"><ele>448.0</ele><time>2026-04-04T07:18:48.573Z</time></trkpt><trkpt lat="43.4080833" lon="13.1709183"><ele>443.50000000000006</ele><time>2026-04-04T07:18:49.574Z</time></trkpt><trkpt lat="43.4081567" lon="13.1709867"><ele>439.0</ele><time>2026-04-04T07:18:50.571Z</time></trkpt><trkpt lat="43.408225" lon="13.1710533"><ele>434.5</ele><time>2026-04-04T07:18:51.576Z</time></trkpt><trkpt lat="43.408275" lon="13.17113"><ele>430.0</ele><time>2026-04-04T07:18:52.569Z</time></trkpt><trkpt lat="43.4083133" lon="13.1712183"><ele>425.50000000000006</ele><time>2026-04-04T07:18:53.601Z</time></trkpt><trkpt lat="43.408275" lon="13.1713433"><ele>421.0</ele><time>2026-04-04T07:18:54.569Z</time></trkpt><trkpt lat="43.408235" lon="13.171465"><ele>419.6</ele><time>2026-04-04T07:18:55.573Z</time></trkpt><trkpt lat="43.40819" lon="13.1715917"><ele>418.20000000000005</ele><time>2026-04-04T07:18:56.56Z</time></trkpt><trkpt lat="43.408145" lon="13.17172"><ele>416.79999999999995</ele><time>2026-04-04T07:18:57.577Z</time></trkpt><trkpt lat="43.4081017" lon="13.171845"><ele>415.4</ele><time>2026-04-04T07:18:58.579Z</time></trkpt><trkpt lat="43.40808" lon="13.1719733"><ele>414.0</ele><time>2026-04-04T07:18:59.603Z</time></trkpt><trkpt lat="43.408065" lon="13.1721117"><ele>414.0</ele><time>2026-04-04T07:19:00.571Z</time></trkpt><trkpt lat="43.40806" lon="13.1722583"><ele>414.0</ele><time>2026-04-04T07:19:01.57Z</time></trkpt><trkpt lat="43.40806" lon="13.1724067"><ele>414.0</ele><time>2026-04-04T07:19:02.562Z</time></trkpt><trkpt lat="43.4080617" lon="13.1725633"><ele>414.0</ele><time>2026-04-04T07:19:03.572Z</time></trkpt><trkpt lat="43.4080667" lon="13.172725"><ele>414.0</ele><time>2026-04-04T07:19:04.569Z</time></trkpt><trkpt lat="43.408075" lon="13.1728917"><ele>412.0</ele><time>2026-04-04T07:19:05.622Z</time></trkpt><trkpt lat="43.4080817" lon="13.17306"><ele>410.0</ele><time>2026-04-04T07:19:06.571Z</time></trkpt><trkpt lat="43.408085" lon="13.1732267"><ele>408.0</ele><time>2026-04-04T07:19:07.575Z</time></trkpt><trkpt lat="43.408095" lon="13.173385"><ele>406.0</ele><time>2026-04-04T07:19:08.57Z</time></trkpt><trkpt lat="43.408105" lon="13.173535"><ele>404.20000000000005</ele><time>2026-04-04T07:19:09.572Z</time></trkpt><trkpt lat="43.4081133" lon="13.173675"><ele>402.40000000000003</ele><time>2026-04-04T07:19:10.567Z</time></trkpt><trkpt lat="43.4081233" lon="13.1737967"><ele>400.6</ele><time>2026-04-04T07:19:11.618Z</time></trkpt><trkpt lat="43.4081317" lon="13.1738917"><ele>398.8</ele><time>2026-04-04T07:19:12.568Z</time></trkpt><trkpt lat="43.4080883" lon="13.1740033"><ele>397.0</ele><time>2026-04-04T07:19:14.568Z</time></trkpt><trkpt lat="43.4079683" lon="13.1739767"><ele>396.25</ele><time>2026-04-04T07:19:16.574Z</time></trkpt><trkpt lat="43.4078867" lon="13.1739383"><ele>395.5</ele><time>2026-04-04T07:19:17.615Z</time></trkpt><trkpt lat="43.4077767" lon="13.173835"><ele>394.75</ele><time>2026-04-04T07:19:18.567Z</time></trkpt><trkpt lat="43.4076633" lon="13.1737317"><ele>394.0</ele><time>2026-04-04T07:19:19.569Z</time></trkpt><trkpt lat="43.4075467" lon="13.1736267"><ele>394.0</ele><time>2026-04-04T07:19:20.58Z</time></trkpt><trkpt lat="43.4074283" lon="13.173525"><ele>394.0</ele><time>2026-04-04T07:19:21.574Z</time></trkpt><trkpt lat="43.4073067" lon="13.1734233"><ele>394.0</ele><time>2026-04-04T07:19:22.575Z</time></trkpt><trkpt lat="43.4071833" lon="13.17333"><ele>394.0</ele><time>2026-04-04T07:19:23.6Z</time></trkpt><trkpt lat="43.407055" lon="13.17324"><ele>395.75</ele><time>2026-04-04T07:19:24.565Z</time></trkpt><trkpt lat="43.4069267" lon="13.1731517"><ele>397.5</ele><time>2026-04-04T07:19:25.566Z</time></trkpt><trkpt lat="43.4067983" lon="13.1730767"><ele>399.25</ele><time>2026-04-04T07:19:26.576Z</time></trkpt><trkpt lat="43.40667" lon="13.1730017"><ele>401.0</ele><time>2026-04-04T07:19:27.575Z</time></trkpt><trkpt lat="43.4065383" lon="13.1729367"><ele>401.0</ele><time>2026-04-04T07:19:28.573Z</time></trkpt><trkpt lat="43.4064117" lon="13.172875"><ele>401.0</ele><time>2026-04-04T07:19:29.606Z</time></trkpt><trkpt lat="43.406285" lon="13.172825"><ele>401.0</ele><time>2026-04-04T07:19:30.573Z</time></trkpt><trkpt lat="43.40615" lon="13.1727783"><ele>401.0</ele><time>2026-04-04T07:19:31.57Z</time></trkpt><trkpt lat="43.4060167" lon="13.1727117"><ele>400.25</ele><time>2026-04-04T07:19:32.572Z</time></trkpt><trkpt lat="43.405895" lon="13.172625"><ele>399.5</ele><time>2026-04-04T07:19:33.575Z</time></trkpt><trkpt lat="43.40579" lon="13.172525"><ele>398.75</ele><time>2026-04-04T07:19:34.569Z</time></trkpt><trkpt lat="43.4057017" lon="13.1724283"><ele>398.0</ele><time>2026-04-04T07:19:35.616Z</time></trkpt><trkpt lat="43.4056333" lon="13.1723417"><ele>397.8333333333333</ele><time>2026-04-04T07:19:36.571Z</time></trkpt><trkpt lat="43.4055783" lon="13.17226"><ele>397.66666666666663</ele><time>2026-04-04T07:19:37.572Z</time></trkpt><trkpt lat="43.40553" lon="13.1721733"><ele>397.5</ele><time>2026-04-04T07:19:38.569Z</time></trkpt><trkpt lat="43.4055017" lon="13.1720717"><ele>397.33333333333337</ele><time>2026-04-04T07:19:39.576Z</time></trkpt><trkpt lat="43.4054983" lon="13.1719533"><ele>397.1666666666667</ele><time>2026-04-04T07:19:40.573Z</time></trkpt><trkpt lat="43.4055183" lon="13.1718133"><ele>397.0</ele><time>2026-04-04T07:19:41.616Z</time></trkpt><trkpt lat="43.40555" lon="13.1716217"><ele>398.0</ele><time>2026-04-04T07:19:42.573Z</time></trkpt><trkpt lat="43.4055933" lon="13.1713983"><ele>399.0</ele><time>2026-04-04T07:19:43.576Z</time></trkpt><trkpt lat="43.4056433" lon="13.17116"><ele>400.0</ele><time>2026-04-04T07:19:44.561Z</time></trkpt><trkpt lat="43.4056683" lon="13.1709417"><ele>400.0</ele><time>2026-04-04T07:19:45.572Z</time></trkpt><trkpt lat="43.4056917" lon="13.1707317"><ele>400.0</ele><time>2026-04-04T07:19:46.574Z</time></trkpt><trkpt lat="43.405715" lon="13.170525"><ele>400.0</ele><time>2026-04-04T07:19:47.623Z</time></trkpt><trkpt lat="43.40574" lon="13.17031"><ele>398.0</ele><time>2026-04-04T07:19:48.569Z</time></trkpt><trkpt lat="43.4057583" lon="13.1701"><ele>396.0</ele><time>2026-04-04T07:19:49.57Z</time></trkpt><trkpt lat="43.405765" lon="13.1699017"><ele>394.0</ele><time>2026-04-04T07:19:50.571Z</time></trkpt><trkpt lat="43.4057833" lon="13.169685"><ele>392.75</ele><time>2026-04-04T07:19:51.573Z</time></trkpt><trkpt lat="43.4057733" lon="13.1694967"><ele>391.5</ele><time>2026-04-04T07:19:52.569Z</time></trkpt><trkpt lat="43.4057733" lon="13.169315"><ele>390.25</ele><time>2026-04-04T07:19:53.621Z</time></trkpt><trkpt lat="43.405775" lon="13.16914"><ele>389.0</ele><time>2026-04-04T07:19:54.564Z</time></trkpt><trkpt lat="43.405795" lon="13.168965"><ele>389.0</ele><time>2026-04-04T07:19:55.574Z</time></trkpt><trkpt lat="43.4058183" lon="13.16878"><ele>389.0</ele><time>2026-04-04T07:19:56.574Z</time></trkpt><trkpt lat="43.4058483" lon="13.168565"><ele>389.0</ele><time>2026-04-04T07:19:57.572Z</time></trkpt><trkpt lat="43.4058667" lon="13.168355"><ele>389.0</ele><time>2026-04-04T07:19:58.57Z</time></trkpt><trkpt lat="43.4058867" lon="13.168165"><ele>389.25</ele><time>2026-04-04T07:19:59.616Z</time></trkpt><trkpt lat="43.4059033" lon="13.167975"><ele>389.5</ele><time>2026-04-04T07:20:00.578Z</time></trkpt><trkpt lat="43.405915" lon="13.1677983"><ele>389.75</ele><time>2026-04-04T07:20:01.571Z</time></trkpt><trkpt lat="43.4059183" lon="13.16763"><ele>390.0</ele><time>2026-04-04T07:20:02.572Z</time></trkpt><trkpt lat="43.40591" lon="13.1674867"><ele>390.6666666666667</ele><time>2026-04-04T07:20:03.573Z</time></trkpt><trkpt lat="43.4058983" lon="13.1673533"><ele>391.33333333333337</ele><time>2026-04-04T07:20:04.564Z</time></trkpt><trkpt lat="43.40587" lon="13.16726"><ele>392.0</ele><time>2026-04-04T07:20:05.611Z</time></trkpt><trkpt lat="43.4058217" lon="13.1671883"><ele>392.6666666666667</ele><time>2026-04-04T07:20:06.567Z</time></trkpt><trkpt lat="43.4057383" lon="13.16716"><ele>393.33333333333337</ele><time>2026-04-04T07:20:07.572Z</time></trkpt><trkpt lat="43.4056417" lon="13.1671433"><ele>394.0</ele><time>2026-04-04T07:20:08.572Z</time></trkpt><trkpt lat="43.40555" lon="13.1671383"><ele>394.4</ele><time>2026-04-04T07:20:09.572Z</time></trkpt><trkpt lat="43.4054583" lon="13.167175"><ele>394.79999999999995</ele><time>2026-04-04T07:20:10.565Z</time></trkpt><trkpt lat="43.405385" lon="13.1672817"><ele>395.20000000000005</ele><time>2026-04-04T07:20:11.615Z</time></trkpt><trkpt lat="43.4053117" lon="13.1674067"><ele>395.6</ele><time>2026-04-04T07:20:12.567Z</time></trkpt><trkpt lat="43.4052483" lon="13.16752"><ele>396.0</ele><time>2026-04-04T07:20:13.57Z</time></trkpt><trkpt lat="43.4051717" lon="13.1676417"><ele>396.0</ele><time>2026-04-04T07:20:14.568Z</time></trkpt><trkpt lat="43.4050917" lon="13.1677617"><ele>396.0</ele><time>2026-04-04T07:20:15.574Z</time></trkpt><trkpt lat="43.4050033" lon="13.1678767"><ele>396.0</ele><time>2026-04-04T07:20:16.571Z</time></trkpt><trkpt lat="43.4049083" lon="13.168"><ele>396.0</ele><time>2026-04-04T07:20:17.62Z</time></trkpt><trkpt lat="43.4048117" lon="13.1681133"><ele>394.25</ele><time>2026-04-04T07:20:18.575Z</time></trkpt><trkpt lat="43.404715" lon="13.1682283"><ele>392.5</ele><time>2026-04-04T07:20:19.571Z</time></trkpt><trkpt lat="43.404615" lon="13.16835"><ele>390.75</ele><time>2026-04-04T07:20:20.565Z</time></trkpt><trkpt lat="43.4045167" lon="13.1684717"><ele>389.0</ele><time>2026-04-04T07:20:21.57Z</time></trkpt><trkpt lat="43.404415" lon="13.1685983"><ele>392.0</ele><time>2026-04-04T07:20:22.574Z</time></trkpt><trkpt lat="43.4043117" lon="13.1687267"><ele>395.0</ele><time>2026-04-04T07:20:23.621Z</time></trkpt><trkpt lat="43.40421" lon="13.1688467"><ele>398.0</ele><time>2026-04-04T07:20:24.566Z</time></trkpt><trkpt lat="43.4041183" lon="13.16895"><ele>401.0</ele><time>2026-04-04T07:20:25.572Z</time></trkpt><trkpt lat="43.4040333" lon="13.1690283"><ele>400.99999999999994</ele><time>2026-04-04T07:20:26.572Z</time></trkpt><trkpt lat="43.40396" lon="13.1690583"><ele>401.0</ele><time>2026-04-04T07:20:27.573Z</time></trkpt><trkpt lat="43.4038767" lon="13.1690533"><ele>401.0</ele><time>2026-04-04T07:20:28.575Z</time></trkpt><trkpt lat="43.4038017" lon="13.169005"><ele>401.0</ele><time>2026-04-04T07:20:29.613Z</time></trkpt><trkpt lat="43.4037333" lon="13.1689517"><ele>400.99999999999994</ele><time>2026-04-04T07:20:30.567Z</time></trkpt><trkpt lat="43.40367" lon="13.1689083"><ele>401.0</ele><time>2026-04-04T07:20:31.572Z</time></trkpt><trkpt lat="43.4036017" lon="13.1689883"><ele>404.6</ele><time>2026-04-04T07:20:33.577Z</time></trkpt><trkpt lat="43.4035983" lon="13.169145"><ele>408.20000000000005</ele><time>2026-04-04T07:20:35.615Z</time></trkpt><trkpt lat="43.40363" lon="13.1692633"><ele>411.79999999999995</ele><time>2026-04-04T07:20:36.569Z</time></trkpt><trkpt lat="43.40367" lon="13.169405"><ele>415.4</ele><time>2026-04-04T07:20:37.577Z</time></trkpt><trkpt lat="43.4036967" lon="13.1695467"><ele>419.0</ele><time>2026-04-04T07:20:38.574Z</time></trkpt><trkpt lat="43.4037033" lon="13.1697117"><ele>420.0</ele><time>2026-04-04T07:20:39.574Z</time></trkpt><trkpt lat="43.403705" lon="13.1698733"><ele>421.0</ele><time>2026-04-04T07:20:40.572Z</time></trkpt><trkpt lat="43.4037033" lon="13.170035"><ele>422.0</ele><time>2026-04-04T07:20:41.616Z</time></trkpt><trkpt lat="43.4036817" lon="13.17018"><ele>423.0</ele><time>2026-04-04T07:20:42.572Z</time></trkpt><trkpt lat="43.4036367" lon="13.1703217"><ele>423.0</ele><time>2026-04-04T07:20:43.575Z</time></trkpt><trkpt lat="43.4035733" lon="13.17045"><ele>423.0</ele><time>2026-04-04T07:20:44.57Z</time></trkpt><trkpt lat="43.4034583" lon="13.170575"><ele>423.0</ele><time>2026-04-04T07:20:45.573Z</time></trkpt><trkpt lat="43.4033367" lon="13.17067"><ele>423.0</ele><time>2026-04-04T07:20:46.568Z</time></trkpt><trkpt lat="43.403235" lon="13.1707567"><ele>423.25</ele><time>2026-04-04T07:20:47.616Z</time></trkpt><trkpt lat="43.4031467" lon="13.1708583"><ele>423.5</ele><time>2026-04-04T07:20:48.571Z</time></trkpt><trkpt lat="43.4030783" lon="13.170975"><ele>423.75</ele><time>2026-04-04T07:20:49.573Z</time></trkpt><trkpt lat="43.4030167" lon="13.1711117"><ele>424.0</ele><time>2026-04-04T07:20:50.571Z</time></trkpt><trkpt lat="43.4029667" lon="13.1712867"><ele>426.5</ele><time>2026-04-04T07:20:51.577Z</time></trkpt><trkpt lat="43.4029167" lon="13.1714517"><ele>429.0</ele><time>2026-04-04T07:20:52.567Z</time></trkpt><trkpt lat="43.4028567" lon="13.1716117"><ele>431.5</ele><time>2026-04-04T07:20:53.589Z</time></trkpt><trkpt lat="43.4027933" lon="13.1717667"><ele>434.0</ele><time>2026-04-04T07:20:54.572Z</time></trkpt><trkpt lat="43.4027233" lon="13.1719033"><ele>434.0</ele><time>2026-04-04T07:20:55.571Z</time></trkpt><trkpt lat="43.4026467" lon="13.1720267"><ele>434.0</ele><time>2026-04-04T07:20:56.572Z</time></trkpt><trkpt lat="43.4025683" lon="13.1721283"><ele>434.0</ele><time>2026-04-04T07:20:57.573Z</time></trkpt><trkpt lat="43.4024867" lon="13.1722167"><ele>434.0</ele><time>2026-04-04T07:20:58.57Z</time></trkpt><trkpt lat="43.40242" lon="13.1722817"><ele>434.0</ele><time>2026-04-04T07:20:59.616Z</time></trkpt><trkpt lat="43.4023667" lon="13.1723367"><ele>433.6</ele><time>2026-04-04T07:21:00.565Z</time></trkpt><trkpt lat="43.4022767" lon="13.17243"><ele>433.2</ele><time>2026-04-04T07:21:02.576Z</time></trkpt><trkpt lat="43.402195" lon="13.1725267"><ele>432.80000000000007</ele><time>2026-04-04T07:21:04.574Z</time></trkpt><trkpt lat="43.40214" lon="13.1725883"><ele>432.40000000000003</ele><time>2026-04-04T07:21:05.616Z</time></trkpt><trkpt lat="43.4020767" lon="13.1726617"><ele>432.0</ele><time>2026-04-04T07:21:06.56Z</time></trkpt><trkpt lat="43.401995" lon="13.1727517"><ele>432.0</ele><time>2026-04-04T07:21:07.573Z</time></trkpt><trkpt lat="43.401905" lon="13.1728433"><ele>432.0</ele><time>2026-04-04T07:21:08.569Z</time></trkpt><trkpt lat="43.4017983" lon="13.1729417"><ele>432.0</ele><time>2026-04-04T07:21:09.579Z</time></trkpt><trkpt lat="43.4016867" lon="13.1730233"><ele>432.0</ele><time>2026-04-04T07:21:10.579Z</time></trkpt><trkpt lat="43.401565" lon="13.1731"><ele>432.0</ele><time>2026-04-04T07:21:11.621Z</time></trkpt><trkpt lat="43.4014483" lon="13.1731683"><ele>432.0</ele><time>2026-04-04T07:21:12.571Z</time></trkpt><trkpt lat="43.4013283" lon="13.173245"><ele>432.0</ele><time>2026-04-04T07:21:13.573Z</time></trkpt><trkpt lat="43.4012117" lon="13.1733183"><ele>432.0</ele><time>2026-04-04T07:21:14.569Z</time></trkpt><trkpt lat="43.40109" lon="13.1734033"><ele>429.5</ele><time>2026-04-04T07:21:15.567Z</time></trkpt><trkpt lat="43.40097" lon="13.1734817"><ele>427.0</ele><time>2026-04-04T07:21:16.559Z</time></trkpt><trkpt lat="43.4008633" lon="13.1735483"><ele>424.5</ele><time>2026-04-04T07:21:17.612Z</time></trkpt><trkpt lat="43.400765" lon="13.1736133"><ele>422.0</ele><time>2026-04-04T07:21:18.575Z</time></trkpt><trkpt lat="43.40067" lon="13.17369"><ele>422.0</ele><time>2026-04-04T07:21:19.58Z</time></trkpt><trkpt lat="43.4005817" lon="13.17379"><ele>422.0</ele><time>2026-04-04T07:21:20.566Z</time></trkpt><trkpt lat="43.4005117" lon="13.1738983"><ele>422.0</ele><time>2026-04-04T07:21:21.572Z</time></trkpt><trkpt lat="43.4004567" lon="13.17403"><ele>422.0</ele><time>2026-04-04T07:21:22.573Z</time></trkpt><trkpt lat="43.400415" lon="13.1741583"><ele>422.0</ele><time>2026-04-04T07:21:23.629Z</time></trkpt><trkpt lat="43.4003733" lon="13.1742783"><ele>422.6</ele><time>2026-04-04T07:21:24.57Z</time></trkpt><trkpt lat="43.4003317" lon="13.1744017"><ele>423.20000000000005</ele><time>2026-04-04T07:21:25.574Z</time></trkpt><trkpt lat="43.40028" lon="13.1745117"><ele>423.8</ele><time>2026-04-04T07:21:26.573Z</time></trkpt><trkpt lat="43.40022" lon="13.1746067"><ele>424.4</ele><time>2026-04-04T07:21:27.576Z</time></trkpt><trkpt lat="43.4001517" lon="13.1746667"><ele>425.0</ele><time>2026-04-04T07:21:28.574Z</time></trkpt><trkpt lat="43.4000667" lon="13.17467"><ele>425.0</ele><time>2026-04-04T07:21:29.615Z</time></trkpt><trkpt lat="43.3999783" lon="13.1746283"><ele>425.0</ele><time>2026-04-04T07:21:30.575Z</time></trkpt><trkpt lat="43.3998867" lon="13.1745767"><ele>425.0</ele><time>2026-04-04T07:21:31.568Z</time></trkpt><trkpt lat="43.399815" lon="13.17451"><ele>425.0</ele><time>2026-04-04T07:21:32.578Z</time></trkpt><trkpt lat="43.399695" lon="13.1745333"><ele>425.0</ele><time>2026-04-04T07:21:34.577Z</time></trkpt><trkpt lat="43.39966" lon="13.1746183"><ele>425.0</ele><time>2026-04-04T07:21:35.605Z</time></trkpt><trkpt lat="43.3996683" lon="13.17472"><ele>425.0</ele><time>2026-04-04T07:21:36.57Z</time></trkpt><trkpt lat="43.3996733" lon="13.174815"><ele>425.0</ele><time>2026-04-04T07:21:37.572Z</time></trkpt><trkpt lat="43.3997033" lon="13.1749583"><ele>425.0</ele><time>2026-04-04T07:21:39.579Z</time></trkpt><trkpt lat="43.3997567" lon="13.17508"><ele>425.0</ele><time>2026-04-04T07:21:41.617Z</time></trkpt><trkpt lat="43.3997217" lon="13.1752383"><ele>425.0</ele><time>2026-04-04T07:21:43.573Z</time></trkpt><trkpt lat="43.399685" lon="13.1753417"><ele>425.0</ele><time>2026-04-04T07:21:44.574Z</time></trkpt><trkpt lat="43.399625" lon="13.1754617"><ele>425.0</ele><time>2026-04-04T07:21:45.576Z</time></trkpt><trkpt lat="43.3995633" lon="13.17559"><ele>425.0</ele><time>2026-04-04T07:21:46.572Z</time></trkpt><trkpt lat="43.3994933" lon="13.175715"><ele>425.0</ele><time>2026-04-04T07:21:47.62Z</time></trkpt><trkpt lat="43.399415" lon="13.1758483"><ele>423.2</ele><time>2026-04-04T07:21:48.571Z</time></trkpt><trkpt lat="43.399345" lon="13.1759717"><ele>421.4</ele><time>2026-04-04T07:21:49.568Z</time></trkpt><trkpt lat="43.39928" lon="13.1760783"><ele>419.6</ele><time>2026-04-04T07:21:50.57Z</time></trkpt><trkpt lat="43.39922" lon="13.17618"><ele>417.8</ele><time>2026-04-04T07:21:51.572Z</time></trkpt><trkpt lat="43.3991717" lon="13.1762783"><ele>416.0</ele><time>2026-04-04T07:21:52.571Z</time></trkpt><trkpt lat="43.3991333" lon="13.1763817"><ele>416.0</ele><time>2026-04-04T07:21:53.638Z</time></trkpt><trkpt lat="43.3991217" lon="13.176485"><ele>416.0</ele><time>2026-04-04T07:21:54.577Z</time></trkpt><trkpt lat="43.3991317" lon="13.176595"><ele>416.0</ele><time>2026-04-04T07:21:55.574Z</time></trkpt><trkpt lat="43.3991567" lon="13.1766933"><ele>416.0</ele><time>2026-04-04T07:21:56.571Z</time></trkpt><trkpt lat="43.3993233" lon="13.1766967"><ele>416.0</ele><time>2026-04-04T07:21:57.573Z</time></trkpt><trkpt lat="43.399415" lon="13.17672"><ele>413.6</ele><time>2026-04-04T07:21:58.574Z</time></trkpt><trkpt lat="43.3995183" lon="13.176735"><ele>411.20000000000005</ele><time>2026-04-04T07:21:59.583Z</time></trkpt><trkpt lat="43.3996233" lon="13.1767517"><ele>408.79999999999995</ele><time>2026-04-04T07:22:00.576Z</time></trkpt><trkpt lat="43.3997333" lon="13.1767833"><ele>406.4</ele><time>2026-04-04T07:22:01.571Z</time></trkpt><trkpt lat="43.3998433" lon="13.176835"><ele>404.0</ele><time>2026-04-04T07:22:02.574Z</time></trkpt><trkpt lat="43.3999467" lon="13.1769067"><ele>401.75</ele><time>2026-04-04T07:22:03.57Z</time></trkpt><trkpt lat="43.4000417" lon="13.177"><ele>399.5</ele><time>2026-04-04T07:22:04.571Z</time></trkpt><trkpt lat="43.400135" lon="13.177105"><ele>397.25</ele><time>2026-04-04T07:22:05.61Z</time></trkpt><trkpt lat="43.4002217" lon="13.17722"><ele>395.0</ele><time>2026-04-04T07:22:06.565Z</time></trkpt><trkpt lat="43.4003033" lon="13.177335"><ele>393.2</ele><time>2026-04-04T07:22:07.573Z</time></trkpt><trkpt lat="43.4003783" lon="13.17744"><ele>391.4</ele><time>2026-04-04T07:22:08.572Z</time></trkpt><trkpt lat="43.40044" lon="13.1775317"><ele>389.6</ele><time>2026-04-04T07:22:09.58Z</time></trkpt><trkpt lat="43.4004883" lon="13.177615"><ele>387.8</ele><time>2026-04-04T07:22:10.571Z</time></trkpt><trkpt lat="43.4004917" lon="13.17777"><ele>386.0</ele><time>2026-04-04T07:22:12.57Z</time></trkpt><trkpt lat="43.4004367" lon="13.177815"><ele>386.0</ele><time>2026-04-04T07:22:13.571Z</time></trkpt><trkpt lat="43.40035" lon="13.17783"><ele>386.0</ele><time>2026-04-04T07:22:14.574Z</time></trkpt><trkpt lat="43.4002467" lon="13.1778317"><ele>386.0</ele><time>2026-04-04T07:22:15.579Z</time></trkpt><trkpt lat="43.4001367" lon="13.177835"><ele>386.0</ele><time>2026-04-04T07:22:16.576Z</time></trkpt><trkpt lat="43.4000217" lon="13.1778317"><ele>386.0</ele><time>2026-04-04T07:22:17.62Z</time></trkpt><trkpt lat="43.3999233" lon="13.177825"><ele>386.0</ele><time>2026-04-04T07:22:18.574Z</time></trkpt><trkpt lat="43.3998283" lon="13.1778383"><ele>386.0</ele><time>2026-04-04T07:22:19.577Z</time></trkpt><trkpt lat="43.3997767" lon="13.1778917"><ele>386.0</ele><time>2026-04-04T07:22:20.578Z</time></trkpt><trkpt lat="43.39974" lon="13.1779917"><ele>386.0</ele><time>2026-04-04T07:22:21.569Z</time></trkpt><trkpt lat="43.3997283" lon="13.1781333"><ele>386.0</ele><time>2026-04-04T07:22:22.569Z</time></trkpt><trkpt lat="43.399725" lon="13.1782933"><ele>383.25</ele><time>2026-04-04T07:22:23.634Z</time></trkpt><trkpt lat="43.3997333" lon="13.1784683"><ele>380.5</ele><time>2026-04-04T07:22:24.563Z</time></trkpt><trkpt lat="43.39975" lon="13.1786617"><ele>377.75</ele><time>2026-04-04T07:22:25.568Z</time></trkpt><trkpt lat="43.399765" lon="13.1788633"><ele>375.0</ele><time>2026-04-04T07:22:26.565Z</time></trkpt><trkpt lat="43.3997767" lon="13.1790667"><ele>372.75</ele><time>2026-04-04T07:22:27.575Z</time></trkpt><trkpt lat="43.3997867" lon="13.1792633"><ele>370.5</ele><time>2026-04-04T07:22:28.573Z</time></trkpt><trkpt lat="43.3997967" lon="13.179455"><ele>368.25</ele><time>2026-04-04T07:22:29.6Z</time></trkpt><trkpt lat="43.3998117" lon="13.1796433"><ele>366.0</ele><time>2026-04-04T07:22:30.581Z</time></trkpt><trkpt lat="43.3998383" lon="13.1798217"><ele>363.0</ele><time>2026-04-04T07:22:31.574Z</time></trkpt><trkpt lat="43.399865" lon="13.1799967"><ele>360.0</ele><time>2026-04-04T07:22:32.577Z</time></trkpt><trkpt lat="43.3998883" lon="13.18016"><ele>357.0</ele><time>2026-04-04T07:22:33.581Z</time></trkpt><trkpt lat="43.3999117" lon="13.1803217"><ele>354.0</ele><time>2026-04-04T07:22:34.577Z</time></trkpt><trkpt lat="43.3999283" lon="13.1804833"><ele>354.0</ele><time>2026-04-04T07:22:35.617Z</time></trkpt><trkpt lat="43.3999417" lon="13.1806417"><ele>354.0</ele><time>2026-04-04T07:22:36.571Z</time></trkpt><trkpt lat="43.3999433" lon="13.1807933"><ele>354.0</ele><time>2026-04-04T07:22:37.573Z</time></trkpt><trkpt lat="43.3999217" lon="13.18094"><ele>354.0</ele><time>2026-04-04T07:22:38.572Z</time></trkpt><trkpt lat="43.399875" lon="13.1810883"><ele>352.75</ele><time>2026-04-04T07:22:39.573Z</time></trkpt><trkpt lat="43.399815" lon="13.1812417"><ele>351.5</ele><time>2026-04-04T07:22:40.584Z</time></trkpt><trkpt lat="43.3997617" lon="13.1814033"><ele>350.25</ele><time>2026-04-04T07:22:41.622Z</time></trkpt><trkpt lat="43.3997067" lon="13.181575"><ele>349.0</ele><time>2026-04-04T07:22:42.564Z</time></trkpt><trkpt lat="43.3996467" lon="13.181745"><ele>348.25</ele><time>2026-04-04T07:22:43.575Z</time></trkpt><trkpt lat="43.3995883" lon="13.1819117"><ele>347.5</ele><time>2026-04-04T07:22:44.578Z</time></trkpt><trkpt lat="43.3995267" lon="13.182075"><ele>346.75</ele><time>2026-04-04T07:22:45.58Z</time></trkpt><trkpt lat="43.39947" lon="13.182235"><ele>346.0</ele><time>2026-04-04T07:22:46.564Z</time></trkpt><trkpt lat="43.3994133" lon="13.1823917"><ele>343.75</ele><time>2026-04-04T07:22:47.62Z</time></trkpt><trkpt lat="43.3993517" lon="13.1825417"><ele>341.5</ele><time>2026-04-04T07:22:48.563Z</time></trkpt><trkpt lat="43.399285" lon="13.1826883"><ele>339.25</ele><time>2026-04-04T07:22:49.575Z</time></trkpt><trkpt lat="43.399215" lon="13.18284"><ele>337.0</ele><time>2026-04-04T07:22:50.577Z</time></trkpt><trkpt lat="43.3991433" lon="13.1829933"><ele>337.0</ele><time>2026-04-04T07:22:51.581Z</time></trkpt><trkpt lat="43.3990717" lon="13.1831433"><ele>337.0</ele><time>2026-04-04T07:22:52.568Z</time></trkpt><trkpt lat="43.3989983" lon="13.1832917"><ele>337.0</ele><time>2026-04-04T07:22:53.632Z</time></trkpt><trkpt lat="43.3989283" lon="13.1834417"><ele>337.0</ele><time>2026-04-04T07:22:54.575Z</time></trkpt><trkpt lat="43.3988583" lon="13.1835917"><ele>334.75</ele><time>2026-04-04T07:22:55.575Z</time></trkpt><trkpt lat="43.3987967" lon="13.1837383"><ele>332.5</ele><time>2026-04-04T07:22:56.575Z</time></trkpt><trkpt lat="43.3987417" lon="13.18389"><ele>330.25</ele><time>2026-04-04T07:22:57.569Z</time></trkpt><trkpt lat="43.3986933" lon="13.184045"><ele>328.0</ele><time>2026-04-04T07:22:58.563Z</time></trkpt><trkpt lat="43.3986467" lon="13.1842017"><ele>325.5</ele><time>2026-04-04T07:22:59.621Z</time></trkpt><trkpt lat="43.3986" lon="13.1843617"><ele>323.0</ele><time>2026-04-04T07:23:00.571Z</time></trkpt><trkpt lat="43.3985533" lon="13.1845183"><ele>320.5</ele><time>2026-04-04T07:23:01.574Z</time></trkpt><trkpt lat="43.39851" lon="13.1846617"><ele>318.0</ele><time>2026-04-04T07:23:02.573Z</time></trkpt><trkpt lat="43.398475" lon="13.1847933"><ele>315.2</ele><time>2026-04-04T07:23:03.573Z</time></trkpt><trkpt lat="43.3984533" lon="13.18492"><ele>312.4</ele><time>2026-04-04T07:23:04.574Z</time></trkpt><trkpt lat="43.3984567" lon="13.185035"><ele>309.59999999999997</ele><time>2026-04-04T07:23:05.614Z</time></trkpt><trkpt lat="43.3984817" lon="13.1851383"><ele>306.8</ele><time>2026-04-04T07:23:06.57Z</time></trkpt><trkpt lat="43.3985217" lon="13.18522"><ele>304.0</ele><time>2026-04-04T07:23:07.57Z</time></trkpt><trkpt lat="43.398625" lon="13.1853217"><ele>304.0</ele><time>2026-04-04T07:23:09.573Z</time></trkpt><trkpt lat="43.3986917" lon="13.1853867"><ele>304.0</ele><time>2026-04-04T07:23:10.571Z</time></trkpt><trkpt lat="43.3987867" lon="13.1854567"><ele>304.0</ele><time>2026-04-04T07:23:11.616Z</time></trkpt><trkpt lat="43.3989033" lon="13.1855317"><ele>304.0</ele><time>2026-04-04T07:23:12.567Z</time></trkpt><trkpt lat="43.3990267" lon="13.185605"><ele>305.0</ele><time>2026-04-04T07:23:13.571Z</time></trkpt><trkpt lat="43.39915" lon="13.1856683"><ele>306.0</ele><time>2026-04-04T07:23:14.567Z</time></trkpt><trkpt lat="43.3992683" lon="13.1857133"><ele>307.0</ele><time>2026-04-04T07:23:15.573Z</time></trkpt><trkpt lat="43.399385" lon="13.1857433"><ele>308.0</ele><time>2026-04-04T07:23:16.571Z</time></trkpt><trkpt lat="43.3995017" lon="13.1857633"><ele>304.25</ele><time>2026-04-04T07:23:17.616Z</time></trkpt><trkpt lat="43.399615" lon="13.1857867"><ele>300.5</ele><time>2026-04-04T07:23:18.568Z</time></trkpt><trkpt lat="43.3997267" lon="13.1858167"><ele>296.75</ele><time>2026-04-04T07:23:19.568Z</time></trkpt><trkpt lat="43.3998367" lon="13.1858583"><ele>293.0</ele><time>2026-04-04T07:23:20.579Z</time></trkpt><trkpt lat="43.3999467" lon="13.185915"><ele>291.75</ele><time>2026-04-04T07:23:21.582Z</time></trkpt><trkpt lat="43.400045" lon="13.18599"><ele>290.5</ele><time>2026-04-04T07:23:22.574Z</time></trkpt><trkpt lat="43.4001333" lon="13.186085"><ele>289.25</ele><time>2026-04-04T07:23:23.597Z</time></trkpt><trkpt lat="43.400215" lon="13.1861933"><ele>288.0</ele><time>2026-04-04T07:23:24.573Z</time></trkpt><trkpt lat="43.40028" lon="13.1863383"><ele>288.0</ele><time>2026-04-04T07:23:25.575Z</time></trkpt><trkpt lat="43.4003367" lon="13.1864933"><ele>288.0</ele><time>2026-04-04T07:23:26.572Z</time></trkpt><trkpt lat="43.4003817" lon="13.1866583"><ele>288.0</ele><time>2026-04-04T07:23:27.572Z</time></trkpt><trkpt lat="43.4004233" lon="13.186825"><ele>288.0</ele><time>2026-04-04T07:23:28.573Z</time></trkpt><trkpt lat="43.4004667" lon="13.1869867"><ele>283.5</ele><time>2026-04-04T07:23:29.621Z</time></trkpt><trkpt lat="43.4005083" lon="13.1871467"><ele>279.0</ele><time>2026-04-04T07:23:30.576Z</time></trkpt><trkpt lat="43.400545" lon="13.187305"><ele>274.5</ele><time>2026-04-04T07:23:31.572Z</time></trkpt><trkpt lat="43.4005833" lon="13.1874583"><ele>270.0</ele><time>2026-04-04T07:23:32.573Z</time></trkpt><trkpt lat="43.4006217" lon="13.187615"><ele>269.0</ele><time>2026-04-04T07:23:33.574Z</time></trkpt><trkpt lat="43.4006533" lon="13.187775"><ele>268.0</ele><time>2026-04-04T07:23:34.565Z</time></trkpt><trkpt lat="43.4006733" lon="13.1879367"><ele>267.0</ele><time>2026-04-04T07:23:35.626Z</time></trkpt><trkpt lat="43.4006883" lon="13.1880917"><ele>266.0</ele><time>2026-04-04T07:23:36.566Z</time></trkpt><trkpt lat="43.4007" lon="13.1882483"><ele>266.0</ele><time>2026-04-04T07:23:37.573Z</time></trkpt><trkpt lat="43.4007033" lon="13.1884033"><ele>266.0</ele><time>2026-04-04T07:23:38.575Z</time></trkpt><trkpt lat="43.4007017" lon="13.18856"><ele>266.0</ele><time>2026-04-04T07:23:39.574Z</time></trkpt><trkpt lat="43.4007" lon="13.188715"><ele>266.0</ele><time>2026-04-04T07:23:40.575Z</time></trkpt><trkpt lat="43.40069" lon="13.1888683"><ele>265.0</ele><time>2026-04-04T07:23:41.619Z</time></trkpt><trkpt lat="43.4006733" lon="13.1890133"><ele>264.0</ele><time>2026-04-04T07:23:42.574Z</time></trkpt><trkpt lat="43.4006567" lon="13.189145"><ele>263.0</ele><time>2026-04-04T07:23:43.575Z</time></trkpt><trkpt lat="43.400645" lon="13.1892733"><ele>262.0</ele><time>2026-04-04T07:23:44.562Z</time></trkpt><trkpt lat="43.400635" lon="13.18939"><ele>261.0</ele><time>2026-04-04T07:23:45.567Z</time></trkpt><trkpt lat="43.4006217" lon="13.189485"><ele>261.0</ele><time>2026-04-04T07:23:46.575Z</time></trkpt><trkpt lat="43.4005617" lon="13.1896167"><ele>261.0</ele><time>2026-04-04T07:23:48.572Z</time></trkpt><trkpt lat="43.4005" lon="13.1896467"><ele>261.0</ele><time>2026-04-04T07:23:49.573Z</time></trkpt><trkpt lat="43.4004333" lon="13.1896633"><ele>261.0</ele><time>2026-04-04T07:23:50.567Z</time></trkpt><trkpt lat="43.4003717" lon="13.1896833"><ele>261.0</ele><time>2026-04-04T07:23:51.576Z</time></trkpt><trkpt lat="43.400355" lon="13.1898267"><ele>261.0</ele><time>2026-04-04T07:23:53.629Z</time></trkpt><trkpt lat="43.4003783" lon="13.1899233"><ele>258.8333333333333</ele><time>2026-04-04T07:23:54.565Z</time></trkpt><trkpt lat="43.4004033" lon="13.1900217"><ele>256.6666666666667</ele><time>2026-04-04T07:23:55.574Z</time></trkpt><trkpt lat="43.4004133" lon="13.19012"><ele>254.5</ele><time>2026-04-04T07:23:56.573Z</time></trkpt><trkpt lat="43.4004017" lon="13.1902083"><ele>252.33333333333334</ele><time>2026-04-04T07:23:57.57Z</time></trkpt><trkpt lat="43.4003083" lon="13.1902933"><ele>250.16666666666669</ele><time>2026-04-04T07:23:59.623Z</time></trkpt><trkpt lat="43.40024" lon="13.1902783"><ele>248.0</ele><time>2026-04-04T07:24:00.568Z</time></trkpt><trkpt lat="43.4001733" lon="13.1902783"><ele>248.0</ele><time>2026-04-04T07:24:01.573Z</time></trkpt><trkpt lat="43.40008" lon="13.1903483"><ele>248.0</ele><time>2026-04-04T07:24:03.58Z</time></trkpt><trkpt lat="43.4001033" lon="13.19049"><ele>248.0</ele><time>2026-04-04T07:24:05.614Z</time></trkpt><trkpt lat="43.4001667" lon="13.1905767"><ele>248.0</ele><time>2026-04-04T07:24:06.573Z</time></trkpt><trkpt lat="43.400205" lon="13.1906533"><ele>248.0</ele><time>2026-04-04T07:24:07.569Z</time></trkpt><trkpt lat="43.4001467" lon="13.1907617"><ele>247.0</ele><time>2026-04-04T07:24:09.569Z</time></trkpt><trkpt lat="43.4000833" lon="13.19078"><ele>246.0</ele><time>2026-04-04T07:24:10.578Z</time></trkpt><trkpt lat="43.4" lon="13.1908067"><ele>245.0</ele><time>2026-04-04T07:24:11.608Z</time></trkpt><trkpt lat="43.39991" lon="13.1908483"><ele>244.0</ele><time>2026-04-04T07:24:12.569Z</time></trkpt><trkpt lat="43.3998217" lon="13.190915"><ele>243.0</ele><time>2026-04-04T07:24:13.569Z</time></trkpt><trkpt lat="43.3997317" lon="13.1910017"><ele>242.25</ele><time>2026-04-04T07:24:14.573Z</time></trkpt><trkpt lat="43.3996333" lon="13.1911067"><ele>241.5</ele><time>2026-04-04T07:24:15.569Z</time></trkpt><trkpt lat="43.3995383" lon="13.1912167"><ele>240.75</ele><time>2026-04-04T07:24:16.579Z</time></trkpt><trkpt lat="43.399455" lon="13.1913183"><ele>240.0</ele><time>2026-04-04T07:24:17.611Z</time></trkpt><trkpt lat="43.3993833" lon="13.19142"><ele>240.83333333333334</ele><time>2026-04-04T07:24:18.565Z</time></trkpt><trkpt lat="43.3993233" lon="13.1915217"><ele>241.66666666666669</ele><time>2026-04-04T07:24:19.569Z</time></trkpt><trkpt lat="43.3992683" lon="13.1916133"><ele>242.5</ele><time>2026-04-04T07:24:20.569Z</time></trkpt><trkpt lat="43.3992117" lon="13.1916883"><ele>243.33333333333334</ele><time>2026-04-04T07:24:21.568Z</time></trkpt><trkpt lat="43.39911" lon="13.1917017"><ele>244.16666666666669</ele><time>2026-04-04T07:24:23.623Z</time></trkpt><trkpt lat="43.39905" lon="13.1916567"><ele>245.0</ele><time>2026-04-04T07:24:24.567Z</time></trkpt><trkpt lat="43.39898" lon="13.191585"><ele>244.0</ele><time>2026-04-04T07:24:25.567Z</time></trkpt><trkpt lat="43.3989017" lon="13.1915"><ele>243.0</ele><time>2026-04-04T07:24:26.565Z</time></trkpt><trkpt lat="43.3988133" lon="13.1914117"><ele>242.0</ele><time>2026-04-04T07:24:27.576Z</time></trkpt><trkpt lat="43.3987283" lon="13.1913267"><ele>241.0</ele><time>2026-04-04T07:24:28.568Z</time></trkpt><trkpt lat="43.3986383" lon="13.1912533"><ele>240.0</ele><time>2026-04-04T07:24:29.618Z</time></trkpt><trkpt lat="43.3985533" lon="13.19117"><ele>241.66666666666666</ele><time>2026-04-04T07:24:30.575Z</time></trkpt><trkpt lat="43.3984667" lon="13.1910833"><ele>243.33333333333331</ele><time>2026-04-04T07:24:31.568Z</time></trkpt><trkpt lat="43.3983967" lon="13.1909917"><ele>245.0</ele><time>2026-04-04T07:24:32.569Z</time></trkpt><trkpt lat="43.398345" lon="13.1909"><ele>246.66666666666666</ele><time>2026-04-04T07:24:33.57Z</time></trkpt><trkpt lat="43.3982883" lon="13.1908267"><ele>248.33333333333331</ele><time>2026-04-04T07:24:34.571Z</time></trkpt><trkpt lat="43.3982367" lon="13.1907633"><ele>250.0</ele><time>2026-04-04T07:24:35.608Z</time></trkpt><trkpt lat="43.3981567" lon="13.1906867"><ele>250.0</ele><time>2026-04-04T07:24:37.577Z</time></trkpt><trkpt lat="43.3982233" lon="13.19063"><ele>241.0</ele><time>2026-04-04T07:25:51.565Z</time></trkpt></trkseg></trk></gpx>